<?xml version="1.0" encoding="UTF-8" standalone="no" ?>
<gpx xmlns="http://www.topografix.com/GPX/1/1" xmlns:xsi="http://www.w3.org/2001/XMLSchema-instance" xsi:schemaLocation="http://www.topografix.com/GPX/1/1 http://www.topografix.com/GPX/1/1/gpx.xsd" version="1.1" creator="VisuGPX - https://www.visugpx.com">
  <metadata>
    <name>Le col des champs</name>
    <desc><![CDATA[Le col des champs que l'on peut rebaptiser le col des fleurs à cette période.
Cette année nous avons eu de l'eau en plus dans les ravines, une merveille.
Un aller retour sans grande difficulté, prendre son temps pour profiter de la nature.]]></desc>
  </metadata>
  <trk>
    <name><![CDATA[Le col des champs]]></name>
    <extensions>
      <line xmlns="http://www.topografix.com/GPX/gpx_style/0/2">
        <color>0000FF</color>
        <width>4</width>
      </line>
    </extensions>
    <trkseg>
      <trkpt lat="44.18729" lon="6.65369">
        <ele>1689.7</ele>
        <time>2023-06-24T07:12:26.000Z</time>
      </trkpt>
      <trkpt lat="44.18733" lon="6.6537">
        <ele>1689</ele>
        <time>2023-06-24T07:12:31.646Z</time>
      </trkpt>
      <trkpt lat="44.18737" lon="6.65375">
        <ele>1688.8</ele>
        <time>2023-06-24T07:12:39.272Z</time>
      </trkpt>
      <trkpt lat="44.18738" lon="6.65374">
        <ele>1688.4</ele>
        <time>2023-06-24T07:12:40.982Z</time>
      </trkpt>
      <trkpt lat="44.1874" lon="6.65374">
        <ele>1688</ele>
        <time>2023-06-24T07:12:43.761Z</time>
      </trkpt>
      <trkpt lat="44.18742" lon="6.65375">
        <ele>1687.7</ele>
        <time>2023-06-24T07:12:46.713Z</time>
      </trkpt>
      <trkpt lat="44.18747" lon="6.65385">
        <ele>1688.1</ele>
        <time>2023-06-24T07:13:02.760Z</time>
      </trkpt>
      <trkpt lat="44.18751" lon="6.65395">
        <ele>1688.4</ele>
        <time>2023-06-24T07:13:17.388Z</time>
      </trkpt>
      <trkpt lat="44.18751" lon="6.65395">
        <ele>1688.4</ele>
        <time>2023-06-24T07:13:17.388Z</time>
      </trkpt>
      <trkpt lat="44.18754" lon="6.65403">
        <ele>1688.6</ele>
        <time>2023-06-24T07:13:28.715Z</time>
      </trkpt>
      <trkpt lat="44.18757" lon="6.65411">
        <ele>1688.8</ele>
        <time>2023-06-24T07:13:40.041Z</time>
      </trkpt>
      <trkpt lat="44.18758" lon="6.65416">
        <ele>1689.2</ele>
        <time>2023-06-24T07:13:48.462Z</time>
      </trkpt>
      <trkpt lat="44.18761" lon="6.65424">
        <ele>1690</ele>
        <time>2023-06-24T07:14:03.973Z</time>
      </trkpt>
      <trkpt lat="44.18763" lon="6.65432">
        <ele>1690.7</ele>
        <time>2023-06-24T07:14:18.101Z</time>
      </trkpt>
      <trkpt lat="44.18765" lon="6.65441">
        <ele>1691.7</ele>
        <time>2023-06-24T07:14:35.795Z</time>
      </trkpt>
      <trkpt lat="44.18767" lon="6.6545">
        <ele>1692.8</ele>
        <time>2023-06-24T07:14:54.494Z</time>
      </trkpt>
      <trkpt lat="44.18768" lon="6.65455">
        <ele>1693.6</ele>
        <time>2023-06-24T07:15:07.097Z</time>
      </trkpt>
      <trkpt lat="44.18772" lon="6.65461">
        <ele>1693.9</ele>
        <time>2023-06-24T07:15:18.070Z</time>
      </trkpt>
      <trkpt lat="44.18774" lon="6.65464">
        <ele>1694.1</ele>
        <time>2023-06-24T07:15:23.875Z</time>
      </trkpt>
      <trkpt lat="44.18778" lon="6.6547">
        <ele>1694.4</ele>
        <time>2023-06-24T07:15:34.847Z</time>
      </trkpt>
      <trkpt lat="44.18782" lon="6.65475">
        <ele>1694.6</ele>
        <time>2023-06-24T07:15:44.439Z</time>
      </trkpt>
      <trkpt lat="44.18785" lon="6.65481">
        <ele>1694.7</ele>
        <time>2023-06-24T07:15:53.277Z</time>
      </trkpt>
      <trkpt lat="44.18789" lon="6.65486">
        <ele>1694.9</ele>
        <time>2023-06-24T07:16:02.869Z</time>
      </trkpt>
      <trkpt lat="44.18793" lon="6.65494">
        <ele>1695.5</ele>
        <time>2023-06-24T07:16:17.544Z</time>
      </trkpt>
      <trkpt lat="44.18797" lon="6.65502">
        <ele>1696.2</ele>
        <time>2023-06-24T07:16:32.964Z</time>
      </trkpt>
      <trkpt lat="44.18799" lon="6.65514">
        <ele>1697.9</ele>
        <time>2023-06-24T07:17:00.345Z</time>
      </trkpt>
      <trkpt lat="44.188" lon="6.65522">
        <ele>1699.1</ele>
        <time>2023-06-24T07:17:19.383Z</time>
      </trkpt>
      <trkpt lat="44.18801" lon="6.65529">
        <ele>1700.3</ele>
        <time>2023-06-24T07:17:38.124Z</time>
      </trkpt>
      <trkpt lat="44.18801" lon="6.65537">
        <ele>1701.2</ele>
        <time>2023-06-24T07:17:53.652Z</time>
      </trkpt>
      <trkpt lat="44.18802" lon="6.65544">
        <ele>1702.1</ele>
        <time>2023-06-24T07:18:08.534Z</time>
      </trkpt>
      <trkpt lat="44.18803" lon="6.65552">
        <ele>1703</ele>
        <time>2023-06-24T07:18:24.160Z</time>
      </trkpt>
      <trkpt lat="44.18804" lon="6.65559">
        <ele>1703.7</ele>
        <time>2023-06-24T07:18:37.022Z</time>
      </trkpt>
      <trkpt lat="44.18804" lon="6.65567">
        <ele>1704.1</ele>
        <time>2023-06-24T07:18:48.421Z</time>
      </trkpt>
      <trkpt lat="44.18805" lon="6.65574">
        <ele>1704.4</ele>
        <time>2023-06-24T07:18:58.222Z</time>
      </trkpt>
      <trkpt lat="44.18806" lon="6.65582">
        <ele>1704.9</ele>
        <time>2023-06-24T07:19:10.444Z</time>
      </trkpt>
      <trkpt lat="44.18806" lon="6.6559">
        <ele>1705.4</ele>
        <time>2023-06-24T07:19:22.538Z</time>
      </trkpt>
      <trkpt lat="44.18807" lon="6.65594">
        <ele>1705.5</ele>
        <time>2023-06-24T07:19:27.888Z</time>
      </trkpt>
      <trkpt lat="44.18811" lon="6.65601">
        <ele>1705.1</ele>
        <time>2023-06-24T07:19:36.806Z</time>
      </trkpt>
      <trkpt lat="44.18815" lon="6.65608">
        <ele>1704.7</ele>
        <time>2023-06-24T07:19:45.723Z</time>
      </trkpt>
      <trkpt lat="44.18817" lon="6.65613">
        <ele>1704.6</ele>
        <time>2023-06-24T07:19:51.778Z</time>
      </trkpt>
      <trkpt lat="44.18818" lon="6.65617">
        <ele>1704.5</ele>
        <time>2023-06-24T07:19:56.146Z</time>
      </trkpt>
      <trkpt lat="44.18818" lon="6.65623">
        <ele>1704.7</ele>
        <time>2023-06-24T07:20:04.062Z</time>
      </trkpt>
      <trkpt lat="44.18818" lon="6.65629">
        <ele>1705</ele>
        <time>2023-06-24T07:20:12.612Z</time>
      </trkpt>
      <trkpt lat="44.18816" lon="6.65635">
        <ele>1705.6</ele>
        <time>2023-06-24T07:20:24.098Z</time>
      </trkpt>
      <trkpt lat="44.18814" lon="6.65641">
        <ele>1706.3</ele>
        <time>2023-06-24T07:20:36.502Z</time>
      </trkpt>
      <trkpt lat="44.18812" lon="6.65647">
        <ele>1706.9</ele>
        <time>2023-06-24T07:20:47.988Z</time>
      </trkpt>
      <trkpt lat="44.1881" lon="6.65653">
        <ele>1707.5</ele>
        <time>2023-06-24T07:20:59.474Z</time>
      </trkpt>
      <trkpt lat="44.18808" lon="6.65662">
        <ele>1708.3</ele>
        <time>2023-06-24T07:21:15.365Z</time>
      </trkpt>
      <trkpt lat="44.18808" lon="6.65667">
        <ele>1708.5</ele>
        <time>2023-06-24T07:21:22.166Z</time>
      </trkpt>
      <trkpt lat="44.18809" lon="6.65677">
        <ele>1708.7</ele>
        <time>2023-06-24T07:21:34.702Z</time>
      </trkpt>
      <trkpt lat="44.18809" lon="6.65686">
        <ele>1709</ele>
        <time>2023-06-24T07:21:46.576Z</time>
      </trkpt>
      <trkpt lat="44.18809" lon="6.65693">
        <ele>1709.2</ele>
        <time>2023-06-24T07:21:55.615Z</time>
      </trkpt>
      <trkpt lat="44.18808" lon="6.65701">
        <ele>1709.7</ele>
        <time>2023-06-24T07:22:07.837Z</time>
      </trkpt>
      <trkpt lat="44.18807" lon="6.65712">
        <ele>1710.4</ele>
        <time>2023-06-24T07:22:24.651Z</time>
      </trkpt>
      <trkpt lat="44.18805" lon="6.65722">
        <ele>1711.1</ele>
        <time>2023-06-24T07:22:40.722Z</time>
      </trkpt>
      <trkpt lat="44.18805" lon="6.65727">
        <ele>1711.7</ele>
        <time>2023-06-24T07:22:50.816Z</time>
      </trkpt>
      <trkpt lat="44.18807" lon="6.65732">
        <ele>1711.8</ele>
        <time>2023-06-24T07:22:57.851Z</time>
      </trkpt>
      <trkpt lat="44.1881" lon="6.65739">
        <ele>1711.9</ele>
        <time>2023-06-24T07:23:07.644Z</time>
      </trkpt>
      <trkpt lat="44.18815" lon="6.65744">
        <ele>1711.4</ele>
        <time>2023-06-24T07:23:16.193Z</time>
      </trkpt>
      <trkpt lat="44.18819" lon="6.65745">
        <ele>1710.6</ele>
        <time>2023-06-24T07:23:21.839Z</time>
      </trkpt>
      <trkpt lat="44.18825" lon="6.65747">
        <ele>1709.6</ele>
        <time>2023-06-24T07:23:30.411Z</time>
      </trkpt>
      <trkpt lat="44.18831" lon="6.65749">
        <ele>1708.4</ele>
        <time>2023-06-24T07:23:38.983Z</time>
      </trkpt>
      <trkpt lat="44.18836" lon="6.65752">
        <ele>1707.6</ele>
        <time>2023-06-24T07:23:46.546Z</time>
      </trkpt>
      <trkpt lat="44.18841" lon="6.65757">
        <ele>1706.9</ele>
        <time>2023-06-24T07:23:55.094Z</time>
      </trkpt>
      <trkpt lat="44.18845" lon="6.65762">
        <ele>1706.5</ele>
        <time>2023-06-24T07:24:02.558Z</time>
      </trkpt>
      <trkpt lat="44.1885" lon="6.65769">
        <ele>1706.2</ele>
        <time>2023-06-24T07:24:12.466Z</time>
      </trkpt>
      <trkpt lat="44.18854" lon="6.65775">
        <ele>1706</ele>
        <time>2023-06-24T07:24:20.885Z</time>
      </trkpt>
      <trkpt lat="44.1886" lon="6.65782">
        <ele>1705.5</ele>
        <time>2023-06-24T07:24:31.754Z</time>
      </trkpt>
      <trkpt lat="44.18866" lon="6.65788">
        <ele>1705</ele>
        <time>2023-06-24T07:24:42.013Z</time>
      </trkpt>
      <trkpt lat="44.18871" lon="6.65795">
        <ele>1704.6</ele>
        <time>2023-06-24T07:24:51.856Z</time>
      </trkpt>
      <trkpt lat="44.18877" lon="6.65801">
        <ele>1704.3</ele>
        <time>2023-06-24T07:25:02.234Z</time>
      </trkpt>
      <trkpt lat="44.18881" lon="6.65806">
        <ele>1704.2</ele>
        <time>2023-06-24T07:25:10.294Z</time>
      </trkpt>
      <trkpt lat="44.18884" lon="6.65811">
        <ele>1704.2</ele>
        <time>2023-06-24T07:25:17.717Z</time>
      </trkpt>
      <trkpt lat="44.18888" lon="6.65815">
        <ele>1704.2</ele>
        <time>2023-06-24T07:25:25.533Z</time>
      </trkpt>
      <trkpt lat="44.18892" lon="6.6582">
        <ele>1704.1</ele>
        <time>2023-06-24T07:25:33.593Z</time>
      </trkpt>
      <trkpt lat="44.18895" lon="6.65825">
        <ele>1704</ele>
        <time>2023-06-24T07:25:40.550Z</time>
      </trkpt>
      <trkpt lat="44.18899" lon="6.6583">
        <ele>1703.9</ele>
        <time>2023-06-24T07:25:48.610Z</time>
      </trkpt>
      <trkpt lat="44.18902" lon="6.65834">
        <ele>1703.6</ele>
        <time>2023-06-24T07:25:54.377Z</time>
      </trkpt>
      <trkpt lat="44.18906" lon="6.65839">
        <ele>1703.3</ele>
        <time>2023-06-24T07:26:01.840Z</time>
      </trkpt>
      <trkpt lat="44.18911" lon="6.65846">
        <ele>1702.9</ele>
        <time>2023-06-24T07:26:11.684Z</time>
      </trkpt>
      <trkpt lat="44.18916" lon="6.65852">
        <ele>1702.5</ele>
        <time>2023-06-24T07:26:20.849Z</time>
      </trkpt>
      <trkpt lat="44.18919" lon="6.65858">
        <ele>1702.3</ele>
        <time>2023-06-24T07:26:28.276Z</time>
      </trkpt>
      <trkpt lat="44.18921" lon="6.65866">
        <ele>1702.4</ele>
        <time>2023-06-24T07:26:38.429Z</time>
      </trkpt>
      <trkpt lat="44.18923" lon="6.65874">
        <ele>1702.6</ele>
        <time>2023-06-24T07:26:49.127Z</time>
      </trkpt>
      <trkpt lat="44.18924" lon="6.65881">
        <ele>1702.8</ele>
        <time>2023-06-24T07:26:58.320Z</time>
      </trkpt>
      <trkpt lat="44.18925" lon="6.65887">
        <ele>1703.1</ele>
        <time>2023-06-24T07:27:07.044Z</time>
      </trkpt>
      <trkpt lat="44.18929" lon="6.65895">
        <ele>1702.7</ele>
        <time>2023-06-24T07:27:16.761Z</time>
      </trkpt>
      <trkpt lat="44.18934" lon="6.65901">
        <ele>1701.9</ele>
        <time>2023-06-24T07:27:25.926Z</time>
      </trkpt>
      <trkpt lat="44.18937" lon="6.65903">
        <ele>1701.3</ele>
        <time>2023-06-24T07:27:30.546Z</time>
      </trkpt>
      <trkpt lat="44.18941" lon="6.65905">
        <ele>1700.4</ele>
        <time>2023-06-24T07:27:36.451Z</time>
      </trkpt>
      <trkpt lat="44.18943" lon="6.65906">
        <ele>1700</ele>
        <time>2023-06-24T07:27:39.403Z</time>
      </trkpt>
      <trkpt lat="44.18946" lon="6.6591">
        <ele>1699.4</ele>
        <time>2023-06-24T07:27:45.170Z</time>
      </trkpt>
      <trkpt lat="44.18948" lon="6.65915">
        <ele>1699</ele>
        <time>2023-06-24T07:27:50.874Z</time>
      </trkpt>
      <trkpt lat="44.18948" lon="6.65923">
        <ele>1699.6</ele>
        <time>2023-06-24T07:28:03.722Z</time>
      </trkpt>
      <trkpt lat="44.18948" lon="6.65931">
        <ele>1700.1</ele>
        <time>2023-06-24T07:28:15.817Z</time>
      </trkpt>
      <trkpt lat="44.18948" lon="6.65939">
        <ele>1700.7</ele>
        <time>2023-06-24T07:28:28.665Z</time>
      </trkpt>
      <trkpt lat="44.18948" lon="6.65947">
        <ele>1701.3</ele>
        <time>2023-06-24T07:28:41.514Z</time>
      </trkpt>
      <trkpt lat="44.18948" lon="6.65954">
        <ele>1701.7</ele>
        <time>2023-06-24T07:28:51.829Z</time>
      </trkpt>
      <trkpt lat="44.18949" lon="6.65961">
        <ele>1702.1</ele>
        <time>2023-06-24T07:29:02.293Z</time>
      </trkpt>
      <trkpt lat="44.18949" lon="6.65967">
        <ele>1702.6</ele>
        <time>2023-06-24T07:29:12.333Z</time>
      </trkpt>
      <trkpt lat="44.18949" lon="6.65974">
        <ele>1703</ele>
        <time>2023-06-24T07:29:22.649Z</time>
      </trkpt>
      <trkpt lat="44.1895" lon="6.65984">
        <ele>1703.6</ele>
        <time>2023-06-24T07:29:37.691Z</time>
      </trkpt>
      <trkpt lat="44.18951" lon="6.65994">
        <ele>1704.2</ele>
        <time>2023-06-24T07:29:52.732Z</time>
      </trkpt>
      <trkpt lat="44.18951" lon="6.66003">
        <ele>1704.8</ele>
        <time>2023-06-24T07:30:06.614Z</time>
      </trkpt>
      <trkpt lat="44.18952" lon="6.66013">
        <ele>1705.3</ele>
        <time>2023-06-24T07:30:20.968Z</time>
      </trkpt>
      <trkpt lat="44.18953" lon="6.6602">
        <ele>1705.6</ele>
        <time>2023-06-24T07:30:30.768Z</time>
      </trkpt>
      <trkpt lat="44.18956" lon="6.66026">
        <ele>1705.4</ele>
        <time>2023-06-24T07:30:38.195Z</time>
      </trkpt>
      <trkpt lat="44.18959" lon="6.6603">
        <ele>1705.1</ele>
        <time>2023-06-24T07:30:43.961Z</time>
      </trkpt>
      <trkpt lat="44.18965" lon="6.66035">
        <ele>1704.3</ele>
        <time>2023-06-24T07:30:53.673Z</time>
      </trkpt>
      <trkpt lat="44.18971" lon="6.66039">
        <ele>1703.5</ele>
        <time>2023-06-24T07:31:02.913Z</time>
      </trkpt>
      <trkpt lat="44.18975" lon="6.66043">
        <ele>1703.2</ele>
        <time>2023-06-24T07:31:09.752Z</time>
      </trkpt>
      <trkpt lat="44.18976" lon="6.66046">
        <ele>1703.4</ele>
        <time>2023-06-24T07:31:14.705Z</time>
      </trkpt>
      <trkpt lat="44.18976" lon="6.66049">
        <ele>1703.7</ele>
        <time>2023-06-24T07:31:20.164Z</time>
      </trkpt>
      <trkpt lat="44.18976" lon="6.66058">
        <ele>1704.7</ele>
        <time>2023-06-24T07:31:37.507Z</time>
      </trkpt>
      <trkpt lat="44.18976" lon="6.66066">
        <ele>1705.6</ele>
        <time>2023-06-24T07:31:53.035Z</time>
      </trkpt>
      <trkpt lat="44.18976" lon="6.66068">
        <ele>1705.8</ele>
        <time>2023-06-24T07:31:56.675Z</time>
      </trkpt>
      <trkpt lat="44.18978" lon="6.66074">
        <ele>1706.2</ele>
        <time>2023-06-24T07:32:06.580Z</time>
      </trkpt>
      <trkpt lat="44.18981" lon="6.66081">
        <ele>1706.5</ele>
        <time>2023-06-24T07:32:17.511Z</time>
      </trkpt>
      <trkpt lat="44.18984" lon="6.66084">
        <ele>1706.4</ele>
        <time>2023-06-24T07:32:22.911Z</time>
      </trkpt>
      <trkpt lat="44.18989" lon="6.66087">
        <ele>1706.1</ele>
        <time>2023-06-24T07:32:30.474Z</time>
      </trkpt>
      <trkpt lat="44.18994" lon="6.66089">
        <ele>1705.7</ele>
        <time>2023-06-24T07:32:37.701Z</time>
      </trkpt>
      <trkpt lat="44.18998" lon="6.66091">
        <ele>1705.3</ele>
        <time>2023-06-24T07:32:43.606Z</time>
      </trkpt>
      <trkpt lat="44.19003" lon="6.66092">
        <ele>1705.1</ele>
        <time>2023-06-24T07:32:50.727Z</time>
      </trkpt>
      <trkpt lat="44.19007" lon="6.66094">
        <ele>1705</ele>
        <time>2023-06-24T07:32:57.010Z</time>
      </trkpt>
      <trkpt lat="44.19011" lon="6.66097">
        <ele>1705.2</ele>
        <time>2023-06-24T07:33:05.300Z</time>
      </trkpt>
      <trkpt lat="44.19016" lon="6.66103">
        <ele>1705.7</ele>
        <time>2023-06-24T07:33:18.679Z</time>
      </trkpt>
      <trkpt lat="44.19018" lon="6.6611">
        <ele>1706.5</ele>
        <time>2023-06-24T07:33:32.832Z</time>
      </trkpt>
      <trkpt lat="44.19019" lon="6.66115">
        <ele>1707.1</ele>
        <time>2023-06-24T07:33:43.071Z</time>
      </trkpt>
      <trkpt lat="44.19019" lon="6.66123">
        <ele>1708.2</ele>
        <time>2023-06-24T07:34:00.805Z</time>
      </trkpt>
      <trkpt lat="44.1902" lon="6.66132">
        <ele>1709.3</ele>
        <time>2023-06-24T07:34:19.266Z</time>
      </trkpt>
      <trkpt lat="44.1902" lon="6.6614">
        <ele>1710.4</ele>
        <time>2023-06-24T07:34:37.000Z</time>
      </trkpt>
      <trkpt lat="44.1902" lon="6.66148">
        <ele>1711.5</ele>
        <time>2023-06-24T07:34:54.733Z</time>
      </trkpt>
      <trkpt lat="44.1902" lon="6.66153">
        <ele>1712.2</ele>
        <time>2023-06-24T07:35:05.967Z</time>
      </trkpt>
      <trkpt lat="44.19022" lon="6.66156">
        <ele>1712.5</ele>
        <time>2023-06-24T07:35:12.490Z</time>
      </trkpt>
      <trkpt lat="44.19025" lon="6.6616">
        <ele>1713.1</ele>
        <time>2023-06-24T07:35:23.223Z</time>
      </trkpt>
      <trkpt lat="44.19029" lon="6.66162">
        <ele>1713.3</ele>
        <time>2023-06-24T07:35:31.056Z</time>
      </trkpt>
      <trkpt lat="44.19031" lon="6.66162">
        <ele>1713.2</ele>
        <time>2023-06-24T07:35:33.835Z</time>
      </trkpt>
      <trkpt lat="44.19039" lon="6.66161">
        <ele>1712.8</ele>
        <time>2023-06-24T07:35:44.995Z</time>
      </trkpt>
      <trkpt lat="44.19047" lon="6.6616">
        <ele>1712.3</ele>
        <time>2023-06-24T07:35:56.156Z</time>
      </trkpt>
      <trkpt lat="44.19052" lon="6.6616">
        <ele>1712.2</ele>
        <time>2023-06-24T07:36:03.627Z</time>
      </trkpt>
      <trkpt lat="44.19057" lon="6.6616">
        <ele>1711.9</ele>
        <time>2023-06-24T07:36:10.574Z</time>
      </trkpt>
      <trkpt lat="44.19061" lon="6.66162">
        <ele>1712</ele>
        <time>2023-06-24T07:36:17.836Z</time>
      </trkpt>
      <trkpt lat="44.19068" lon="6.66167">
        <ele>1712.1</ele>
        <time>2023-06-24T07:36:30.828Z</time>
      </trkpt>
      <trkpt lat="44.19073" lon="6.66172">
        <ele>1712.2</ele>
        <time>2023-06-24T07:36:41.104Z</time>
      </trkpt>
      <trkpt lat="44.19079" lon="6.66181">
        <ele>1712.7</ele>
        <time>2023-06-24T07:36:57.873Z</time>
      </trkpt>
      <trkpt lat="44.19086" lon="6.66189">
        <ele>1713.2</ele>
        <time>2023-06-24T07:37:15.010Z</time>
      </trkpt>
      <trkpt lat="44.19092" lon="6.66198">
        <ele>1713.3</ele>
        <time>2023-06-24T07:37:29.504Z</time>
      </trkpt>
      <trkpt lat="44.19098" lon="6.66206">
        <ele>1713.2</ele>
        <time>2023-06-24T07:37:42.209Z</time>
      </trkpt>
      <trkpt lat="44.19103" lon="6.66211">
        <ele>1713.1</ele>
        <time>2023-06-24T07:37:51.506Z</time>
      </trkpt>
      <trkpt lat="44.19107" lon="6.66216">
        <ele>1713</ele>
        <time>2023-06-24T07:37:59.566Z</time>
      </trkpt>
      <trkpt lat="44.19111" lon="6.66222">
        <ele>1713</ele>
        <time>2023-06-24T07:38:08.895Z</time>
      </trkpt>
      <trkpt lat="44.19114" lon="6.66228">
        <ele>1713.2</ele>
        <time>2023-06-24T07:38:18.287Z</time>
      </trkpt>
      <trkpt lat="44.19117" lon="6.66234">
        <ele>1713.4</ele>
        <time>2023-06-24T07:38:27.679Z</time>
      </trkpt>
      <trkpt lat="44.19119" lon="6.66239">
        <ele>1713.5</ele>
        <time>2023-06-24T07:38:34.714Z</time>
      </trkpt>
      <trkpt lat="44.19121" lon="6.66246">
        <ele>1713.8</ele>
        <time>2023-06-24T07:38:44.955Z</time>
      </trkpt>
      <trkpt lat="44.19124" lon="6.66253">
        <ele>1713.9</ele>
        <time>2023-06-24T07:38:54.747Z</time>
      </trkpt>
      <trkpt lat="44.19126" lon="6.6626">
        <ele>1713.8</ele>
        <time>2023-06-24T07:39:02.857Z</time>
      </trkpt>
      <trkpt lat="44.19129" lon="6.66267">
        <ele>1713.8</ele>
        <time>2023-06-24T07:39:12.142Z</time>
      </trkpt>
      <trkpt lat="44.19131" lon="6.66273">
        <ele>1713.9</ele>
        <time>2023-06-24T07:39:20.188Z</time>
      </trkpt>
      <trkpt lat="44.19133" lon="6.6628">
        <ele>1713.9</ele>
        <time>2023-06-24T07:39:28.767Z</time>
      </trkpt>
      <trkpt lat="44.19136" lon="6.66287">
        <ele>1713.8</ele>
        <time>2023-06-24T07:39:37.581Z</time>
      </trkpt>
      <trkpt lat="44.19138" lon="6.66294">
        <ele>1713.7</ele>
        <time>2023-06-24T07:39:45.691Z</time>
      </trkpt>
      <trkpt lat="44.1914" lon="6.66302">
        <ele>1713.7</ele>
        <time>2023-06-24T07:39:55.337Z</time>
      </trkpt>
      <trkpt lat="44.19141" lon="6.66309">
        <ele>1713.6</ele>
        <time>2023-06-24T07:40:02.995Z</time>
      </trkpt>
      <trkpt lat="44.19143" lon="6.66321">
        <ele>1713.3</ele>
        <time>2023-06-24T07:40:15.658Z</time>
      </trkpt>
      <trkpt lat="44.19143" lon="6.66329">
        <ele>1713.4</ele>
        <time>2023-06-24T07:40:25.274Z</time>
      </trkpt>
      <trkpt lat="44.19143" lon="6.66336">
        <ele>1713.4</ele>
        <time>2023-06-24T07:40:33.244Z</time>
      </trkpt>
      <trkpt lat="44.19143" lon="6.66342">
        <ele>1713.5</ele>
        <time>2023-06-24T07:40:40.590Z</time>
      </trkpt>
      <trkpt lat="44.19142" lon="6.66349">
        <ele>1713.6</ele>
        <time>2023-06-24T07:40:49.227Z</time>
      </trkpt>
      <trkpt lat="44.19142" lon="6.66355">
        <ele>1713.6</ele>
        <time>2023-06-24T07:40:56.058Z</time>
      </trkpt>
      <trkpt lat="44.19141" lon="6.66361">
        <ele>1713.7</ele>
        <time>2023-06-24T07:41:03.586Z</time>
      </trkpt>
      <trkpt lat="44.1914" lon="6.66372">
        <ele>1713.4</ele>
        <time>2023-06-24T07:41:14.856Z</time>
        <extensions>
          <visugpx:TrkExtension xmlns:visugpx="https://www.visugpx.com/editgpx/">
            <visugpx:node>2</visugpx:node>
            </visugpx:TrkExtension>
        </extensions>
      </trkpt>
      <trkpt lat="44.19139" lon="6.6638">
        <ele>1713.3</ele>
        <time>2023-06-24T07:41:23.631Z</time>
      </trkpt>
      <trkpt lat="44.19138" lon="6.66388">
        <ele>1713.2</ele>
        <time>2023-06-24T07:41:32.406Z</time>
      </trkpt>
      <trkpt lat="44.19136" lon="6.664">
        <ele>1713</ele>
        <time>2023-06-24T07:41:45.501Z</time>
      </trkpt>
      <trkpt lat="44.19134" lon="6.66412">
        <ele>1712.9</ele>
        <time>2023-06-24T07:41:59.051Z</time>
      </trkpt>
      <trkpt lat="44.19133" lon="6.66417">
        <ele>1712.8</ele>
        <time>2023-06-24T07:42:04.500Z</time>
      </trkpt>
      <trkpt lat="44.19135" lon="6.66423">
        <ele>1712.5</ele>
        <time>2023-06-24T07:42:11.092Z</time>
      </trkpt>
      <trkpt lat="44.19137" lon="6.66428">
        <ele>1712.2</ele>
        <time>2023-06-24T07:42:16.796Z</time>
      </trkpt>
      <trkpt lat="44.19141" lon="6.66432">
        <ele>1711.8</ele>
        <time>2023-06-24T07:42:23.635Z</time>
      </trkpt>
      <trkpt lat="44.19145" lon="6.66437">
        <ele>1711.4</ele>
        <time>2023-06-24T07:42:31.098Z</time>
      </trkpt>
      <trkpt lat="44.19148" lon="6.66441">
        <ele>1711</ele>
        <time>2023-06-24T07:42:36.865Z</time>
      </trkpt>
      <trkpt lat="44.19152" lon="6.66445">
        <ele>1710.6</ele>
        <time>2023-06-24T07:42:43.704Z</time>
      </trkpt>
      <trkpt lat="44.19155" lon="6.66447">
        <ele>1710.3</ele>
        <time>2023-06-24T07:42:48.324Z</time>
      </trkpt>
      <trkpt lat="44.19158" lon="6.66448">
        <ele>1710</ele>
        <time>2023-06-24T07:42:52.610Z</time>
      </trkpt>
      <trkpt lat="44.19165" lon="6.6645">
        <ele>1709.4</ele>
        <time>2023-06-24T07:43:02.538Z</time>
      </trkpt>
      <trkpt lat="44.19169" lon="6.66452">
        <ele>1709</ele>
        <time>2023-06-24T07:43:08.442Z</time>
      </trkpt>
      <trkpt lat="44.19174" lon="6.66456">
        <ele>1708.6</ele>
        <time>2023-06-24T07:43:16.451Z</time>
      </trkpt>
      <trkpt lat="44.19177" lon="6.6646">
        <ele>1708.4</ele>
        <time>2023-06-24T07:43:22.218Z</time>
      </trkpt>
      <trkpt lat="44.19179" lon="6.66469">
        <ele>1708.6</ele>
        <time>2023-06-24T07:43:33.989Z</time>
      </trkpt>
      <trkpt lat="44.1918" lon="6.66477">
        <ele>1708.7</ele>
        <time>2023-06-24T07:43:43.743Z</time>
        <extensions>
          <visugpx:TrkExtension xmlns:visugpx="https://www.visugpx.com/editgpx/">
            <visugpx:node>3</visugpx:node>
            </visugpx:TrkExtension>
        </extensions>
      </trkpt>
      <trkpt lat="44.1918" lon="6.66485">
        <ele>1709</ele>
        <time>2023-06-24T07:43:54.500Z</time>
      </trkpt>
      <trkpt lat="44.19177" lon="6.66495">
        <ele>1709.7</ele>
        <time>2023-06-24T07:44:11.051Z</time>
      </trkpt>
      <trkpt lat="44.19174" lon="6.66501">
        <ele>1710.2</ele>
        <time>2023-06-24T07:44:22.426Z</time>
      </trkpt>
      <trkpt lat="44.19171" lon="6.66507">
        <ele>1710.7</ele>
        <time>2023-06-24T07:44:33.800Z</time>
      </trkpt>
      <trkpt lat="44.19168" lon="6.66513">
        <ele>1711.3</ele>
        <time>2023-06-24T07:44:45.961Z</time>
      </trkpt>
      <trkpt lat="44.19165" lon="6.66519">
        <ele>1711.9</ele>
        <time>2023-06-24T07:44:58.122Z</time>
      </trkpt>
      <trkpt lat="44.19162" lon="6.66524">
        <ele>1712.5</ele>
        <time>2023-06-24T07:45:09.516Z</time>
      </trkpt>
      <trkpt lat="44.19159" lon="6.66529">
        <ele>1713.1</ele>
        <time>2023-06-24T07:45:20.910Z</time>
      </trkpt>
      <trkpt lat="44.19155" lon="6.66535">
        <ele>1713.9</ele>
        <time>2023-06-24T07:45:35.642Z</time>
      </trkpt>
      <trkpt lat="44.19151" lon="6.66541">
        <ele>1714.8</ele>
        <time>2023-06-24T07:45:51.326Z</time>
      </trkpt>
      <trkpt lat="44.19146" lon="6.66549">
        <ele>1716.2</ele>
        <time>2023-06-24T07:46:14.153Z</time>
      </trkpt>
      <trkpt lat="44.1914" lon="6.66556">
        <ele>1717.8</ele>
        <time>2023-06-24T07:46:39.574Z</time>
      </trkpt>
      <trkpt lat="44.19134" lon="6.66562">
        <ele>1718.7</ele>
        <time>2023-06-24T07:46:57.157Z</time>
      </trkpt>
      <trkpt lat="44.1913" lon="6.66567">
        <ele>1719.4</ele>
        <time>2023-06-24T07:47:10.343Z</time>
      </trkpt>
      <trkpt lat="44.19125" lon="6.66572">
        <ele>1720.2</ele>
        <time>2023-06-24T07:47:25.431Z</time>
      </trkpt>
      <trkpt lat="44.19121" lon="6.66577">
        <ele>1721</ele>
        <time>2023-06-24T07:47:39.547Z</time>
      </trkpt>
      <trkpt lat="44.19117" lon="6.66581">
        <ele>1721.9</ele>
        <time>2023-06-24T07:47:54.248Z</time>
      </trkpt>
      <trkpt lat="44.19113" lon="6.66585">
        <ele>1722.8</ele>
        <time>2023-06-24T07:48:08.950Z</time>
      </trkpt>
      <trkpt lat="44.19109" lon="6.66588">
        <ele>1723.2</ele>
        <time>2023-06-24T07:48:18.555Z</time>
      </trkpt>
      <trkpt lat="44.19103" lon="6.66593">
        <ele>1723.5</ele>
        <time>2023-06-24T07:48:31.267Z</time>
      </trkpt>
      <trkpt lat="44.19097" lon="6.66598">
        <ele>1723.8</ele>
        <time>2023-06-24T07:48:43.980Z</time>
      </trkpt>
      <trkpt lat="44.1909" lon="6.66603">
        <ele>1724.2</ele>
        <time>2023-06-24T07:48:58.659Z</time>
      </trkpt>
      <trkpt lat="44.19084" lon="6.66608">
        <ele>1724.8</ele>
        <time>2023-06-24T07:49:13.329Z</time>
      </trkpt>
      <trkpt lat="44.19077" lon="6.66615">
        <ele>1725.2</ele>
        <time>2023-06-24T07:49:29.176Z</time>
      </trkpt>
      <trkpt lat="44.1907" lon="6.66621">
        <ele>1725.7</ele>
        <time>2023-06-24T07:49:45.026Z</time>
      </trkpt>
      <trkpt lat="44.19065" lon="6.66627">
        <ele>1726.3</ele>
        <time>2023-06-24T07:49:59.116Z</time>
      </trkpt>
      <trkpt lat="44.19062" lon="6.66632">
        <ele>1726.9</ele>
        <time>2023-06-24T07:50:10.510Z</time>
      </trkpt>
      <trkpt lat="44.19061" lon="6.66638">
        <ele>1727.5</ele>
        <time>2023-06-24T07:50:21.573Z</time>
      </trkpt>
      <trkpt lat="44.19059" lon="6.66647">
        <ele>1728.3</ele>
        <time>2023-06-24T07:50:37.464Z</time>
      </trkpt>
      <trkpt lat="44.1906" lon="6.66657">
        <ele>1728.8</ele>
        <time>2023-06-24T07:50:51.818Z</time>
      </trkpt>
      <trkpt lat="44.19062" lon="6.66666">
        <ele>1729</ele>
        <time>2023-06-24T07:51:03.590Z</time>
      </trkpt>
      <trkpt lat="44.19063" lon="6.66672">
        <ele>1728.9</ele>
        <time>2023-06-24T07:51:10.138Z</time>
      </trkpt>
      <trkpt lat="44.19063" lon="6.66678">
        <ele>1728.8</ele>
        <time>2023-06-24T07:51:16.504Z</time>
      </trkpt>
      <trkpt lat="44.19062" lon="6.66686">
        <ele>1728.9</ele>
        <time>2023-06-24T07:51:26.258Z</time>
      </trkpt>
      <trkpt lat="44.1906" lon="6.66695">
        <ele>1729.2</ele>
        <time>2023-06-24T07:51:38.605Z</time>
      </trkpt>
      <trkpt lat="44.19056" lon="6.66705">
        <ele>1729.6</ele>
        <time>2023-06-24T07:51:53.823Z</time>
      </trkpt>
      <trkpt lat="44.19052" lon="6.66714">
        <ele>1729.8</ele>
        <time>2023-06-24T07:52:06.915Z</time>
      </trkpt>
      <trkpt lat="44.1905" lon="6.6672">
        <ele>1729.9</ele>
        <time>2023-06-24T07:52:14.961Z</time>
      </trkpt>
      <trkpt lat="44.19048" lon="6.66726">
        <ele>1729.9</ele>
        <time>2023-06-24T07:52:22.494Z</time>
      </trkpt>
      <trkpt lat="44.19046" lon="6.66731">
        <ele>1729.8</ele>
        <time>2023-06-24T07:52:28.549Z</time>
      </trkpt>
      <trkpt lat="44.19044" lon="6.66737">
        <ele>1729.8</ele>
        <time>2023-06-24T07:52:36.083Z</time>
      </trkpt>
      <trkpt lat="44.1904" lon="6.66744">
        <ele>1730.1</ele>
        <time>2023-06-24T07:52:47.902Z</time>
      </trkpt>
      <trkpt lat="44.19036" lon="6.66749">
        <ele>1730.6</ele>
        <time>2023-06-24T07:52:59.461Z</time>
      </trkpt>
      <trkpt lat="44.19031" lon="6.66754">
        <ele>1731.3</ele>
        <time>2023-06-24T07:53:13.695Z</time>
      </trkpt>
      <trkpt lat="44.19023" lon="6.66759">
        <ele>1732.2</ele>
        <time>2023-06-24T07:53:33.198Z</time>
      </trkpt>
      <trkpt lat="44.19019" lon="6.66763">
        <ele>1732.6</ele>
        <time>2023-06-24T07:53:43.368Z</time>
      </trkpt>
      <trkpt lat="44.19016" lon="6.66767">
        <ele>1732.9</ele>
        <time>2023-06-24T07:53:51.687Z</time>
      </trkpt>
      <trkpt lat="44.19013" lon="6.66774">
        <ele>1733.2</ele>
        <time>2023-06-24T07:54:02.617Z</time>
      </trkpt>
      <trkpt lat="44.19011" lon="6.66783">
        <ele>1733.3</ele>
        <time>2023-06-24T07:54:13.850Z</time>
      </trkpt>
      <trkpt lat="44.19008" lon="6.66792">
        <ele>1733.3</ele>
        <time>2023-06-24T07:54:25.151Z</time>
      </trkpt>
      <trkpt lat="44.19003" lon="6.66802">
        <ele>1733.7</ele>
        <time>2023-06-24T07:54:41.197Z</time>
      </trkpt>
      <trkpt lat="44.18998" lon="6.66811">
        <ele>1734.2</ele>
        <time>2023-06-24T07:54:56.967Z</time>
      </trkpt>
      <trkpt lat="44.18995" lon="6.66817">
        <ele>1734.6</ele>
        <time>2023-06-24T07:55:07.621Z</time>
      </trkpt>
      <trkpt lat="44.18991" lon="6.66824">
        <ele>1735</ele>
        <time>2023-06-24T07:55:20.063Z</time>
      </trkpt>
      <trkpt lat="44.18988" lon="6.6683">
        <ele>1735.3</ele>
        <time>2023-06-24T07:55:30.060Z</time>
      </trkpt>
      <trkpt lat="44.18985" lon="6.66836">
        <ele>1735.7</ele>
        <time>2023-06-24T07:55:40.714Z</time>
      </trkpt>
      <trkpt lat="44.18981" lon="6.66842">
        <ele>1736.3</ele>
        <time>2023-06-24T07:55:53.759Z</time>
      </trkpt>
      <trkpt lat="44.18978" lon="6.66849">
        <ele>1736.8</ele>
        <time>2023-06-24T07:56:06.018Z</time>
      </trkpt>
      <trkpt lat="44.18974" lon="6.66855">
        <ele>1737.5</ele>
        <time>2023-06-24T07:56:19.872Z</time>
      </trkpt>
      <trkpt lat="44.18971" lon="6.66861">
        <ele>1738.1</ele>
        <time>2023-06-24T07:56:32.033Z</time>
      </trkpt>
      <trkpt lat="44.18968" lon="6.66869">
        <ele>1738.8</ele>
        <time>2023-06-24T07:56:46.714Z</time>
      </trkpt>
      <trkpt lat="44.18964" lon="6.66876">
        <ele>1739.6</ele>
        <time>2023-06-24T07:57:02.151Z</time>
      </trkpt>
      <trkpt lat="44.18961" lon="6.66884">
        <ele>1740.4</ele>
        <time>2023-06-24T07:57:17.661Z</time>
      </trkpt>
      <trkpt lat="44.18957" lon="6.66891">
        <ele>1741.3</ele>
        <time>2023-06-24T07:57:33.996Z</time>
      </trkpt>
      <trkpt lat="44.18951" lon="6.669">
        <ele>1742.9</ele>
        <time>2023-06-24T07:58:00.186Z</time>
      </trkpt>
      <trkpt lat="44.18947" lon="6.66906">
        <ele>1743.9</ele>
        <time>2023-06-24T07:58:16.906Z</time>
      </trkpt>
      <trkpt lat="44.18942" lon="6.66912">
        <ele>1745</ele>
        <time>2023-06-24T07:58:35.436Z</time>
      </trkpt>
      <trkpt lat="44.1894" lon="6.66915">
        <ele>1745.5</ele>
        <time>2023-06-24T07:58:43.796Z</time>
      </trkpt>
      <trkpt lat="44.18939" lon="6.6692">
        <ele>1746</ele>
        <time>2023-06-24T07:58:53.067Z</time>
      </trkpt>
      <trkpt lat="44.18938" lon="6.66925">
        <ele>1746.6</ele>
        <time>2023-06-24T07:59:03.306Z</time>
      </trkpt>
      <trkpt lat="44.18938" lon="6.66929">
        <ele>1746.9</ele>
        <time>2023-06-24T07:59:09.730Z</time>
      </trkpt>
      <trkpt lat="44.1894" lon="6.66937">
        <ele>1747.2</ele>
        <time>2023-06-24T07:59:21.015Z</time>
      </trkpt>
      <trkpt lat="44.18942" lon="6.66942">
        <ele>1747.3</ele>
        <time>2023-06-24T07:59:28.049Z</time>
      </trkpt>
      <trkpt lat="44.18946" lon="6.66947">
        <ele>1746.9</ele>
        <time>2023-06-24T07:59:35.513Z</time>
      </trkpt>
      <trkpt lat="44.1895" lon="6.66953">
        <ele>1746.6</ele>
        <time>2023-06-24T07:59:43.675Z</time>
      </trkpt>
      <trkpt lat="44.18954" lon="6.66958">
        <ele>1746.3</ele>
        <time>2023-06-24T07:59:51.139Z</time>
      </trkpt>
      <trkpt lat="44.18956" lon="6.66964">
        <ele>1746.3</ele>
        <time>2023-06-24T07:59:58.673Z</time>
      </trkpt>
      <trkpt lat="44.18957" lon="6.66971">
        <ele>1746.7</ele>
        <time>2023-06-24T08:00:09.136Z</time>
      </trkpt>
      <trkpt lat="44.18957" lon="6.66977">
        <ele>1747</ele>
        <time>2023-06-24T08:00:17.686Z</time>
      </trkpt>
      <trkpt lat="44.18956" lon="6.66983">
        <ele>1747.5</ele>
        <time>2023-06-24T08:00:27.884Z</time>
      </trkpt>
      <trkpt lat="44.18954" lon="6.66989">
        <ele>1748.3</ele>
        <time>2023-06-24T08:00:41.305Z</time>
      </trkpt>
      <trkpt lat="44.18952" lon="6.66995">
        <ele>1749.1</ele>
        <time>2023-06-24T08:00:54.727Z</time>
      </trkpt>
      <trkpt lat="44.1895" lon="6.67001">
        <ele>1749.8</ele>
        <time>2023-06-24T08:01:07.131Z</time>
      </trkpt>
      <trkpt lat="44.18948" lon="6.67007">
        <ele>1750</ele>
        <time>2023-06-24T08:01:15.739Z</time>
      </trkpt>
      <trkpt lat="44.18946" lon="6.67013">
        <ele>1750.3</ele>
        <time>2023-06-24T08:01:24.964Z</time>
      </trkpt>
      <trkpt lat="44.18943" lon="6.67018">
        <ele>1750.6</ele>
        <time>2023-06-24T08:01:34.082Z</time>
      </trkpt>
      <trkpt lat="44.18942" lon="6.6702">
        <ele>1750.7</ele>
        <time>2023-06-24T08:01:37.414Z</time>
        <extensions>
          <visugpx:TrkExtension xmlns:visugpx="https://www.visugpx.com/editgpx/">
            <visugpx:node>4</visugpx:node>
            </visugpx:TrkExtension>
        </extensions>
      </trkpt>
      <trkpt lat="44.1894" lon="6.67026">
        <ele>1751</ele>
        <time>2023-06-24T08:01:46.640Z</time>
      </trkpt>
      <trkpt lat="44.18937" lon="6.67031">
        <ele>1751.1</ele>
        <time>2023-06-24T08:01:54.575Z</time>
      </trkpt>
      <trkpt lat="44.18935" lon="6.67037">
        <ele>1751.2</ele>
        <time>2023-06-24T08:02:02.621Z</time>
      </trkpt>
      <trkpt lat="44.18932" lon="6.67042">
        <ele>1751.2</ele>
        <time>2023-06-24T08:02:10.044Z</time>
      </trkpt>
      <trkpt lat="44.18933" lon="6.67049">
        <ele>1750.6</ele>
        <time>2023-06-24T08:02:17.156Z</time>
      </trkpt>
      <trkpt lat="44.18934" lon="6.67055">
        <ele>1749.9</ele>
        <time>2023-06-24T08:02:23.293Z</time>
      </trkpt>
      <trkpt lat="44.18931" lon="6.67064">
        <ele>1749.7</ele>
        <time>2023-06-24T08:02:33.672Z</time>
      </trkpt>
      <trkpt lat="44.18929" lon="6.67072">
        <ele>1749.3</ele>
        <time>2023-06-24T08:02:42.113Z</time>
      </trkpt>
      <trkpt lat="44.18927" lon="6.6708">
        <ele>1748.8</ele>
        <time>2023-06-24T08:02:50.554Z</time>
      </trkpt>
      <trkpt lat="44.18923" lon="6.67086">
        <ele>1748.8</ele>
        <time>2023-06-24T08:02:59.883Z</time>
      </trkpt>
      <trkpt lat="44.18919" lon="6.67092">
        <ele>1748.8</ele>
        <time>2023-06-24T08:03:09.211Z</time>
      </trkpt>
      <trkpt lat="44.18915" lon="6.67097">
        <ele>1748.9</ele>
        <time>2023-06-24T08:03:18.250Z</time>
      </trkpt>
      <trkpt lat="44.18911" lon="6.67102">
        <ele>1749.3</ele>
        <time>2023-06-24T08:03:29.096Z</time>
      </trkpt>
      <trkpt lat="44.18908" lon="6.67107">
        <ele>1749.4</ele>
        <time>2023-06-24T08:03:37.031Z</time>
      </trkpt>
      <trkpt lat="44.18905" lon="6.67112">
        <ele>1749.4</ele>
        <time>2023-06-24T08:03:44.455Z</time>
      </trkpt>
      <trkpt lat="44.18901" lon="6.67116">
        <ele>1749.8</ele>
        <time>2023-06-24T08:03:54.625Z</time>
      </trkpt>
      <trkpt lat="44.18897" lon="6.67119">
        <ele>1750.2</ele>
        <time>2023-06-24T08:04:04.231Z</time>
      </trkpt>
      <trkpt lat="44.18891" lon="6.67127">
        <ele>1750.5</ele>
        <time>2023-06-24T08:04:19.001Z</time>
      </trkpt>
      <trkpt lat="44.18884" lon="6.67134">
        <ele>1750.9</ele>
        <time>2023-06-24T08:04:34.847Z</time>
      </trkpt>
      <trkpt lat="44.18879" lon="6.6714">
        <ele>1751.4</ele>
        <time>2023-06-24T08:04:48.226Z</time>
      </trkpt>
      <trkpt lat="44.18874" lon="6.67145">
        <ele>1751.9</ele>
        <time>2023-06-24T08:05:00.939Z</time>
      </trkpt>
      <trkpt lat="44.18866" lon="6.6715">
        <ele>1752.9</ele>
        <time>2023-06-24T08:05:21.242Z</time>
      </trkpt>
      <trkpt lat="44.18861" lon="6.67153">
        <ele>1753.7</ele>
        <time>2023-06-24T08:05:35.443Z</time>
      </trkpt>
      <trkpt lat="44.18855" lon="6.67155">
        <ele>1754.6</ele>
        <time>2023-06-24T08:05:51.474Z</time>
      </trkpt>
      <trkpt lat="44.18853" lon="6.67154">
        <ele>1755.3</ele>
        <time>2023-06-24T08:06:03.002Z</time>
      </trkpt>
      <trkpt lat="44.1885" lon="6.67163">
        <ele>1754.5</ele>
        <time>2023-06-24T08:06:12.890Z</time>
      </trkpt>
      <trkpt lat="44.18847" lon="6.67172">
        <ele>1754.1</ele>
        <time>2023-06-24T08:06:22.778Z</time>
      </trkpt>
      <trkpt lat="44.18843" lon="6.6718">
        <ele>1753.8</ele>
        <time>2023-06-24T08:06:32.543Z</time>
      </trkpt>
      <trkpt lat="44.18839" lon="6.67185">
        <ele>1754.2</ele>
        <time>2023-06-24T08:06:43.389Z</time>
      </trkpt>
      <trkpt lat="44.18834" lon="6.67189">
        <ele>1754.6</ele>
        <time>2023-06-24T08:06:54.831Z</time>
      </trkpt>
      <trkpt lat="44.18831" lon="6.67195">
        <ele>1754.5</ele>
        <time>2023-06-24T08:07:02.690Z</time>
      </trkpt>
      <trkpt lat="44.18828" lon="6.67201">
        <ele>1754.8</ele>
        <time>2023-06-24T08:07:12.687Z</time>
      </trkpt>
      <trkpt lat="44.18821" lon="6.67207">
        <ele>1756</ele>
        <time>2023-06-24T08:07:34.050Z</time>
      </trkpt>
      <trkpt lat="44.18814" lon="6.67212">
        <ele>1757.2</ele>
        <time>2023-06-24T08:07:55.000Z</time>
      </trkpt>
      <trkpt lat="44.18809" lon="6.67216">
        <ele>1757.9</ele>
        <time>2023-06-24T08:08:08.705Z</time>
      </trkpt>
      <trkpt lat="44.18804" lon="6.6722">
        <ele>1758.6</ele>
        <time>2023-06-24T08:08:22.410Z</time>
      </trkpt>
      <trkpt lat="44.188" lon="6.67224">
        <ele>1759.3</ele>
        <time>2023-06-24T08:08:35.029Z</time>
      </trkpt>
      <trkpt lat="44.18796" lon="6.67228">
        <ele>1759.9</ele>
        <time>2023-06-24T08:08:46.751Z</time>
      </trkpt>
      <trkpt lat="44.18792" lon="6.67239">
        <ele>1759.9</ele>
        <time>2023-06-24T08:09:00.795Z</time>
      </trkpt>
      <trkpt lat="44.18788" lon="6.67245">
        <ele>1760.4</ele>
        <time>2023-06-24T08:09:13.094Z</time>
      </trkpt>
      <trkpt lat="44.18783" lon="6.6725">
        <ele>1760.9</ele>
        <time>2023-06-24T08:09:25.807Z</time>
      </trkpt>
      <trkpt lat="44.18778" lon="6.67254">
        <ele>1761.6</ele>
        <time>2023-06-24T08:09:39.512Z</time>
      </trkpt>
      <trkpt lat="44.18773" lon="6.67257">
        <ele>1762.4</ele>
        <time>2023-06-24T08:09:53.713Z</time>
      </trkpt>
      <trkpt lat="44.1877" lon="6.67265">
        <ele>1762.2</ele>
        <time>2023-06-24T08:10:03.077Z</time>
      </trkpt>
      <trkpt lat="44.18767" lon="6.67273">
        <ele>1761.9</ele>
        <time>2023-06-24T08:10:12.072Z</time>
      </trkpt>
      <trkpt lat="44.18763" lon="6.6728">
        <ele>1762</ele>
        <time>2023-06-24T08:10:22.769Z</time>
      </trkpt>
      <trkpt lat="44.18759" lon="6.67286">
        <ele>1762</ele>
        <time>2023-06-24T08:10:32.098Z</time>
      </trkpt>
      <trkpt lat="44.18756" lon="6.67293">
        <ele>1761.7</ele>
        <time>2023-06-24T08:10:40.223Z</time>
      </trkpt>
      <trkpt lat="44.18752" lon="6.673">
        <ele>1761.4</ele>
        <time>2023-06-24T08:10:49.141Z</time>
      </trkpt>
      <trkpt lat="44.18748" lon="6.67309">
        <ele>1761.1</ele>
        <time>2023-06-24T08:10:59.848Z</time>
      </trkpt>
      <trkpt lat="44.18744" lon="6.67318">
        <ele>1761.1</ele>
        <time>2023-06-24T08:11:11.905Z</time>
      </trkpt>
      <trkpt lat="44.18742" lon="6.67326">
        <ele>1760.6</ele>
        <time>2023-06-24T08:11:20.346Z</time>
      </trkpt>
      <trkpt lat="44.1874" lon="6.67334">
        <ele>1760.1</ele>
        <time>2023-06-24T08:11:28.787Z</time>
      </trkpt>
      <trkpt lat="44.18736" lon="6.67339">
        <ele>1760.4</ele>
        <time>2023-06-24T08:11:38.979Z</time>
      </trkpt>
      <trkpt lat="44.18732" lon="6.67344">
        <ele>1760.7</ele>
        <time>2023-06-24T08:11:49.172Z</time>
      </trkpt>
      <trkpt lat="44.18729" lon="6.67351">
        <ele>1760.7</ele>
        <time>2023-06-24T08:11:58.457Z</time>
      </trkpt>
      <trkpt lat="44.18726" lon="6.67357">
        <ele>1760.6</ele>
        <time>2023-06-24T08:12:06.317Z</time>
      </trkpt>
      <trkpt lat="44.18722" lon="6.67363">
        <ele>1761</ele>
        <time>2023-06-24T08:12:17.927Z</time>
      </trkpt>
      <trkpt lat="44.18717" lon="6.67369">
        <ele>1761.3</ele>
        <time>2023-06-24T08:12:30.024Z</time>
      </trkpt>
      <trkpt lat="44.18712" lon="6.67375">
        <ele>1761.7</ele>
        <time>2023-06-24T08:12:42.740Z</time>
      </trkpt>
      <trkpt lat="44.18707" lon="6.67381">
        <ele>1762.1</ele>
        <time>2023-06-24T08:12:55.456Z</time>
      </trkpt>
      <trkpt lat="44.18702" lon="6.67384">
        <ele>1762.9</ele>
        <time>2023-06-24T08:13:09.657Z</time>
      </trkpt>
      <trkpt lat="44.18697" lon="6.67387">
        <ele>1763.7</ele>
        <time>2023-06-24T08:13:23.858Z</time>
      </trkpt>
      <trkpt lat="44.18694" lon="6.67392">
        <ele>1763.9</ele>
        <time>2023-06-24T08:13:32.357Z</time>
      </trkpt>
      <trkpt lat="44.18689" lon="6.67393">
        <ele>1764.9</ele>
        <time>2023-06-24T08:13:48.355Z</time>
      </trkpt>
      <trkpt lat="44.18684" lon="6.67393">
        <ele>1766</ele>
        <time>2023-06-24T08:14:05.630Z</time>
      </trkpt>
      <trkpt lat="44.18682" lon="6.674">
        <ele>1766</ele>
        <time>2023-06-24T08:14:14.210Z</time>
      </trkpt>
      <trkpt lat="44.18679" lon="6.67406">
        <ele>1766.1</ele>
        <time>2023-06-24T08:14:23.049Z</time>
      </trkpt>
      <trkpt lat="44.18681" lon="6.67417">
        <ele>1764.9</ele>
        <time>2023-06-24T08:14:34.355Z</time>
      </trkpt>
      <trkpt lat="44.18681" lon="6.67427">
        <ele>1764.7</ele>
        <time>2023-06-24T08:14:44.821Z</time>
      </trkpt>
      <trkpt lat="44.1868" lon="6.67436">
        <ele>1764.4</ele>
        <time>2023-06-24T08:14:53.895Z</time>
      </trkpt>
      <trkpt lat="44.18677" lon="6.67446">
        <ele>1764.9</ele>
        <time>2023-06-24T08:15:09.064Z</time>
      </trkpt>
      <trkpt lat="44.18673" lon="6.67455">
        <ele>1765.6</ele>
        <time>2023-06-24T08:15:25.352Z</time>
      </trkpt>
      <trkpt lat="44.18666" lon="6.67461">
        <ele>1767.2</ele>
        <time>2023-06-24T08:15:51.047Z</time>
      </trkpt>
      <trkpt lat="44.18662" lon="6.67469">
        <ele>1768</ele>
        <time>2023-06-24T08:16:07.263Z</time>
      </trkpt>
      <trkpt lat="44.1866" lon="6.6748">
        <ele>1768.4</ele>
        <time>2023-06-24T08:16:22.367Z</time>
      </trkpt>
      <trkpt lat="44.18654" lon="6.67485">
        <ele>1769.8</ele>
        <time>2023-06-24T08:16:44.706Z</time>
      </trkpt>
      <trkpt lat="44.18647" lon="6.6749">
        <ele>1771.2</ele>
        <time>2023-06-24T08:17:07.764Z</time>
      </trkpt>
      <trkpt lat="44.18645" lon="6.67497">
        <ele>1771.7</ele>
        <time>2023-06-24T08:17:19.369Z</time>
      </trkpt>
      <trkpt lat="44.18643" lon="6.67504">
        <ele>1772.1</ele>
        <time>2023-06-24T08:17:30.263Z</time>
      </trkpt>
      <trkpt lat="44.18635" lon="6.67508">
        <ele>1773.8</ele>
        <time>2023-06-24T08:17:57.397Z</time>
      </trkpt>
      <trkpt lat="44.18632" lon="6.67513">
        <ele>1774.5</ele>
        <time>2023-06-24T08:18:09.719Z</time>
      </trkpt>
      <trkpt lat="44.18629" lon="6.67518">
        <ele>1775.1</ele>
        <time>2023-06-24T08:18:21.114Z</time>
      </trkpt>
      <trkpt lat="44.18628" lon="6.67525">
        <ele>1775.4</ele>
        <time>2023-06-24T08:18:30.914Z</time>
      </trkpt>
      <trkpt lat="44.18627" lon="6.67531">
        <ele>1775.5</ele>
        <time>2023-06-24T08:18:38.442Z</time>
      </trkpt>
      <trkpt lat="44.18626" lon="6.67538">
        <ele>1775.6</ele>
        <time>2023-06-24T08:18:47.080Z</time>
      </trkpt>
      <trkpt lat="44.18625" lon="6.67544">
        <ele>1775.7</ele>
        <time>2023-06-24T08:18:54.608Z</time>
      </trkpt>
      <trkpt lat="44.18621" lon="6.67551">
        <ele>1776.4</ele>
        <time>2023-06-24T08:19:09.212Z</time>
      </trkpt>
      <trkpt lat="44.18616" lon="6.67558">
        <ele>1777</ele>
        <time>2023-06-24T08:19:24.023Z</time>
      </trkpt>
      <trkpt lat="44.18611" lon="6.67561">
        <ele>1777.9</ele>
        <time>2023-06-24T08:19:39.232Z</time>
      </trkpt>
      <trkpt lat="44.18605" lon="6.67564">
        <ele>1779</ele>
        <time>2023-06-24T08:19:57.536Z</time>
      </trkpt>
      <trkpt lat="44.18602" lon="6.6757">
        <ele>1779.4</ele>
        <time>2023-06-24T08:20:08.192Z</time>
      </trkpt>
      <trkpt lat="44.18599" lon="6.67576">
        <ele>1779.9</ele>
        <time>2023-06-24T08:20:19.566Z</time>
      </trkpt>
      <trkpt lat="44.18597" lon="6.67575">
        <ele>1780.3</ele>
        <time>2023-06-24T08:20:26.046Z</time>
      </trkpt>
      <trkpt lat="44.18592" lon="6.67577">
        <ele>1781.4</ele>
        <time>2023-06-24T08:20:43.419Z</time>
      </trkpt>
      <trkpt lat="44.18587" lon="6.67579">
        <ele>1782.4</ele>
        <time>2023-06-24T08:20:59.529Z</time>
      </trkpt>
      <trkpt lat="44.18586" lon="6.67585">
        <ele>1782.5</ele>
        <time>2023-06-24T08:21:07.057Z</time>
      </trkpt>
      <trkpt lat="44.18584" lon="6.67591">
        <ele>1782.6</ele>
        <time>2023-06-24T08:21:15.104Z</time>
      </trkpt>
      <trkpt lat="44.18579" lon="6.67596">
        <ele>1783.4</ele>
        <time>2023-06-24T08:21:30.191Z</time>
      </trkpt>
      <trkpt lat="44.18574" lon="6.67601">
        <ele>1784.2</ele>
        <time>2023-06-24T08:21:45.279Z</time>
      </trkpt>
      <trkpt lat="44.18571" lon="6.67605">
        <ele>1784.6</ele>
        <time>2023-06-24T08:21:54.313Z</time>
      </trkpt>
      <trkpt lat="44.18567" lon="6.67609">
        <ele>1785.1</ele>
        <time>2023-06-24T08:22:05.222Z</time>
      </trkpt>
      <trkpt lat="44.18563" lon="6.67614">
        <ele>1785.6</ele>
        <time>2023-06-24T08:22:16.781Z</time>
      </trkpt>
      <trkpt lat="44.18558" lon="6.67618">
        <ele>1786</ele>
        <time>2023-06-24T08:22:28.223Z</time>
      </trkpt>
      <trkpt lat="44.18552" lon="6.67624">
        <ele>1786.8</ele>
        <time>2023-06-24T08:22:44.980Z</time>
      </trkpt>
      <trkpt lat="44.18545" lon="6.67629">
        <ele>1787.6</ele>
        <time>2023-06-24T08:23:02.419Z</time>
      </trkpt>
      <trkpt lat="44.18539" lon="6.67632">
        <ele>1788.5</ele>
        <time>2023-06-24T08:23:18.699Z</time>
      </trkpt>
      <trkpt lat="44.18533" lon="6.67635">
        <ele>1789.3</ele>
        <time>2023-06-24T08:23:34.078Z</time>
      </trkpt>
      <trkpt lat="44.18536" lon="6.6763">
        <ele>1789.2</ele>
        <time>2023-06-24T08:23:41.034Z</time>
      </trkpt>
      <trkpt lat="44.1854" lon="6.67625">
        <ele>1788.8</ele>
        <time>2023-06-24T08:23:48.498Z</time>
      </trkpt>
      <trkpt lat="44.18542" lon="6.67618">
        <ele>1788.9</ele>
        <time>2023-06-24T08:23:57.587Z</time>
      </trkpt>
      <trkpt lat="44.18536" lon="6.67609">
        <ele>1790.7</ele>
        <time>2023-06-24T08:24:26.193Z</time>
      </trkpt>
      <trkpt lat="44.18535" lon="6.67617">
        <ele>1790.4</ele>
        <time>2023-06-24T08:24:34.284Z</time>
      </trkpt>
      <trkpt lat="44.18533" lon="6.67624">
        <ele>1790.1</ele>
        <time>2023-06-24T08:24:41.792Z</time>
      </trkpt>
      <trkpt lat="44.18531" lon="6.67632">
        <ele>1790</ele>
        <time>2023-06-24T08:24:50.967Z</time>
      </trkpt>
      <trkpt lat="44.18529" lon="6.67639">
        <ele>1789.8</ele>
        <time>2023-06-24T08:24:58.643Z</time>
      </trkpt>
      <trkpt lat="44.18526" lon="6.67645">
        <ele>1789.8</ele>
        <time>2023-06-24T08:25:06.972Z</time>
      </trkpt>
      <trkpt lat="44.18522" lon="6.67651">
        <ele>1789.8</ele>
        <time>2023-06-24T08:25:16.301Z</time>
      </trkpt>
      <trkpt lat="44.18514" lon="6.67654">
        <ele>1791.1</ele>
        <time>2023-06-24T08:25:38.728Z</time>
      </trkpt>
      <trkpt lat="44.18509" lon="6.67656">
        <ele>1792</ele>
        <time>2023-06-24T08:25:53.691Z</time>
      </trkpt>
      <trkpt lat="44.18503" lon="6.67657">
        <ele>1792.8</ele>
        <time>2023-06-24T08:26:08.637Z</time>
      </trkpt>
      <trkpt lat="44.18498" lon="6.67658">
        <ele>1793.8</ele>
        <time>2023-06-24T08:26:24.635Z</time>
      </trkpt>
      <trkpt lat="44.18492" lon="6.67659">
        <ele>1794.8</ele>
        <time>2023-06-24T08:26:41.528Z</time>
      </trkpt>
      <trkpt lat="44.18485" lon="6.67661">
        <ele>1796.1</ele>
        <time>2023-06-24T08:27:02.795Z</time>
      </trkpt>
      <trkpt lat="44.18478" lon="6.67662">
        <ele>1797.4</ele>
        <time>2023-06-24T08:27:23.966Z</time>
      </trkpt>
      <trkpt lat="44.1847" lon="6.67666">
        <ele>1798.6</ele>
        <time>2023-06-24T08:27:45.673Z</time>
      </trkpt>
      <trkpt lat="44.18465" lon="6.67668">
        <ele>1799.4</ele>
        <time>2023-06-24T08:27:59.592Z</time>
      </trkpt>
      <trkpt lat="44.1846" lon="6.6767">
        <ele>1800.2</ele>
        <time>2023-06-24T08:28:13.511Z</time>
      </trkpt>
      <trkpt lat="44.18456" lon="6.67668">
        <ele>1801.5</ele>
        <time>2023-06-24T08:28:34.411Z</time>
      </trkpt>
      <trkpt lat="44.18451" lon="6.67665">
        <ele>1802.9</ele>
        <time>2023-06-24T08:28:56.279Z</time>
      </trkpt>
      <trkpt lat="44.18448" lon="6.67669">
        <ele>1803</ele>
        <time>2023-06-24T08:29:03.385Z</time>
      </trkpt>
      <trkpt lat="44.18444" lon="6.67673">
        <ele>1803.2</ele>
        <time>2023-06-24T08:29:12.271Z</time>
      </trkpt>
      <trkpt lat="44.1844" lon="6.67678">
        <ele>1803.8</ele>
        <time>2023-06-24T08:29:24.608Z</time>
      </trkpt>
      <trkpt lat="44.18435" lon="6.67682">
        <ele>1804.3</ele>
        <time>2023-06-24T08:29:36.743Z</time>
      </trkpt>
      <trkpt lat="44.18431" lon="6.67685">
        <ele>1805.1</ele>
        <time>2023-06-24T08:29:49.965Z</time>
      </trkpt>
      <trkpt lat="44.18426" lon="6.67687">
        <ele>1805.9</ele>
        <time>2023-06-24T08:30:03.883Z</time>
      </trkpt>
      <trkpt lat="44.18421" lon="6.67689">
        <ele>1807</ele>
        <time>2023-06-24T08:30:21.256Z</time>
      </trkpt>
      <trkpt lat="44.18415" lon="6.67691">
        <ele>1808.2</ele>
        <time>2023-06-24T08:30:40.533Z</time>
      </trkpt>
      <trkpt lat="44.18414" lon="6.67697">
        <ele>1807.7</ele>
        <time>2023-06-24T08:30:46.670Z</time>
      </trkpt>
      <trkpt lat="44.18412" lon="6.67703">
        <ele>1807.5</ele>
        <time>2023-06-24T08:30:53.310Z</time>
      </trkpt>
      <trkpt lat="44.1841" lon="6.67714">
        <ele>1806.9</ele>
        <time>2023-06-24T08:31:04.617Z</time>
      </trkpt>
      <trkpt lat="44.18405" lon="6.67717">
        <ele>1808.1</ele>
        <time>2023-06-24T08:31:23.458Z</time>
      </trkpt>
      <trkpt lat="44.184" lon="6.67719">
        <ele>1809.2</ele>
        <time>2023-06-24T08:31:40.830Z</time>
      </trkpt>
      <trkpt lat="44.18396" lon="6.67723">
        <ele>1809.9</ele>
        <time>2023-06-24T08:31:53.449Z</time>
      </trkpt>
      <trkpt lat="44.18392" lon="6.67727">
        <ele>1810.6</ele>
        <time>2023-06-24T08:32:06.068Z</time>
      </trkpt>
      <trkpt lat="44.18391" lon="6.67735">
        <ele>1810.2</ele>
        <time>2023-06-24T08:32:14.159Z</time>
      </trkpt>
      <trkpt lat="44.18389" lon="6.67742">
        <ele>1809.8</ele>
        <time>2023-06-24T08:32:21.667Z</time>
      </trkpt>
      <trkpt lat="44.18387" lon="6.67748">
        <ele>1810.2</ele>
        <time>2023-06-24T08:32:31.573Z</time>
      </trkpt>
      <trkpt lat="44.18384" lon="6.67754">
        <ele>1810.9</ele>
        <time>2023-06-24T08:32:44.597Z</time>
      </trkpt>
      <trkpt lat="44.18382" lon="6.67761">
        <ele>1811.7</ele>
        <time>2023-06-24T08:32:58.751Z</time>
      </trkpt>
      <trkpt lat="44.18376" lon="6.67757">
        <ele>1814.1</ele>
        <time>2023-06-24T08:33:39.798Z</time>
      </trkpt>
      <trkpt lat="44.18381" lon="6.67767">
        <ele>1812.1</ele>
        <time>2023-06-24T08:33:51.945Z</time>
      </trkpt>
      <trkpt lat="44.18384" lon="6.67775">
        <ele>1811.1</ele>
        <time>2023-06-24T08:34:00.940Z</time>
      </trkpt>
      <trkpt lat="44.18386" lon="6.67782">
        <ele>1810.3</ele>
        <time>2023-06-24T08:34:08.448Z</time>
      </trkpt>
      <trkpt lat="44.18383" lon="6.67788">
        <ele>1811.9</ele>
        <time>2023-06-24T08:34:34.151Z</time>
      </trkpt>
      <trkpt lat="44.18379" lon="6.67794">
        <ele>1813.5</ele>
        <time>2023-06-24T08:34:59.275Z</time>
      </trkpt>
      <trkpt lat="44.18378" lon="6.67806">
        <ele>1814.3</ele>
        <time>2023-06-24T08:35:17.869Z</time>
      </trkpt>
      <trkpt lat="44.18376" lon="6.67813">
        <ele>1815.7</ele>
        <time>2023-06-24T08:35:39.746Z</time>
      </trkpt>
      <trkpt lat="44.18373" lon="6.67819">
        <ele>1817</ele>
        <time>2023-06-24T08:36:00.025Z</time>
      </trkpt>
      <trkpt lat="44.18374" lon="6.67826">
        <ele>1817.1</ele>
        <time>2023-06-24T08:36:08.663Z</time>
      </trkpt>
      <trkpt lat="44.18374" lon="6.67832">
        <ele>1817.3</ele>
        <time>2023-06-24T08:36:16.580Z</time>
      </trkpt>
      <trkpt lat="44.18376" lon="6.67844">
        <ele>1817.1</ele>
        <time>2023-06-24T08:36:29.677Z</time>
      </trkpt>
      <trkpt lat="44.18373" lon="6.67851">
        <ele>1818.2</ele>
        <time>2023-06-24T08:36:47.501Z</time>
      </trkpt>
      <trkpt lat="44.1837" lon="6.67857">
        <ele>1819.3</ele>
        <time>2023-06-24T08:37:04.898Z</time>
      </trkpt>
      <trkpt lat="44.18366" lon="6.67862">
        <ele>1820.6</ele>
        <time>2023-06-24T08:37:25.178Z</time>
      </trkpt>
      <trkpt lat="44.18362" lon="6.67866">
        <ele>1821.6</ele>
        <time>2023-06-24T08:37:41.088Z</time>
      </trkpt>
      <trkpt lat="44.18358" lon="6.6787">
        <ele>1823</ele>
        <time>2023-06-24T08:38:03.220Z</time>
      </trkpt>
      <trkpt lat="44.18353" lon="6.67874">
        <ele>1824.5</ele>
        <time>2023-06-24T08:38:26.667Z</time>
      </trkpt>
      <trkpt lat="44.1835" lon="6.67881">
        <ele>1825.1</ele>
        <time>2023-06-24T08:38:39.674Z</time>
      </trkpt>
      <trkpt lat="44.18347" lon="6.67887">
        <ele>1825.7</ele>
        <time>2023-06-24T08:38:51.836Z</time>
      </trkpt>
      <trkpt lat="44.18345" lon="6.67894">
        <ele>1826.1</ele>
        <time>2023-06-24T08:39:02.730Z</time>
      </trkpt>
      <trkpt lat="44.18342" lon="6.679">
        <ele>1826.4</ele>
        <time>2023-06-24T08:39:12.727Z</time>
      </trkpt>
      <trkpt lat="44.1834" lon="6.67906">
        <ele>1826.8</ele>
        <time>2023-06-24T08:39:22.633Z</time>
      </trkpt>
      <trkpt lat="44.18337" lon="6.67911">
        <ele>1827.2</ele>
        <time>2023-06-24T08:39:32.436Z</time>
      </trkpt>
      <trkpt lat="44.18332" lon="6.67921">
        <ele>1827.8</ele>
        <time>2023-06-24T08:39:49.744Z</time>
      </trkpt>
      <trkpt lat="44.18329" lon="6.67927">
        <ele>1828.2</ele>
        <time>2023-06-24T08:40:00.399Z</time>
      </trkpt>
      <trkpt lat="44.18325" lon="6.67932">
        <ele>1828.5</ele>
        <time>2023-06-24T08:40:10.592Z</time>
      </trkpt>
      <trkpt lat="44.18321" lon="6.67936">
        <ele>1829.2</ele>
        <time>2023-06-24T08:40:23.211Z</time>
      </trkpt>
      <trkpt lat="44.18317" lon="6.6794">
        <ele>1829.9</ele>
        <time>2023-06-24T08:40:35.830Z</time>
      </trkpt>
      <trkpt lat="44.18312" lon="6.67939">
        <ele>1831.7</ele>
        <time>2023-06-24T08:41:06.440Z</time>
      </trkpt>
      <trkpt lat="44.18307" lon="6.67938">
        <ele>1833.5</ele>
        <time>2023-06-24T08:41:37.051Z</time>
      </trkpt>
      <trkpt lat="44.18303" lon="6.67942">
        <ele>1834.3</ele>
        <time>2023-06-24T08:41:50.659Z</time>
      </trkpt>
      <trkpt lat="44.18305" lon="6.67939">
        <ele>1834</ele>
        <time>2023-06-24T08:41:54.740Z</time>
      </trkpt>
      <trkpt lat="44.18308" lon="6.67936">
        <ele>1833.4</ele>
        <time>2023-06-24T08:41:59.870Z</time>
      </trkpt>
      <trkpt lat="44.18305" lon="6.67936">
        <ele>1834.4</ele>
        <time>2023-06-24T08:42:16.410Z</time>
      </trkpt>
      <trkpt lat="44.18303" lon="6.67934">
        <ele>1835.5</ele>
        <time>2023-06-24T08:42:36.928Z</time>
      </trkpt>
      <trkpt lat="44.18301" lon="6.67945">
        <ele>1834.5</ele>
        <time>2023-06-24T08:42:48.235Z</time>
      </trkpt>
      <trkpt lat="44.183" lon="6.67954">
        <ele>1833.4</ele>
        <time>2023-06-24T08:42:57.309Z</time>
      </trkpt>
      <trkpt lat="44.18298" lon="6.67963">
        <ele>1832.2</ele>
        <time>2023-06-24T08:43:06.698Z</time>
      </trkpt>
      <trkpt lat="44.18295" lon="6.67969">
        <ele>1832</ele>
        <time>2023-06-24T08:43:14.125Z</time>
      </trkpt>
      <trkpt lat="44.18292" lon="6.67975">
        <ele>1831.9</ele>
        <time>2023-06-24T08:43:21.985Z</time>
      </trkpt>
      <trkpt lat="44.18291" lon="6.67983">
        <ele>1830.9</ele>
        <time>2023-06-24T08:43:30.076Z</time>
      </trkpt>
      <trkpt lat="44.1829" lon="6.6799">
        <ele>1829.8</ele>
        <time>2023-06-24T08:43:37.188Z</time>
      </trkpt>
      <trkpt lat="44.18285" lon="6.67994">
        <ele>1830.7</ele>
        <time>2023-06-24T08:43:52.747Z</time>
      </trkpt>
      <trkpt lat="44.1828" lon="6.67998">
        <ele>1831.6</ele>
        <time>2023-06-24T08:44:08.307Z</time>
      </trkpt>
      <trkpt lat="44.18275" lon="6.67999">
        <ele>1833.3</ele>
        <time>2023-06-24T08:44:36.530Z</time>
      </trkpt>
      <trkpt lat="44.1827" lon="6.68">
        <ele>1835.1</ele>
        <time>2023-06-24T08:45:07.141Z</time>
      </trkpt>
      <trkpt lat="44.18265" lon="6.68">
        <ele>1837.1</ele>
        <time>2023-06-24T08:45:43.067Z</time>
      </trkpt>
      <trkpt lat="44.1826" lon="6.68">
        <ele>1839</ele>
        <time>2023-06-24T08:46:16.362Z</time>
      </trkpt>
      <trkpt lat="44.18255" lon="6.68003">
        <ele>1840.6</ele>
        <time>2023-06-24T08:46:41.828Z</time>
      </trkpt>
      <trkpt lat="44.1825" lon="6.68005">
        <ele>1842.1</ele>
        <time>2023-06-24T08:47:05.604Z</time>
      </trkpt>
      <trkpt lat="44.18245" lon="6.68008">
        <ele>1843.8</ele>
        <time>2023-06-24T08:47:33.101Z</time>
      </trkpt>
      <trkpt lat="44.1824" lon="6.6801">
        <ele>1845.4</ele>
        <time>2023-06-24T08:47:58.864Z</time>
      </trkpt>
      <trkpt lat="44.18239" lon="6.68014">
        <ele>1845</ele>
        <time>2023-06-24T08:48:03.085Z</time>
      </trkpt>
      <trkpt lat="44.18237" lon="6.68022">
        <ele>1844.3</ele>
        <time>2023-06-24T08:48:11.527Z</time>
      </trkpt>
      <trkpt lat="44.18235" lon="6.6803">
        <ele>1843.5</ele>
        <time>2023-06-24T08:48:19.968Z</time>
      </trkpt>
      <trkpt lat="44.18233" lon="6.68037">
        <ele>1843</ele>
        <time>2023-06-24T08:48:27.477Z</time>
      </trkpt>
      <trkpt lat="44.18231" lon="6.68043">
        <ele>1842.4</ele>
        <time>2023-06-24T08:48:34.069Z</time>
      </trkpt>
      <trkpt lat="44.18226" lon="6.68052">
        <ele>1842.4</ele>
        <time>2023-06-24T08:48:47.034Z</time>
      </trkpt>
      <trkpt lat="44.1822" lon="6.68055">
        <ele>1844.2</ele>
        <time>2023-06-24T08:49:15.453Z</time>
      </trkpt>
      <trkpt lat="44.18214" lon="6.68057">
        <ele>1846.3</ele>
        <time>2023-06-24T08:49:50.476Z</time>
      </trkpt>
      <trkpt lat="44.1821" lon="6.68064">
        <ele>1846.9</ele>
        <time>2023-06-24T08:50:04.306Z</time>
      </trkpt>
      <trkpt lat="44.18205" lon="6.6807">
        <ele>1847.5</ele>
        <time>2023-06-24T08:50:18.397Z</time>
      </trkpt>
      <trkpt lat="44.18203" lon="6.68077">
        <ele>1847</ele>
        <time>2023-06-24T08:50:25.905Z</time>
      </trkpt>
      <trkpt lat="44.18201" lon="6.68083">
        <ele>1846.5</ele>
        <time>2023-06-24T08:50:32.498Z</time>
      </trkpt>
      <trkpt lat="44.18199" lon="6.68089">
        <ele>1846</ele>
        <time>2023-06-24T08:50:39.091Z</time>
      </trkpt>
      <trkpt lat="44.18197" lon="6.68095">
        <ele>1845.5</ele>
        <time>2023-06-24T08:50:45.684Z</time>
      </trkpt>
      <trkpt lat="44.1819" lon="6.68102">
        <ele>1847.1</ele>
        <time>2023-06-24T08:51:11.700Z</time>
      </trkpt>
      <trkpt lat="44.18188" lon="6.68108">
        <ele>1847.1</ele>
        <time>2023-06-24T08:51:19.235Z</time>
      </trkpt>
      <trkpt lat="44.18185" lon="6.68113">
        <ele>1847.1</ele>
        <time>2023-06-24T08:51:26.659Z</time>
      </trkpt>
      <trkpt lat="44.18182" lon="6.68118">
        <ele>1848</ele>
        <time>2023-06-24T08:51:41.153Z</time>
      </trkpt>
      <trkpt lat="44.18178" lon="6.68123">
        <ele>1848.7</ele>
        <time>2023-06-24T08:51:54.340Z</time>
      </trkpt>
      <trkpt lat="44.18175" lon="6.68127">
        <ele>1849.4</ele>
        <time>2023-06-24T08:52:06.083Z</time>
      </trkpt>
      <trkpt lat="44.18171" lon="6.68131">
        <ele>1850</ele>
        <time>2023-06-24T08:52:17.806Z</time>
      </trkpt>
      <trkpt lat="44.18168" lon="6.68138">
        <ele>1849.7</ele>
        <time>2023-06-24T08:52:25.932Z</time>
      </trkpt>
      <trkpt lat="44.18164" lon="6.68143">
        <ele>1850.9</ele>
        <time>2023-06-24T08:52:44.744Z</time>
      </trkpt>
      <trkpt lat="44.18156" lon="6.68144">
        <ele>1854.3</ele>
        <time>2023-06-24T08:53:47.419Z</time>
      </trkpt>
      <trkpt lat="44.18152" lon="6.68154">
        <ele>1854.6</ele>
        <time>2023-06-24T08:54:02.049Z</time>
      </trkpt>
      <trkpt lat="44.18149" lon="6.68162">
        <ele>1854.7</ele>
        <time>2023-06-24T08:54:12.835Z</time>
      </trkpt>
      <trkpt lat="44.18145" lon="6.68169">
        <ele>1855</ele>
        <time>2023-06-24T08:54:24.655Z</time>
      </trkpt>
      <trkpt lat="44.18142" lon="6.68174">
        <ele>1855.8</ele>
        <time>2023-06-24T08:54:38.007Z</time>
      </trkpt>
      <trkpt lat="44.18139" lon="6.68179">
        <ele>1856.5</ele>
        <time>2023-06-24T08:54:50.329Z</time>
      </trkpt>
      <trkpt lat="44.18135" lon="6.68182">
        <ele>1857.6</ele>
        <time>2023-06-24T08:55:07.489Z</time>
      </trkpt>
      <trkpt lat="44.1813" lon="6.68184">
        <ele>1858.5</ele>
        <time>2023-06-24T08:55:22.452Z</time>
      </trkpt>
      <trkpt lat="44.18124" lon="6.68187">
        <ele>1859.8</ele>
        <time>2023-06-24T08:55:43.118Z</time>
      </trkpt>
      <trkpt lat="44.18117" lon="6.68182">
        <ele>1861.9</ele>
        <time>2023-06-24T08:56:16.017Z</time>
      </trkpt>
      <trkpt lat="44.18116" lon="6.68183">
        <ele>1862</ele>
        <time>2023-06-24T08:56:18.560Z</time>
      </trkpt>
      <trkpt lat="44.18116" lon="6.68178">
        <ele>1862.5</ele>
        <time>2023-06-24T08:56:27.660Z</time>
      </trkpt>
      <trkpt lat="44.1811" lon="6.68174">
        <ele>1864.5</ele>
        <time>2023-06-24T08:56:59.668Z</time>
      </trkpt>
      <trkpt lat="44.18105" lon="6.68179">
        <ele>1865.3</ele>
        <time>2023-06-24T08:57:14.756Z</time>
      </trkpt>
      <trkpt lat="44.18106" lon="6.68185">
        <ele>1864.4</ele>
        <time>2023-06-24T08:57:20.894Z</time>
      </trkpt>
      <trkpt lat="44.18108" lon="6.68193">
        <ele>1863</ele>
        <time>2023-06-24T08:57:29.336Z</time>
      </trkpt>
      <trkpt lat="44.18106" lon="6.68181">
        <ele>1864.8</ele>
        <time>2023-06-24T08:57:57.956Z</time>
      </trkpt>
      <trkpt lat="44.18102" lon="6.68172">
        <ele>1866.8</ele>
        <time>2023-06-24T08:58:29.248Z</time>
      </trkpt>
      <trkpt lat="44.18108" lon="6.68169">
        <ele>1865.5</ele>
        <time>2023-06-24T08:58:38.105Z</time>
      </trkpt>
      <trkpt lat="44.18103" lon="6.68176">
        <ele>1866.1</ele>
        <time>2023-06-24T08:58:52.916Z</time>
      </trkpt>
      <trkpt lat="44.18097" lon="6.68185">
        <ele>1866.9</ele>
        <time>2023-06-24T08:59:11.729Z</time>
      </trkpt>
      <trkpt lat="44.18093" lon="6.68183">
        <ele>1868.2</ele>
        <time>2023-06-24T08:59:32.629Z</time>
      </trkpt>
      <trkpt lat="44.18093" lon="6.6818">
        <ele>1868.4</ele>
        <time>2023-06-24T08:59:37.257Z</time>
      </trkpt>
      <trkpt lat="44.18092" lon="6.68181">
        <ele>1868.6</ele>
        <time>2023-06-24T08:59:40.659Z</time>
      </trkpt>
      <trkpt lat="44.18098" lon="6.68177">
        <ele>1867.4</ele>
        <time>2023-06-24T08:59:49.900Z</time>
      </trkpt>
      <trkpt lat="44.18105" lon="6.68181">
        <ele>1865.1</ele>
        <time>2023-06-24T09:00:00.411Z</time>
      </trkpt>
      <trkpt lat="44.18109" lon="6.68187">
        <ele>1863.4</ele>
        <time>2023-06-24T09:00:08.574Z</time>
      </trkpt>
      <trkpt lat="44.18113" lon="6.68192">
        <ele>1861.8</ele>
        <time>2023-06-24T09:00:16.038Z</time>
      </trkpt>
      <trkpt lat="44.18116" lon="6.68199">
        <ele>1861.7</ele>
        <time>2023-06-24T09:00:24.853Z</time>
      </trkpt>
      <trkpt lat="44.18118" lon="6.68206">
        <ele>1862.1</ele>
        <time>2023-06-24T09:00:35.747Z</time>
      </trkpt>
      <trkpt lat="44.18124" lon="6.68214">
        <ele>1861.7</ele>
        <time>2023-06-24T09:00:47.282Z</time>
      </trkpt>
      <trkpt lat="44.18128" lon="6.68218">
        <ele>1861.2</ele>
        <time>2023-06-24T09:00:54.121Z</time>
      </trkpt>
      <trkpt lat="44.18132" lon="6.68222">
        <ele>1860.7</ele>
        <time>2023-06-24T09:01:00.960Z</time>
      </trkpt>
      <trkpt lat="44.18138" lon="6.68231">
        <ele>1859.6</ele>
        <time>2023-06-24T09:01:13.205Z</time>
      </trkpt>
      <trkpt lat="44.18135" lon="6.68238">
        <ele>1860.6</ele>
        <time>2023-06-24T09:01:29.898Z</time>
      </trkpt>
      <trkpt lat="44.18132" lon="6.68244">
        <ele>1861.7</ele>
        <time>2023-06-24T09:01:47.295Z</time>
      </trkpt>
      <trkpt lat="44.18129" lon="6.68252">
        <ele>1863</ele>
        <time>2023-06-24T09:02:08.028Z</time>
      </trkpt>
      <trkpt lat="44.18125" lon="6.68259">
        <ele>1864.2</ele>
        <time>2023-06-24T09:02:27.505Z</time>
      </trkpt>
      <trkpt lat="44.18125" lon="6.68266">
        <ele>1864.4</ele>
        <time>2023-06-24T09:02:36.544Z</time>
      </trkpt>
      <trkpt lat="44.18124" lon="6.68272">
        <ele>1864.7</ele>
        <time>2023-06-24T09:02:45.269Z</time>
      </trkpt>
      <trkpt lat="44.1812" lon="6.68278">
        <ele>1865.9</ele>
        <time>2023-06-24T09:03:04.340Z</time>
      </trkpt>
      <trkpt lat="44.18115" lon="6.68283">
        <ele>1866.8</ele>
        <time>2023-06-24T09:03:20.351Z</time>
      </trkpt>
      <trkpt lat="44.1812" lon="6.68292">
        <ele>1865.2</ele>
        <time>2023-06-24T09:03:31.695Z</time>
      </trkpt>
      <trkpt lat="44.18127" lon="6.6829">
        <ele>1863.6</ele>
        <time>2023-06-24T09:03:41.624Z</time>
      </trkpt>
      <trkpt lat="44.18132" lon="6.68294">
        <ele>1862.2</ele>
        <time>2023-06-24T09:03:49.633Z</time>
      </trkpt>
      <trkpt lat="44.1813" lon="6.68301">
        <ele>1862.5</ele>
        <time>2023-06-24T09:03:59.875Z</time>
      </trkpt>
      <trkpt lat="44.18127" lon="6.68308">
        <ele>1862.9</ele>
        <time>2023-06-24T09:04:11.444Z</time>
      </trkpt>
      <trkpt lat="44.18123" lon="6.68319">
        <ele>1863.2</ele>
        <time>2023-06-24T09:04:27.070Z</time>
      </trkpt>
      <trkpt lat="44.1812" lon="6.68324">
        <ele>1863.6</ele>
        <time>2023-06-24T09:04:36.873Z</time>
      </trkpt>
      <trkpt lat="44.18117" lon="6.68329">
        <ele>1864</ele>
        <time>2023-06-24T09:04:46.675Z</time>
      </trkpt>
      <trkpt lat="44.18112" lon="6.68336">
        <ele>1864.8</ele>
        <time>2023-06-24T09:05:03.017Z</time>
      </trkpt>
      <trkpt lat="44.18118" lon="6.68329">
        <ele>1863.8</ele>
        <time>2023-06-24T09:05:13.887Z</time>
      </trkpt>
      <trkpt lat="44.18116" lon="6.68325">
        <ele>1864.5</ele>
        <time>2023-06-24T09:05:25.058Z</time>
      </trkpt>
      <trkpt lat="44.18112" lon="6.68324">
        <ele>1865.5</ele>
        <time>2023-06-24T09:05:40.657Z</time>
      </trkpt>
      <trkpt lat="44.18104" lon="6.68323">
        <ele>1867.4</ele>
        <time>2023-06-24T09:06:10.317Z</time>
      </trkpt>
      <trkpt lat="44.18108" lon="6.68327">
        <ele>1866.2</ele>
        <time>2023-06-24T09:06:17.157Z</time>
      </trkpt>
      <trkpt lat="44.18105" lon="6.68334">
        <ele>1866.7</ele>
        <time>2023-06-24T09:06:29.416Z</time>
      </trkpt>
      <trkpt lat="44.18101" lon="6.6834">
        <ele>1867.5</ele>
        <time>2023-06-24T09:06:44.148Z</time>
      </trkpt>
      <trkpt lat="44.18098" lon="6.68346">
        <ele>1868.3</ele>
        <time>2023-06-24T09:06:58.118Z</time>
      </trkpt>
      <trkpt lat="44.18095" lon="6.68351">
        <ele>1869.1</ele>
        <time>2023-06-24T09:07:11.469Z</time>
      </trkpt>
      <trkpt lat="44.18092" lon="6.68357">
        <ele>1869.9</ele>
        <time>2023-06-24T09:07:25.438Z</time>
      </trkpt>
      <trkpt lat="44.18088" lon="6.68363">
        <ele>1870.9</ele>
        <time>2023-06-24T09:07:42.159Z</time>
      </trkpt>
      <trkpt lat="44.18084" lon="6.68368">
        <ele>1872.3</ele>
        <time>2023-06-24T09:08:04.045Z</time>
      </trkpt>
      <trkpt lat="44.1808" lon="6.68372">
        <ele>1873.8</ele>
        <time>2023-06-24T09:08:28.135Z</time>
      </trkpt>
      <trkpt lat="44.18074" lon="6.68373">
        <ele>1875.8</ele>
        <time>2023-06-24T09:09:01.127Z</time>
      </trkpt>
      <trkpt lat="44.18067" lon="6.68373">
        <ele>1877.8</ele>
        <time>2023-06-24T09:09:32.772Z</time>
      </trkpt>
      <trkpt lat="44.18062" lon="6.68375">
        <ele>1879.5</ele>
        <time>2023-06-24T09:10:00.685Z</time>
      </trkpt>
      <trkpt lat="44.18057" lon="6.68376">
        <ele>1881.2</ele>
        <time>2023-06-24T09:10:28.909Z</time>
      </trkpt>
      <trkpt lat="44.18053" lon="6.68379">
        <ele>1882.9</ele>
        <time>2023-06-24T09:10:58.484Z</time>
      </trkpt>
      <trkpt lat="44.18048" lon="6.68381">
        <ele>1884.7</ele>
        <time>2023-06-24T09:11:28.707Z</time>
      </trkpt>
      <trkpt lat="44.18046" lon="6.68389">
        <ele>1886.1</ele>
        <time>2023-06-24T09:11:50.595Z</time>
      </trkpt>
      <trkpt lat="44.18044" lon="6.68396">
        <ele>1887.3</ele>
        <time>2023-06-24T09:12:09.420Z</time>
      </trkpt>
      <trkpt lat="44.1804" lon="6.68404">
        <ele>1889.1</ele>
        <time>2023-06-24T09:12:37.536Z</time>
      </trkpt>
      <trkpt lat="44.18036" lon="6.68412">
        <ele>1891</ele>
        <time>2023-06-24T09:13:07.360Z</time>
      </trkpt>
      <trkpt lat="44.18032" lon="6.6842">
        <ele>1892.8</ele>
        <time>2023-06-24T09:13:35.476Z</time>
      </trkpt>
      <trkpt lat="44.18028" lon="6.68427">
        <ele>1894.7</ele>
        <time>2023-06-24T09:14:05.766Z</time>
      </trkpt>
      <trkpt lat="44.18026" lon="6.68434">
        <ele>1895.8</ele>
        <time>2023-06-24T09:14:23.259Z</time>
      </trkpt>
      <trkpt lat="44.18024" lon="6.68441">
        <ele>1896.9</ele>
        <time>2023-06-24T09:14:40.752Z</time>
      </trkpt>
      <trkpt lat="44.18032" lon="6.68445">
        <ele>1894.7</ele>
        <time>2023-06-24T09:14:52.561Z</time>
      </trkpt>
      <trkpt lat="44.18039" lon="6.68452">
        <ele>1892.9</ele>
        <time>2023-06-24T09:15:04.530Z</time>
      </trkpt>
      <trkpt lat="44.18043" lon="6.6846">
        <ele>1892.3</ele>
        <time>2023-06-24T09:15:14.248Z</time>
      </trkpt>
      <trkpt lat="44.18046" lon="6.68467">
        <ele>1891.7</ele>
        <time>2023-06-24T09:15:22.373Z</time>
      </trkpt>
      <trkpt lat="44.18049" lon="6.68474">
        <ele>1891.4</ele>
        <time>2023-06-24T09:15:30.499Z</time>
      </trkpt>
      <trkpt lat="44.18051" lon="6.6848">
        <ele>1891</ele>
        <time>2023-06-24T09:15:37.092Z</time>
      </trkpt>
      <trkpt lat="44.18053" lon="6.68488">
        <ele>1891.1</ele>
        <time>2023-06-24T09:15:47.247Z</time>
      </trkpt>
      <trkpt lat="44.18054" lon="6.68496">
        <ele>1891.2</ele>
        <time>2023-06-24T09:15:57.002Z</time>
      </trkpt>
      <trkpt lat="44.18055" lon="6.68502">
        <ele>1891.2</ele>
        <time>2023-06-24T09:16:04.017Z</time>
      </trkpt>
      <trkpt lat="44.18055" lon="6.68509">
        <ele>1891.6</ele>
        <time>2023-06-24T09:16:14.334Z</time>
      </trkpt>
      <trkpt lat="44.18054" lon="6.68516">
        <ele>1892.1</ele>
        <time>2023-06-24T09:16:25.525Z</time>
      </trkpt>
      <trkpt lat="44.18051" lon="6.68525">
        <ele>1893.4</ele>
        <time>2023-06-24T09:16:46.767Z</time>
      </trkpt>
      <trkpt lat="44.18048" lon="6.68534">
        <ele>1894.4</ele>
        <time>2023-06-24T09:17:04.900Z</time>
      </trkpt>
      <trkpt lat="44.18045" lon="6.68541">
        <ele>1895.7</ele>
        <time>2023-06-24T09:17:25.291Z</time>
      </trkpt>
      <trkpt lat="44.18041" lon="6.68548">
        <ele>1897.1</ele>
        <time>2023-06-24T09:17:47.302Z</time>
      </trkpt>
      <trkpt lat="44.18041" lon="6.68557">
        <ele>1897.5</ele>
        <time>2023-06-24T09:17:59.799Z</time>
      </trkpt>
      <trkpt lat="44.1804" lon="6.68565">
        <ele>1897.9</ele>
        <time>2023-06-24T09:18:11.331Z</time>
      </trkpt>
      <trkpt lat="44.1804" lon="6.68573">
        <ele>1898.3</ele>
        <time>2023-06-24T09:18:22.732Z</time>
      </trkpt>
      <trkpt lat="44.18039" lon="6.68581">
        <ele>1898.7</ele>
        <time>2023-06-24T09:18:34.264Z</time>
      </trkpt>
      <trkpt lat="44.18041" lon="6.68589">
        <ele>1898.2</ele>
        <time>2023-06-24T09:18:42.706Z</time>
      </trkpt>
      <trkpt lat="44.18042" lon="6.68596">
        <ele>1897.8</ele>
        <time>2023-06-24T09:18:49.818Z</time>
      </trkpt>
      <trkpt lat="44.18044" lon="6.68605">
        <ele>1897.4</ele>
        <time>2023-06-24T09:18:59.207Z</time>
      </trkpt>
      <trkpt lat="44.18045" lon="6.68613">
        <ele>1897</ele>
        <time>2023-06-24T09:19:07.299Z</time>
      </trkpt>
      <trkpt lat="44.18045" lon="6.68621">
        <ele>1897.4</ele>
        <time>2023-06-24T09:19:18.699Z</time>
      </trkpt>
      <trkpt lat="44.18045" lon="6.68629">
        <ele>1897.8</ele>
        <time>2023-06-24T09:19:30.100Z</time>
      </trkpt>
      <trkpt lat="44.18045" lon="6.68637">
        <ele>1898.5</ele>
        <time>2023-06-24T09:19:43.768Z</time>
      </trkpt>
      <trkpt lat="44.18044" lon="6.68644">
        <ele>1899.2</ele>
        <time>2023-06-24T09:19:56.631Z</time>
      </trkpt>
      <trkpt lat="44.18043" lon="6.68651">
        <ele>1900.2</ele>
        <time>2023-06-24T09:20:12.679Z</time>
      </trkpt>
      <trkpt lat="44.18042" lon="6.68658">
        <ele>1901.2</ele>
        <time>2023-06-24T09:20:28.726Z</time>
      </trkpt>
      <trkpt lat="44.18041" lon="6.68667">
        <ele>1902.3</ele>
        <time>2023-06-24T09:20:47.189Z</time>
      </trkpt>
      <trkpt lat="44.1804" lon="6.68675">
        <ele>1903.1</ele>
        <time>2023-06-24T09:21:01.856Z</time>
      </trkpt>
      <trkpt lat="44.18042" lon="6.68681">
        <ele>1902.3</ele>
        <time>2023-06-24T09:21:08.449Z</time>
      </trkpt>
      <trkpt lat="44.18044" lon="6.68687">
        <ele>1901.6</ele>
        <time>2023-06-24T09:21:15.042Z</time>
      </trkpt>
      <trkpt lat="44.18047" lon="6.68693">
        <ele>1900.2</ele>
        <time>2023-06-24T09:21:22.331Z</time>
      </trkpt>
      <trkpt lat="44.1805" lon="6.68698">
        <ele>1898.4</ele>
        <time>2023-06-24T09:21:28.827Z</time>
      </trkpt>
      <trkpt lat="44.18049" lon="6.68706">
        <ele>1898.2</ele>
        <time>2023-06-24T09:21:37.165Z</time>
      </trkpt>
      <trkpt lat="44.18048" lon="6.68713">
        <ele>1898</ele>
        <time>2023-06-24T09:21:44.393Z</time>
      </trkpt>
      <trkpt lat="44.18047" lon="6.68721">
        <ele>1897.8</ele>
        <time>2023-06-24T09:21:52.731Z</time>
      </trkpt>
      <trkpt lat="44.18046" lon="6.68728">
        <ele>1897.3</ele>
        <time>2023-06-24T09:21:59.843Z</time>
      </trkpt>
      <trkpt lat="44.18044" lon="6.68735">
        <ele>1897.7</ele>
        <time>2023-06-24T09:22:10.738Z</time>
      </trkpt>
      <trkpt lat="44.18041" lon="6.68741">
        <ele>1898.2</ele>
        <time>2023-06-24T09:22:22.113Z</time>
      </trkpt>
      <trkpt lat="44.18037" lon="6.68748">
        <ele>1899.3</ele>
        <time>2023-06-24T09:22:40.462Z</time>
      </trkpt>
      <trkpt lat="44.18033" lon="6.68755">
        <ele>1900.2</ele>
        <time>2023-06-24T09:22:56.797Z</time>
      </trkpt>
      <trkpt lat="44.1803" lon="6.68762">
        <ele>1900.4</ele>
        <time>2023-06-24T09:23:07.138Z</time>
      </trkpt>
      <trkpt lat="44.18027" lon="6.68768">
        <ele>1900.5</ele>
        <time>2023-06-24T09:23:15.977Z</time>
      </trkpt>
      <trkpt lat="44.18024" lon="6.68773">
        <ele>1901.2</ele>
        <time>2023-06-24T09:23:28.300Z</time>
      </trkpt>
      <trkpt lat="44.1802" lon="6.68777">
        <ele>1901.8</ele>
        <time>2023-06-24T09:23:40.022Z</time>
      </trkpt>
      <trkpt lat="44.18015" lon="6.68781">
        <ele>1903.5</ele>
        <time>2023-06-24T09:24:07.100Z</time>
      </trkpt>
      <trkpt lat="44.1801" lon="6.68784">
        <ele>1905.1</ele>
        <time>2023-06-24T09:24:32.566Z</time>
      </trkpt>
      <trkpt lat="44.18004" lon="6.68788">
        <ele>1906.9</ele>
        <time>2023-06-24T09:25:00.808Z</time>
      </trkpt>
      <trkpt lat="44.17998" lon="6.68791">
        <ele>1908.4</ele>
        <time>2023-06-24T09:25:24.229Z</time>
      </trkpt>
      <trkpt lat="44.17992" lon="6.68795">
        <ele>1909.8</ele>
        <time>2023-06-24T09:25:46.357Z</time>
      </trkpt>
      <trkpt lat="44.17986" lon="6.68798">
        <ele>1911.1</ele>
        <time>2023-06-24T09:26:07.023Z</time>
      </trkpt>
      <trkpt lat="44.17982" lon="6.68803">
        <ele>1911.3</ele>
        <time>2023-06-24T09:26:16.615Z</time>
      </trkpt>
      <trkpt lat="44.17978" lon="6.68807">
        <ele>1911.7</ele>
        <time>2023-06-24T09:26:26.785Z</time>
      </trkpt>
      <trkpt lat="44.17974" lon="6.68811">
        <ele>1912.5</ele>
        <time>2023-06-24T09:26:40.394Z</time>
      </trkpt>
      <trkpt lat="44.1797" lon="6.68814">
        <ele>1913.3</ele>
        <time>2023-06-24T09:26:53.615Z</time>
      </trkpt>
      <trkpt lat="44.17966" lon="6.68819">
        <ele>1913.7</ele>
        <time>2023-06-24T09:27:04.462Z</time>
      </trkpt>
      <trkpt lat="44.17962" lon="6.68823">
        <ele>1913.9</ele>
        <time>2023-06-24T09:27:13.348Z</time>
      </trkpt>
      <trkpt lat="44.17957" lon="6.68825">
        <ele>1914.9</ele>
        <time>2023-06-24T09:27:29.459Z</time>
      </trkpt>
      <trkpt lat="44.17952" lon="6.68826">
        <ele>1915.8</ele>
        <time>2023-06-24T09:27:44.278Z</time>
      </trkpt>
      <trkpt lat="44.17947" lon="6.6883">
        <ele>1916</ele>
        <time>2023-06-24T09:27:54.487Z</time>
      </trkpt>
      <trkpt lat="44.17941" lon="6.68833">
        <ele>1916</ele>
        <time>2023-06-24T09:28:04.609Z</time>
      </trkpt>
      <trkpt lat="44.17936" lon="6.68834">
        <ele>1917.4</ele>
        <time>2023-06-24T09:28:26.645Z</time>
      </trkpt>
      <trkpt lat="44.1793" lon="6.68835">
        <ele>1919.1</ele>
        <time>2023-06-24T09:28:53.469Z</time>
      </trkpt>
      <trkpt lat="44.17926" lon="6.68838">
        <ele>1920.9</ele>
        <time>2023-06-24T09:29:25.659Z</time>
      </trkpt>
      <trkpt lat="44.17922" lon="6.68841">
        <ele>1922.8</ele>
        <time>2023-06-24T09:30:00.504Z</time>
      </trkpt>
      <trkpt lat="44.17918" lon="6.68839">
        <ele>1923.3</ele>
        <time>2023-06-24T09:30:10.472Z</time>
      </trkpt>
      <trkpt lat="44.17913" lon="6.68836">
        <ele>1924.3</ele>
        <time>2023-06-24T09:30:26.784Z</time>
      </trkpt>
      <trkpt lat="44.17912" lon="6.68828">
        <ele>1925.6</ele>
        <time>2023-06-24T09:30:47.166Z</time>
      </trkpt>
      <trkpt lat="44.17907" lon="6.68822">
        <ele>1929</ele>
        <time>2023-06-24T09:31:42.161Z</time>
      </trkpt>
      <trkpt lat="44.17905" lon="6.68821">
        <ele>1929.8</ele>
        <time>2023-06-24T09:31:56.118Z</time>
      </trkpt>
      <trkpt lat="44.17898" lon="6.68822">
        <ele>1931.7</ele>
        <time>2023-06-24T09:32:25.921Z</time>
      </trkpt>
      <trkpt lat="44.179" lon="6.68826">
        <ele>1930.4</ele>
        <time>2023-06-24T09:32:30.779Z</time>
      </trkpt>
      <trkpt lat="44.17902" lon="6.68819">
        <ele>1931</ele>
        <time>2023-06-24T09:32:43.161Z</time>
      </trkpt>
      <trkpt lat="44.17899" lon="6.6883">
        <ele>1930.1</ele>
        <time>2023-06-24T09:32:54.888Z</time>
      </trkpt>
      <trkpt lat="44.17901" lon="6.68827">
        <ele>1929.9</ele>
        <time>2023-06-24T09:32:58.969Z</time>
      </trkpt>
      <trkpt lat="44.17908" lon="6.6883">
        <ele>1926.8</ele>
        <time>2023-06-24T09:33:09.145Z</time>
      </trkpt>
      <trkpt lat="44.17914" lon="6.68833">
        <ele>1923.3</ele>
        <time>2023-06-24T09:33:18.001Z</time>
      </trkpt>
      <trkpt lat="44.17917" lon="6.68838">
        <ele>1923.3</ele>
        <time>2023-06-24T09:33:25.425Z</time>
      </trkpt>
      <trkpt lat="44.1792" lon="6.68843">
        <ele>1923.9</ele>
        <time>2023-06-24T09:33:36.820Z</time>
      </trkpt>
      <trkpt lat="44.17926" lon="6.68852">
        <ele>1924.6</ele>
        <time>2023-06-24T09:33:54.916Z</time>
      </trkpt>
      <trkpt lat="44.17929" lon="6.68859">
        <ele>1925.5</ele>
        <time>2023-06-24T09:34:10.570Z</time>
      </trkpt>
      <trkpt lat="44.17931" lon="6.68865">
        <ele>1926.8</ele>
        <time>2023-06-24T09:34:30.999Z</time>
      </trkpt>
      <trkpt lat="44.17936" lon="6.6887">
        <ele>1927.4</ele>
        <time>2023-06-24T09:34:44.444Z</time>
      </trkpt>
      <trkpt lat="44.1794" lon="6.68875">
        <ele>1928.2</ele>
        <time>2023-06-24T09:34:58.561Z</time>
      </trkpt>
      <trkpt lat="44.17947" lon="6.68876">
        <ele>1926.9</ele>
        <time>2023-06-24T09:35:08.338Z</time>
      </trkpt>
      <trkpt lat="44.17952" lon="6.68881">
        <ele>1927.6</ele>
        <time>2023-06-24T09:35:22.573Z</time>
      </trkpt>
      <trkpt lat="44.17957" lon="6.68885">
        <ele>1928.3</ele>
        <time>2023-06-24T09:35:36.278Z</time>
      </trkpt>
      <trkpt lat="44.17962" lon="6.68886">
        <ele>1927.6</ele>
        <time>2023-06-24T09:35:43.297Z</time>
      </trkpt>
      <trkpt lat="44.17966" lon="6.68887">
        <ele>1926.9</ele>
        <time>2023-06-24T09:35:48.943Z</time>
      </trkpt>
      <trkpt lat="44.17971" lon="6.68888">
        <ele>1926.1</ele>
        <time>2023-06-24T09:35:55.961Z</time>
      </trkpt>
      <trkpt lat="44.17975" lon="6.68889">
        <ele>1925.4</ele>
        <time>2023-06-24T09:36:01.608Z</time>
      </trkpt>
      <trkpt lat="44.1798" lon="6.68893">
        <ele>1925.9</ele>
        <time>2023-06-24T09:36:13.744Z</time>
      </trkpt>
      <trkpt lat="44.17985" lon="6.68897">
        <ele>1926.1</ele>
        <time>2023-06-24T09:36:23.953Z</time>
      </trkpt>
      <trkpt lat="44.17992" lon="6.68902">
        <ele>1925.7</ele>
        <time>2023-06-24T09:36:34.881Z</time>
      </trkpt>
      <trkpt lat="44.17996" lon="6.68907">
        <ele>1925.9</ele>
        <time>2023-06-24T09:36:44.473Z</time>
      </trkpt>
      <trkpt lat="44.17999" lon="6.68911">
        <ele>1925.9</ele>
        <time>2023-06-24T09:36:51.064Z</time>
      </trkpt>
      <trkpt lat="44.18001" lon="6.68918">
        <ele>1927.1</ele>
        <time>2023-06-24T09:37:09.889Z</time>
      </trkpt>
      <trkpt lat="44.18003" lon="6.68924">
        <ele>1928.5</ele>
        <time>2023-06-24T09:37:32.191Z</time>
      </trkpt>
      <trkpt lat="44.18002" lon="6.68933">
        <ele>1930.7</ele>
        <time>2023-06-24T09:38:08.727Z</time>
      </trkpt>
      <trkpt lat="44.18001" lon="6.68941">
        <ele>1933</ele>
        <time>2023-06-24T09:38:49.790Z</time>
      </trkpt>
      <trkpt lat="44.18002" lon="6.68953">
        <ele>1935.7</ele>
        <time>2023-06-24T09:39:33.433Z</time>
      </trkpt>
      <trkpt lat="44.18007" lon="6.68952">
        <ele>1934.4</ele>
        <time>2023-06-24T09:39:40.451Z</time>
      </trkpt>
      <trkpt lat="44.18012" lon="6.68951">
        <ele>1933.2</ele>
        <time>2023-06-24T09:39:47.470Z</time>
      </trkpt>
      <trkpt lat="44.18017" lon="6.68955">
        <ele>1933</ele>
        <time>2023-06-24T09:39:55.715Z</time>
      </trkpt>
      <trkpt lat="44.18021" lon="6.68959">
        <ele>1932.7</ele>
        <time>2023-06-24T09:40:02.554Z</time>
      </trkpt>
      <trkpt lat="44.18023" lon="6.68965">
        <ele>1933.3</ele>
        <time>2023-06-24T09:40:14.041Z</time>
      </trkpt>
      <trkpt lat="44.18024" lon="6.68971">
        <ele>1933.9</ele>
        <time>2023-06-24T09:40:25.104Z</time>
      </trkpt>
      <trkpt lat="44.18028" lon="6.68975">
        <ele>1933.3</ele>
        <time>2023-06-24T09:40:31.943Z</time>
      </trkpt>
      <trkpt lat="44.18032" lon="6.68979">
        <ele>1933</ele>
        <time>2023-06-24T09:40:38.783Z</time>
      </trkpt>
      <trkpt lat="44.18035" lon="6.68985">
        <ele>1933.1</ele>
        <time>2023-06-24T09:40:47.622Z</time>
      </trkpt>
      <trkpt lat="44.18038" lon="6.6899">
        <ele>1933</ele>
        <time>2023-06-24T09:40:54.579Z</time>
      </trkpt>
      <trkpt lat="44.18039" lon="6.69002">
        <ele>1933.9</ele>
        <time>2023-06-24T09:41:13.936Z</time>
      </trkpt>
      <trkpt lat="44.18037" lon="6.69013">
        <ele>1936.5</ele>
        <time>2023-06-24T09:41:56.293Z</time>
      </trkpt>
      <trkpt lat="44.18045" lon="6.69015">
        <ele>1934.9</ele>
        <time>2023-06-24T09:42:07.586Z</time>
      </trkpt>
      <trkpt lat="44.1805" lon="6.69019">
        <ele>1934.3</ele>
        <time>2023-06-24T09:42:15.596Z</time>
      </trkpt>
      <trkpt lat="44.18054" lon="6.69022">
        <ele>1933.6</ele>
        <time>2023-06-24T09:42:21.906Z</time>
      </trkpt>
      <trkpt lat="44.18059" lon="6.69029">
        <ele>1934.3</ele>
        <time>2023-06-24T09:42:37.458Z</time>
      </trkpt>
      <trkpt lat="44.18063" lon="6.69033">
        <ele>1935.2</ele>
        <time>2023-06-24T09:42:52.159Z</time>
      </trkpt>
      <trkpt lat="44.18066" lon="6.69037">
        <ele>1936.1</ele>
        <time>2023-06-24T09:43:06.320Z</time>
      </trkpt>
      <trkpt lat="44.18074" lon="6.69032">
        <ele>1934.9</ele>
        <time>2023-06-24T09:43:18.501Z</time>
      </trkpt>
      <trkpt lat="44.18081" lon="6.69033">
        <ele>1935</ele>
        <time>2023-06-24T09:43:30.179Z</time>
      </trkpt>
      <trkpt lat="44.18086" lon="6.69035">
        <ele>1935.3</ele>
        <time>2023-06-24T09:43:40.109Z</time>
      </trkpt>
      <trkpt lat="44.1809" lon="6.69037">
        <ele>1935.7</ele>
        <time>2023-06-24T09:43:49.286Z</time>
      </trkpt>
      <trkpt lat="44.18095" lon="6.69038">
        <ele>1935.8</ele>
        <time>2023-06-24T09:43:57.817Z</time>
      </trkpt>
      <trkpt lat="44.181" lon="6.69039">
        <ele>1936</ele>
        <time>2023-06-24T09:44:06.906Z</time>
      </trkpt>
      <trkpt lat="44.18105" lon="6.69041">
        <ele>1936.3</ele>
        <time>2023-06-24T09:44:16.835Z</time>
      </trkpt>
      <trkpt lat="44.18109" lon="6.69042">
        <ele>1936.6</ele>
        <time>2023-06-24T09:44:25.022Z</time>
      </trkpt>
      <trkpt lat="44.18115" lon="6.69046">
        <ele>1937.5</ele>
        <time>2023-06-24T09:44:41.648Z</time>
      </trkpt>
      <trkpt lat="44.18117" lon="6.69051">
        <ele>1938.6</ele>
        <time>2023-06-24T09:44:58.887Z</time>
      </trkpt>
      <trkpt lat="44.18122" lon="6.69054">
        <ele>1939.5</ele>
        <time>2023-06-24T09:45:14.096Z</time>
      </trkpt>
      <trkpt lat="44.18121" lon="6.69051">
        <ele>1938.8</ele>
        <time>2023-06-24T09:45:17.393Z</time>
      </trkpt>
      <trkpt lat="44.18123" lon="6.69057">
        <ele>1940.2</ele>
        <time>2023-06-24T09:45:39.695Z</time>
      </trkpt>
      <trkpt lat="44.18131" lon="6.69054">
        <ele>1940.1</ele>
        <time>2023-06-24T09:45:52.373Z</time>
      </trkpt>
      <trkpt lat="44.18137" lon="6.69054">
        <ele>1940.5</ele>
        <time>2023-06-24T09:46:04.174Z</time>
      </trkpt>
      <trkpt lat="44.18143" lon="6.69054">
        <ele>1941.1</ele>
        <time>2023-06-24T09:46:17.399Z</time>
      </trkpt>
      <trkpt lat="44.18148" lon="6.69052">
        <ele>1941.1</ele>
        <time>2023-06-24T09:46:25.659Z</time>
      </trkpt>
      <trkpt lat="44.18152" lon="6.69049">
        <ele>1941.2</ele>
        <time>2023-06-24T09:46:33.384Z</time>
      </trkpt>
      <trkpt lat="44.18157" lon="6.69045">
        <ele>1941.1</ele>
        <time>2023-06-24T09:46:42.067Z</time>
      </trkpt>
      <trkpt lat="44.18161" lon="6.69041">
        <ele>1941.1</ele>
        <time>2023-06-24T09:46:49.883Z</time>
      </trkpt>
      <trkpt lat="44.18168" lon="6.69036">
        <ele>1940.9</ele>
        <time>2023-06-24T09:47:01.446Z</time>
      </trkpt>
      <trkpt lat="44.18176" lon="6.69039">
        <ele>1939.3</ele>
        <time>2023-06-24T09:47:12.957Z</time>
      </trkpt>
      <trkpt lat="44.18176" lon="6.69046">
        <ele>1940.2</ele>
        <time>2023-06-24T09:47:27.746Z</time>
      </trkpt>
      <trkpt lat="44.18176" lon="6.69053">
        <ele>1941</ele>
        <time>2023-06-24T09:47:41.461Z</time>
      </trkpt>
      <trkpt lat="44.18176" lon="6.69061">
        <ele>1942</ele>
        <time>2023-06-24T09:47:58.045Z</time>
      </trkpt>
      <trkpt lat="44.18175" lon="6.69068">
        <ele>1942.9</ele>
        <time>2023-06-24T09:48:12.928Z</time>
      </trkpt>
      <trkpt lat="44.18176" lon="6.69075">
        <ele>1943.4</ele>
        <time>2023-06-24T09:48:24.119Z</time>
      </trkpt>
      <trkpt lat="44.18177" lon="6.69082">
        <ele>1944</ele>
        <time>2023-06-24T09:48:36.107Z</time>
      </trkpt>
      <trkpt lat="44.18176" lon="6.69089">
        <ele>1944.3</ele>
        <time>2023-06-24T09:48:45.908Z</time>
      </trkpt>
      <trkpt lat="44.18175" lon="6.69096">
        <ele>1944.6</ele>
        <time>2023-06-24T09:48:55.709Z</time>
      </trkpt>
      <trkpt lat="44.18172" lon="6.69103">
        <ele>1945.6</ele>
        <time>2023-06-24T09:49:12.403Z</time>
      </trkpt>
      <trkpt lat="44.18169" lon="6.6911">
        <ele>1947</ele>
        <time>2023-06-24T09:49:34.249Z</time>
      </trkpt>
      <trkpt lat="44.18166" lon="6.69115">
        <ele>1947.4</ele>
        <time>2023-06-24T09:49:44.051Z</time>
      </trkpt>
      <trkpt lat="44.18162" lon="6.6912">
        <ele>1947.3</ele>
        <time>2023-06-24T09:49:52.112Z</time>
      </trkpt>
      <trkpt lat="44.18158" lon="6.69126">
        <ele>1947.9</ele>
        <time>2023-06-24T09:50:05.157Z</time>
      </trkpt>
      <trkpt lat="44.18153" lon="6.69131">
        <ele>1948.9</ele>
        <time>2023-06-24T09:50:22.168Z</time>
      </trkpt>
      <trkpt lat="44.18149" lon="6.69135">
        <ele>1950.3</ele>
        <time>2023-06-24T09:50:44.300Z</time>
      </trkpt>
      <trkpt lat="44.18145" lon="6.69139">
        <ele>1951.9</ele>
        <time>2023-06-24T09:51:10.522Z</time>
      </trkpt>
      <trkpt lat="44.18139" lon="6.69146">
        <ele>1953.7</ele>
        <time>2023-06-24T09:51:38.666Z</time>
      </trkpt>
      <trkpt lat="44.18136" lon="6.69152">
        <ele>1953.8</ele>
        <time>2023-06-24T09:51:47.505Z</time>
      </trkpt>
      <trkpt lat="44.18132" lon="6.69157">
        <ele>1954.3</ele>
        <time>2023-06-24T09:51:59.064Z</time>
      </trkpt>
      <trkpt lat="44.1813" lon="6.69164">
        <ele>1954.7</ele>
        <time>2023-06-24T09:52:09.959Z</time>
      </trkpt>
      <trkpt lat="44.18127" lon="6.6917">
        <ele>1955</ele>
        <time>2023-06-24T09:52:19.956Z</time>
      </trkpt>
      <trkpt lat="44.18125" lon="6.69178">
        <ele>1954.7</ele>
        <time>2023-06-24T09:52:28.398Z</time>
      </trkpt>
      <trkpt lat="44.18123" lon="6.69185">
        <ele>1954.5</ele>
        <time>2023-06-24T09:52:36.074Z</time>
      </trkpt>
      <trkpt lat="44.18125" lon="6.69193">
        <ele>1952.2</ele>
        <time>2023-06-24T09:52:44.516Z</time>
      </trkpt>
      <trkpt lat="44.18118" lon="6.692">
        <ele>1953.4</ele>
        <time>2023-06-24T09:53:06.366Z</time>
      </trkpt>
      <trkpt lat="44.18113" lon="6.69204">
        <ele>1954.3</ele>
        <time>2023-06-24T09:53:21.925Z</time>
      </trkpt>
      <trkpt lat="44.18108" lon="6.69208">
        <ele>1954.6</ele>
        <time>2023-06-24T09:53:32.726Z</time>
      </trkpt>
      <trkpt lat="44.181" lon="6.6921">
        <ele>1956.5</ele>
        <time>2023-06-24T09:54:02.404Z</time>
      </trkpt>
      <trkpt lat="44.18095" lon="6.69215">
        <ele>1957</ele>
        <time>2023-06-24T09:54:15.117Z</time>
      </trkpt>
      <trkpt lat="44.18089" lon="6.69219">
        <ele>1957.7</ele>
        <time>2023-06-24T09:54:30.048Z</time>
      </trkpt>
      <trkpt lat="44.18086" lon="6.69225">
        <ele>1957.3</ele>
        <time>2023-06-24T09:54:37.336Z</time>
      </trkpt>
      <trkpt lat="44.18083" lon="6.69231">
        <ele>1957.3</ele>
        <time>2023-06-24T09:54:45.666Z</time>
      </trkpt>
      <trkpt lat="44.18081" lon="6.69237">
        <ele>1957.3</ele>
        <time>2023-06-24T09:54:53.200Z</time>
      </trkpt>
      <trkpt lat="44.18078" lon="6.69242">
        <ele>1957.4</ele>
        <time>2023-06-24T09:55:01.137Z</time>
      </trkpt>
      <trkpt lat="44.18075" lon="6.69247">
        <ele>1957.8</ele>
        <time>2023-06-24T09:55:10.939Z</time>
      </trkpt>
      <trkpt lat="44.18072" lon="6.69252">
        <ele>1958.7</ele>
        <time>2023-06-24T09:55:25.434Z</time>
      </trkpt>
      <trkpt lat="44.1807" lon="6.69259">
        <ele>1959.4</ele>
        <time>2023-06-24T09:55:38.662Z</time>
      </trkpt>
      <trkpt lat="44.18068" lon="6.69265">
        <ele>1960.1</ele>
        <time>2023-06-24T09:55:51.067Z</time>
      </trkpt>
      <trkpt lat="44.18069" lon="6.69273">
        <ele>1959.4</ele>
        <time>2023-06-24T09:55:59.159Z</time>
      </trkpt>
      <trkpt lat="44.1807" lon="6.6928">
        <ele>1958.6</ele>
        <time>2023-06-24T09:56:06.271Z</time>
      </trkpt>
      <trkpt lat="44.18073" lon="6.69286">
        <ele>1957.3</ele>
        <time>2023-06-24T09:56:13.560Z</time>
      </trkpt>
      <trkpt lat="44.18075" lon="6.69292">
        <ele>1955.9</ele>
        <time>2023-06-24T09:56:20.152Z</time>
      </trkpt>
      <trkpt lat="44.18069" lon="6.69292">
        <ele>1958.4</ele>
        <time>2023-06-24T09:57:05.921Z</time>
      </trkpt>
      <trkpt lat="44.1807" lon="6.69296">
        <ele>1957.8</ele>
        <time>2023-06-24T09:57:10.142Z</time>
      </trkpt>
      <trkpt lat="44.18065" lon="6.69302">
        <ele>1959.5</ele>
        <time>2023-06-24T09:57:36.698Z</time>
      </trkpt>
      <trkpt lat="44.18061" lon="6.69305">
        <ele>1961.1</ele>
        <time>2023-06-24T09:58:03.769Z</time>
      </trkpt>
      <trkpt lat="44.18056" lon="6.69308">
        <ele>1961.9</ele>
        <time>2023-06-24T09:58:17.970Z</time>
      </trkpt>
      <trkpt lat="44.18052" lon="6.69312">
        <ele>1962.1</ele>
        <time>2023-06-24T09:58:26.857Z</time>
      </trkpt>
      <trkpt lat="44.18047" lon="6.69315">
        <ele>1962.3</ele>
        <time>2023-06-24T09:58:36.561Z</time>
      </trkpt>
      <trkpt lat="44.18043" lon="6.69319">
        <ele>1962.2</ele>
        <time>2023-06-24T09:58:43.909Z</time>
      </trkpt>
      <trkpt lat="44.18039" lon="6.69323">
        <ele>1962.2</ele>
        <time>2023-06-24T09:58:51.725Z</time>
      </trkpt>
      <trkpt lat="44.18036" lon="6.69334">
        <ele>1959.9</ele>
        <time>2023-06-24T09:59:03.452Z</time>
      </trkpt>
      <trkpt lat="44.18034" lon="6.69341">
        <ele>1959.4</ele>
        <time>2023-06-24T09:59:10.960Z</time>
      </trkpt>
      <trkpt lat="44.18031" lon="6.69347">
        <ele>1958.9</ele>
        <time>2023-06-24T09:59:18.249Z</time>
      </trkpt>
      <trkpt lat="44.18026" lon="6.69353">
        <ele>1959.3</ele>
        <time>2023-06-24T09:59:30.965Z</time>
      </trkpt>
      <trkpt lat="44.1802" lon="6.69359">
        <ele>1959.2</ele>
        <time>2023-06-24T09:59:42.215Z</time>
      </trkpt>
      <trkpt lat="44.18015" lon="6.6936">
        <ele>1960.2</ele>
        <time>2023-06-24T09:59:58.212Z</time>
      </trkpt>
      <trkpt lat="44.18009" lon="6.69361">
        <ele>1961.1</ele>
        <time>2023-06-24T10:00:14.093Z</time>
      </trkpt>
      <trkpt lat="44.18004" lon="6.69366">
        <ele>1961.7</ele>
        <time>2023-06-24T10:00:27.538Z</time>
      </trkpt>
      <trkpt lat="44.17998" lon="6.69371">
        <ele>1962.4</ele>
        <time>2023-06-24T10:00:42.952Z</time>
      </trkpt>
      <trkpt lat="44.17994" lon="6.6937">
        <ele>1963.4</ele>
        <time>2023-06-24T10:00:58.551Z</time>
      </trkpt>
      <trkpt lat="44.17989" lon="6.69369">
        <ele>1964.5</ele>
        <time>2023-06-24T10:01:15.848Z</time>
      </trkpt>
      <trkpt lat="44.17984" lon="6.69373">
        <ele>1965.4</ele>
        <time>2023-06-24T10:01:31.408Z</time>
      </trkpt>
      <trkpt lat="44.17979" lon="6.69376">
        <ele>1966.4</ele>
        <time>2023-06-24T10:01:47.720Z</time>
      </trkpt>
      <trkpt lat="44.17976" lon="6.69382">
        <ele>1967</ele>
        <time>2023-06-24T10:01:59.882Z</time>
      </trkpt>
      <trkpt lat="44.17969" lon="6.69375">
        <ele>1968.8</ele>
        <time>2023-06-24T10:02:28.367Z</time>
      </trkpt>
      <trkpt lat="44.17962" lon="6.69373">
        <ele>1970.4</ele>
        <time>2023-06-24T10:02:53.445Z</time>
      </trkpt>
      <trkpt lat="44.17958" lon="6.69372">
        <ele>1971.3</ele>
        <time>2023-06-24T10:03:07.568Z</time>
      </trkpt>
      <trkpt lat="44.17956" lon="6.69373">
        <ele>1971.8</ele>
        <time>2023-06-24T10:03:15.375Z</time>
      </trkpt>
      <trkpt lat="44.17957" lon="6.69369">
        <ele>1971.1</ele>
        <time>2023-06-24T10:03:19.596Z</time>
      </trkpt>
      <trkpt lat="44.17963" lon="6.69371">
        <ele>1970</ele>
        <time>2023-06-24T10:03:28.168Z</time>
      </trkpt>
      <trkpt lat="44.17968" lon="6.69381">
        <ele>1969.3</ele>
        <time>2023-06-24T10:03:40.315Z</time>
      </trkpt>
      <trkpt lat="44.1797" lon="6.69385">
        <ele>1968.7</ele>
        <time>2023-06-24T10:03:45.174Z</time>
      </trkpt>
      <trkpt lat="44.17974" lon="6.6939">
        <ele>1967.6</ele>
        <time>2023-06-24T10:03:52.638Z</time>
      </trkpt>
      <trkpt lat="44.1798" lon="6.69399">
        <ele>1966.4</ele>
        <time>2023-06-24T10:04:04.882Z</time>
      </trkpt>
      <trkpt lat="44.17983" lon="6.69405">
        <ele>1966</ele>
        <time>2023-06-24T10:04:12.171Z</time>
      </trkpt>
      <trkpt lat="44.17985" lon="6.6941">
        <ele>1965.5</ele>
        <time>2023-06-24T10:04:17.876Z</time>
      </trkpt>
      <trkpt lat="44.17984" lon="6.69417">
        <ele>1966.1</ele>
        <time>2023-06-24T10:04:29.864Z</time>
      </trkpt>
      <trkpt lat="44.17983" lon="6.69424">
        <ele>1965.1</ele>
        <time>2023-06-24T10:04:36.976Z</time>
      </trkpt>
      <trkpt lat="44.1798" lon="6.69429">
        <ele>1965.6</ele>
        <time>2023-06-24T10:04:47.535Z</time>
      </trkpt>
      <trkpt lat="44.17976" lon="6.69433">
        <ele>1966.2</ele>
        <time>2023-06-24T10:04:59.257Z</time>
      </trkpt>
      <trkpt lat="44.17972" lon="6.69437">
        <ele>1967.1</ele>
        <time>2023-06-24T10:05:13.959Z</time>
      </trkpt>
      <trkpt lat="44.17968" lon="6.69441">
        <ele>1968</ele>
        <time>2023-06-24T10:05:28.660Z</time>
      </trkpt>
      <trkpt lat="44.17964" lon="6.69446">
        <ele>1968.8</ele>
        <time>2023-06-24T10:05:42.777Z</time>
      </trkpt>
      <trkpt lat="44.1796" lon="6.6945">
        <ele>1969.6</ele>
        <time>2023-06-24T10:05:56.385Z</time>
      </trkpt>
      <trkpt lat="44.17956" lon="6.69453">
        <ele>1970.6</ele>
        <time>2023-06-24T10:06:12.088Z</time>
      </trkpt>
      <trkpt lat="44.17952" lon="6.69456">
        <ele>1971.4</ele>
        <time>2023-06-24T10:06:25.310Z</time>
      </trkpt>
      <trkpt lat="44.17949" lon="6.69467">
        <ele>1970.6</ele>
        <time>2023-06-24T10:06:37.037Z</time>
      </trkpt>
      <trkpt lat="44.17942" lon="6.69474">
        <ele>1971.9</ele>
        <time>2023-06-24T10:06:59.841Z</time>
      </trkpt>
      <trkpt lat="44.17937" lon="6.69473">
        <ele>1973.4</ele>
        <time>2023-06-24T10:07:23.772Z</time>
      </trkpt>
      <trkpt lat="44.17931" lon="6.69472">
        <ele>1974.9</ele>
        <time>2023-06-24T10:07:47.172Z</time>
      </trkpt>
      <trkpt lat="44.17928" lon="6.69475">
        <ele>1976</ele>
        <time>2023-06-24T10:08:04.736Z</time>
      </trkpt>
      <trkpt lat="44.17925" lon="6.69482">
        <ele>1977.4</ele>
        <time>2023-06-24T10:08:26.581Z</time>
      </trkpt>
      <trkpt lat="44.17922" lon="6.69483">
        <ele>1978.3</ele>
        <time>2023-06-24T10:08:40.883Z</time>
      </trkpt>
      <trkpt lat="44.17919" lon="6.69486">
        <ele>1979.4</ele>
        <time>2023-06-24T10:08:58.446Z</time>
      </trkpt>
      <trkpt lat="44.17916" lon="6.69497">
        <ele>1980.9</ele>
        <time>2023-06-24T10:09:23.164Z</time>
      </trkpt>
      <trkpt lat="44.17918" lon="6.69502">
        <ele>1980.3</ele>
        <time>2023-06-24T10:09:28.869Z</time>
      </trkpt>
      <trkpt lat="44.17915" lon="6.69506">
        <ele>1980.3</ele>
        <time>2023-06-24T10:09:35.460Z</time>
      </trkpt>
      <trkpt lat="44.17913" lon="6.69507">
        <ele>1980.6</ele>
        <time>2023-06-24T10:09:40.887Z</time>
      </trkpt>
      <trkpt lat="44.17908" lon="6.69511">
        <ele>1981.4</ele>
        <time>2023-06-24T10:09:55.481Z</time>
      </trkpt>
      <trkpt lat="44.17903" lon="6.69514">
        <ele>1982.4</ele>
        <time>2023-06-24T10:10:11.793Z</time>
      </trkpt>
      <trkpt lat="44.17895" lon="6.69518">
        <ele>1984.7</ele>
        <time>2023-06-24T10:10:47.879Z</time>
      </trkpt>
      <trkpt lat="44.17891" lon="6.69521">
        <ele>1986</ele>
        <time>2023-06-24T10:11:08.455Z</time>
      </trkpt>
      <trkpt lat="44.17887" lon="6.69524">
        <ele>1987.4</ele>
        <time>2023-06-24T10:11:31.011Z</time>
      </trkpt>
      <trkpt lat="44.17883" lon="6.69529">
        <ele>1988.6</ele>
        <time>2023-06-24T10:11:49.824Z</time>
      </trkpt>
      <trkpt lat="44.17879" lon="6.69533">
        <ele>1988.8</ele>
        <time>2023-06-24T10:11:58.711Z</time>
      </trkpt>
      <trkpt lat="44.17871" lon="6.6953">
        <ele>1991.7</ele>
        <time>2023-06-24T10:12:47.644Z</time>
      </trkpt>
      <trkpt lat="44.17864" lon="6.69525">
        <ele>1994.3</ele>
        <time>2023-06-24T10:13:30.514Z</time>
      </trkpt>
      <trkpt lat="44.17859" lon="6.69523">
        <ele>1995.9</ele>
        <time>2023-06-24T10:13:56.277Z</time>
      </trkpt>
      <trkpt lat="44.17854" lon="6.6952">
        <ele>1997.2</ele>
        <time>2023-06-24T10:14:16.564Z</time>
      </trkpt>
      <trkpt lat="44.1785" lon="6.69521">
        <ele>1998.1</ele>
        <time>2023-06-24T10:14:30.687Z</time>
      </trkpt>
      <trkpt lat="44.17845" lon="6.69522">
        <ele>1999</ele>
        <time>2023-06-24T10:14:45.506Z</time>
      </trkpt>
      <trkpt lat="44.17841" lon="6.69527">
        <ele>1999.4</ele>
        <time>2023-06-24T10:14:56.353Z</time>
      </trkpt>
      <trkpt lat="44.17837" lon="6.69532">
        <ele>1999.6</ele>
        <time>2023-06-24T10:15:05.945Z</time>
      </trkpt>
      <trkpt lat="44.17833" lon="6.69537">
        <ele>1999.8</ele>
        <time>2023-06-24T10:15:15.537Z</time>
      </trkpt>
      <trkpt lat="44.17829" lon="6.69541">
        <ele>2000.1</ele>
        <time>2023-06-24T10:15:25.036Z</time>
      </trkpt>
      <trkpt lat="44.17825" lon="6.69545">
        <ele>2000.6</ele>
        <time>2023-06-24T10:15:35.945Z</time>
      </trkpt>
      <trkpt lat="44.1782" lon="6.69549">
        <ele>2001.2</ele>
        <time>2023-06-24T10:15:48.833Z</time>
      </trkpt>
      <trkpt lat="44.17816" lon="6.69551">
        <ele>2002.1</ele>
        <time>2023-06-24T10:16:03.044Z</time>
      </trkpt>
      <trkpt lat="44.17811" lon="6.69552">
        <ele>2003</ele>
        <time>2023-06-24T10:16:17.863Z</time>
      </trkpt>
      <trkpt lat="44.17806" lon="6.69553">
        <ele>2004.2</ele>
        <time>2023-06-24T10:16:36.592Z</time>
      </trkpt>
      <trkpt lat="44.17801" lon="6.69553">
        <ele>2006.1</ele>
        <time>2023-06-24T10:17:09.888Z</time>
      </trkpt>
      <trkpt lat="44.17797" lon="6.69558">
        <ele>2007.6</ele>
        <time>2023-06-24T10:17:33.526Z</time>
      </trkpt>
      <trkpt lat="44.17792" lon="6.69562">
        <ele>2009.4</ele>
        <time>2023-06-24T10:18:02.638Z</time>
      </trkpt>
      <trkpt lat="44.17788" lon="6.69567">
        <ele>2010.7</ele>
        <time>2023-06-24T10:18:22.918Z</time>
      </trkpt>
      <trkpt lat="44.17784" lon="6.69572">
        <ele>2011.9</ele>
        <time>2023-06-24T10:18:41.731Z</time>
      </trkpt>
      <trkpt lat="44.1778" lon="6.69576">
        <ele>2013.1</ele>
        <time>2023-06-24T10:19:00.450Z</time>
      </trkpt>
      <trkpt lat="44.17775" lon="6.69579">
        <ele>2014.2</ele>
        <time>2023-06-24T10:19:17.969Z</time>
      </trkpt>
      <trkpt lat="44.17772" lon="6.6959">
        <ele>2015.2</ele>
        <time>2023-06-24T10:19:37.826Z</time>
      </trkpt>
      <trkpt lat="44.17766" lon="6.69592">
        <ele>2016.9</ele>
        <time>2023-06-24T10:20:04.562Z</time>
      </trkpt>
      <trkpt lat="44.1776" lon="6.69596">
        <ele>2018.5</ele>
        <time>2023-06-24T10:20:29.526Z</time>
      </trkpt>
      <trkpt lat="44.17762" lon="6.69602">
        <ele>2017.9</ele>
        <time>2023-06-24T10:20:36.119Z</time>
      </trkpt>
      <trkpt lat="44.17764" lon="6.69608">
        <ele>2017.5</ele>
        <time>2023-06-24T10:20:42.712Z</time>
      </trkpt>
      <trkpt lat="44.17769" lon="6.6961">
        <ele>2016.6</ele>
        <time>2023-06-24T10:20:49.939Z</time>
      </trkpt>
      <trkpt lat="44.17773" lon="6.69612">
        <ele>2016</ele>
        <time>2023-06-24T10:20:55.844Z</time>
      </trkpt>
      <trkpt lat="44.17774" lon="6.69622">
        <ele>2017.2</ele>
        <time>2023-06-24T10:21:16.105Z</time>
      </trkpt>
      <trkpt lat="44.17772" lon="6.69633">
        <ele>2019.2</ele>
        <time>2023-06-24T10:21:47.303Z</time>
      </trkpt>
      <trkpt lat="44.17771" lon="6.69641">
        <ele>2020.4</ele>
        <time>2023-06-24T10:22:06.341Z</time>
      </trkpt>
      <trkpt lat="44.1777" lon="6.69649">
        <ele>2021.4</ele>
        <time>2023-06-24T10:22:23.011Z</time>
      </trkpt>
      <trkpt lat="44.17765" lon="6.69652">
        <ele>2022.5</ele>
        <time>2023-06-24T10:22:40.530Z</time>
      </trkpt>
      <trkpt lat="44.17765" lon="6.69642">
        <ele>2021.6</ele>
        <time>2023-06-24T10:22:50.495Z</time>
      </trkpt>
      <trkpt lat="44.17771" lon="6.69633">
        <ele>2019.4</ele>
        <time>2023-06-24T10:23:02.740Z</time>
      </trkpt>
      <trkpt lat="44.17778" lon="6.69628">
        <ele>2017.4</ele>
        <time>2023-06-24T10:23:13.668Z</time>
      </trkpt>
      <trkpt lat="44.17774" lon="6.69632">
        <ele>2018.7</ele>
        <time>2023-06-24T10:23:34.013Z</time>
      </trkpt>
      <trkpt lat="44.17771" lon="6.69642">
        <ele>2020.6</ele>
        <time>2023-06-24T10:24:03.650Z</time>
      </trkpt>
      <trkpt lat="44.17767" lon="6.69651">
        <ele>2022.1</ele>
        <time>2023-06-24T10:24:27.659Z</time>
      </trkpt>
      <trkpt lat="44.17767" lon="6.69659">
        <ele>2022.8</ele>
        <time>2023-06-24T10:24:41.328Z</time>
      </trkpt>
      <trkpt lat="44.17767" lon="6.69666">
        <ele>2023.5</ele>
        <time>2023-06-24T10:24:54.068Z</time>
      </trkpt>
      <trkpt lat="44.17763" lon="6.69676">
        <ele>2024.4</ele>
        <time>2023-06-24T10:25:12.788Z</time>
      </trkpt>
      <trkpt lat="44.17759" lon="6.69681">
        <ele>2025</ele>
        <time>2023-06-24T10:25:25.125Z</time>
      </trkpt>
      <trkpt lat="44.17755" lon="6.69686">
        <ele>2025.5</ele>
        <time>2023-06-24T10:25:36.684Z</time>
      </trkpt>
      <trkpt lat="44.17754" lon="6.69695">
        <ele>2025.8</ele>
        <time>2023-06-24T10:25:48.681Z</time>
      </trkpt>
      <trkpt lat="44.17753" lon="6.69704">
        <ele>2026.5</ele>
        <time>2023-06-24T10:26:03.444Z</time>
      </trkpt>
      <trkpt lat="44.17754" lon="6.69713">
        <ele>2027.1</ele>
        <time>2023-06-24T10:26:17.439Z</time>
      </trkpt>
      <trkpt lat="44.17758" lon="6.69717">
        <ele>2027.3</ele>
        <time>2023-06-24T10:26:26.326Z</time>
      </trkpt>
      <trkpt lat="44.17762" lon="6.69722">
        <ele>2027.5</ele>
        <time>2023-06-24T10:26:35.918Z</time>
      </trkpt>
      <trkpt lat="44.17766" lon="6.69727">
        <ele>2028</ele>
        <time>2023-06-24T10:26:47.477Z</time>
      </trkpt>
      <trkpt lat="44.1777" lon="6.69733">
        <ele>2028.5</ele>
        <time>2023-06-24T10:26:59.777Z</time>
      </trkpt>
      <trkpt lat="44.17773" lon="6.69738">
        <ele>2029</ele>
        <time>2023-06-24T10:27:10.336Z</time>
      </trkpt>
      <trkpt lat="44.17778" lon="6.69745">
        <ele>2029.4</ele>
        <time>2023-06-24T10:27:23.806Z</time>
      </trkpt>
      <trkpt lat="44.17778" lon="6.69751">
        <ele>2030</ele>
        <time>2023-06-24T10:27:34.726Z</time>
      </trkpt>
      <trkpt lat="44.17782" lon="6.69756">
        <ele>2029.9</ele>
        <time>2023-06-24T10:27:42.787Z</time>
      </trkpt>
      <trkpt lat="44.17781" lon="6.69765">
        <ele>2030.7</ele>
        <time>2023-06-24T10:27:58.375Z</time>
      </trkpt>
      <trkpt lat="44.17782" lon="6.69773">
        <ele>2031</ele>
        <time>2023-06-24T10:28:09.269Z</time>
      </trkpt>
      <trkpt lat="44.17783" lon="6.6978">
        <ele>2031.2</ele>
        <time>2023-06-24T10:28:18.464Z</time>
      </trkpt>
      <trkpt lat="44.17785" lon="6.69774">
        <ele>2030.7</ele>
        <time>2023-06-24T10:28:25.057Z</time>
      </trkpt>
      <trkpt lat="44.1779" lon="6.69773">
        <ele>2030</ele>
        <time>2023-06-24T10:28:32.075Z</time>
      </trkpt>
      <trkpt lat="44.17786" lon="6.69776">
        <ele>2030.7</ele>
        <time>2023-06-24T10:28:44.243Z</time>
      </trkpt>
      <trkpt lat="44.17782" lon="6.69779">
        <ele>2031.4</ele>
        <time>2023-06-24T10:28:56.411Z</time>
      </trkpt>
      <trkpt lat="44.17783" lon="6.69787">
        <ele>2031.2</ele>
        <time>2023-06-24T10:29:04.750Z</time>
      </trkpt>
      <trkpt lat="44.17782" lon="6.69779">
        <ele>2031.4</ele>
        <time>2023-06-24T10:29:15.053Z</time>
      </trkpt>
      <trkpt lat="44.17782" lon="6.69787">
        <ele>2031.4</ele>
        <time>2023-06-24T10:29:24.164Z</time>
      </trkpt>
      <trkpt lat="44.17781" lon="6.69794">
        <ele>2031.5</ele>
        <time>2023-06-24T10:29:32.802Z</time>
      </trkpt>
      <trkpt lat="44.17781" lon="6.69801">
        <ele>2031.5</ele>
        <time>2023-06-24T10:29:40.774Z</time>
      </trkpt>
      <trkpt lat="44.1778" lon="6.69807">
        <ele>2031.6</ele>
        <time>2023-06-24T10:29:48.303Z</time>
      </trkpt>
      <trkpt lat="44.17778" lon="6.69816">
        <ele>2032</ele>
        <time>2023-06-24T10:30:01.267Z</time>
      </trkpt>
      <trkpt lat="44.17776" lon="6.69824">
        <ele>2032.3</ele>
        <time>2023-06-24T10:30:12.553Z</time>
      </trkpt>
      <trkpt lat="44.17772" lon="6.69828">
        <ele>2033</ele>
        <time>2023-06-24T10:30:25.172Z</time>
      </trkpt>
      <trkpt lat="44.17768" lon="6.69832">
        <ele>2033.8</ele>
        <time>2023-06-24T10:30:38.781Z</time>
      </trkpt>
      <trkpt lat="44.17768" lon="6.69841">
        <ele>2033.9</ele>
        <time>2023-06-24T10:30:49.536Z</time>
      </trkpt>
      <trkpt lat="44.17768" lon="6.69849">
        <ele>2034.1</ele>
        <time>2023-06-24T10:30:59.703Z</time>
      </trkpt>
      <trkpt lat="44.17767" lon="6.69857">
        <ele>2034.5</ele>
        <time>2023-06-24T10:31:11.236Z</time>
      </trkpt>
      <trkpt lat="44.17765" lon="6.69865">
        <ele>2035</ele>
        <time>2023-06-24T10:31:23.834Z</time>
      </trkpt>
      <trkpt lat="44.17769" lon="6.69872">
        <ele>2034.7</ele>
        <time>2023-06-24T10:31:32.753Z</time>
      </trkpt>
      <trkpt lat="44.17772" lon="6.69879">
        <ele>2034.5</ele>
        <time>2023-06-24T10:31:41.130Z</time>
      </trkpt>
      <trkpt lat="44.17777" lon="6.69889">
        <ele>2034.1</ele>
        <time>2023-06-24T10:31:53.278Z</time>
      </trkpt>
      <trkpt lat="44.17778" lon="6.69896">
        <ele>2034.5</ele>
        <time>2023-06-24T10:32:03.743Z</time>
      </trkpt>
      <trkpt lat="44.17778" lon="6.69902">
        <ele>2034.9</ele>
        <time>2023-06-24T10:32:12.999Z</time>
      </trkpt>
      <trkpt lat="44.17779" lon="6.69909">
        <ele>2035.3</ele>
        <time>2023-06-24T10:32:23.464Z</time>
      </trkpt>
      <trkpt lat="44.17779" lon="6.69915">
        <ele>2035.7</ele>
        <time>2023-06-24T10:32:32.719Z</time>
      </trkpt>
      <trkpt lat="44.17778" lon="6.69923">
        <ele>2036.5</ele>
        <time>2023-06-24T10:32:47.387Z</time>
      </trkpt>
      <trkpt lat="44.17776" lon="6.69931">
        <ele>2037.3</ele>
        <time>2023-06-24T10:33:02.376Z</time>
      </trkpt>
      <trkpt lat="44.17777" lon="6.6994">
        <ele>2037.8</ele>
        <time>2023-06-24T10:33:15.657Z</time>
      </trkpt>
      <trkpt lat="44.17777" lon="6.69948">
        <ele>2038.4</ele>
        <time>2023-06-24T10:33:28.508Z</time>
      </trkpt>
      <trkpt lat="44.17777" lon="6.69956">
        <ele>2039</ele>
        <time>2023-06-24T10:33:41.358Z</time>
      </trkpt>
      <trkpt lat="44.17776" lon="6.69964">
        <ele>2039.7</ele>
        <time>2023-06-24T10:33:55.143Z</time>
      </trkpt>
      <trkpt lat="44.17775" lon="6.69972">
        <ele>2040.3</ele>
        <time>2023-06-24T10:34:08.116Z</time>
      </trkpt>
      <trkpt lat="44.17774" lon="6.69979">
        <ele>2041</ele>
        <time>2023-06-24T10:34:20.980Z</time>
      </trkpt>
      <trkpt lat="44.17774" lon="6.69986">
        <ele>2041.4</ele>
        <time>2023-06-24T10:34:31.297Z</time>
      </trkpt>
      <trkpt lat="44.17774" lon="6.69992">
        <ele>2041.9</ele>
        <time>2023-06-24T10:34:41.338Z</time>
      </trkpt>
      <trkpt lat="44.17774" lon="6.69999">
        <ele>2042.3</ele>
        <time>2023-06-24T10:34:51.656Z</time>
      </trkpt>
      <trkpt lat="44.17774" lon="6.70005">
        <ele>2042.7</ele>
        <time>2023-06-24T10:35:00.911Z</time>
      </trkpt>
      <trkpt lat="44.17773" lon="6.70012">
        <ele>2043.2</ele>
        <time>2023-06-24T10:35:12.103Z</time>
      </trkpt>
      <trkpt lat="44.17772" lon="6.70019">
        <ele>2043.7</ele>
        <time>2023-06-24T10:35:23.294Z</time>
      </trkpt>
      <trkpt lat="44.17769" lon="6.70026">
        <ele>2044.2</ele>
        <time>2023-06-24T10:35:35.555Z</time>
      </trkpt>
      <trkpt lat="44.17766" lon="6.70032">
        <ele>2044.6</ele>
        <time>2023-06-24T10:35:46.210Z</time>
      </trkpt>
      <trkpt lat="44.17763" lon="6.70039">
        <ele>2044.9</ele>
        <time>2023-06-24T10:35:57.142Z</time>
      </trkpt>
      <trkpt lat="44.17759" lon="6.70045">
        <ele>2045.3</ele>
        <time>2023-06-24T10:36:08.753Z</time>
      </trkpt>
      <trkpt lat="44.17754" lon="6.70055">
        <ele>2045.8</ele>
        <time>2023-06-24T10:36:25.415Z</time>
      </trkpt>
      <trkpt lat="44.17749" lon="6.70065">
        <ele>2046.1</ele>
        <time>2023-06-24T10:36:40.880Z</time>
      </trkpt>
      <trkpt lat="44.17745" lon="6.70074">
        <ele>2046.2</ele>
        <time>2023-06-24T10:36:53.441Z</time>
      </trkpt>
      <trkpt lat="44.17741" lon="6.70084">
        <ele>2046.3</ele>
        <time>2023-06-24T10:37:06.983Z</time>
      </trkpt>
      <trkpt lat="44.1774" lon="6.70081">
        <ele>2046.4</ele>
        <time>2023-06-24T10:37:11.288Z</time>
      </trkpt>
      <trkpt lat="44.17743" lon="6.70086">
        <ele>2046.2</ele>
        <time>2023-06-24T10:37:17.818Z</time>
      </trkpt>
      <trkpt lat="44.17749" lon="6.70095">
        <ele>2045.6</ele>
        <time>2023-06-24T10:37:30.063Z</time>
      </trkpt>
      <trkpt lat="44.17755" lon="6.70104">
        <ele>2045.4</ele>
        <time>2023-06-24T10:37:43.125Z</time>
      </trkpt>
      <trkpt lat="44.17762" lon="6.70109">
        <ele>2045.5</ele>
        <time>2023-06-24T10:37:56.117Z</time>
      </trkpt>
      <trkpt lat="44.17767" lon="6.70113">
        <ele>2045.5</ele>
        <time>2023-06-24T10:38:05.271Z</time>
      </trkpt>
      <trkpt lat="44.17772" lon="6.70117">
        <ele>2045.6</ele>
        <time>2023-06-24T10:38:14.932Z</time>
      </trkpt>
      <trkpt lat="44.17778" lon="6.70123">
        <ele>2045.6</ele>
        <time>2023-06-24T10:38:26.657Z</time>
      </trkpt>
      <trkpt lat="44.17782" lon="6.70127">
        <ele>2045.8</ele>
        <time>2023-06-24T10:38:35.544Z</time>
      </trkpt>
      <trkpt lat="44.17786" lon="6.7013">
        <ele>2046</ele>
        <time>2023-06-24T10:38:43.834Z</time>
      </trkpt>
      <trkpt lat="44.1779" lon="6.70135">
        <ele>2046</ele>
        <time>2023-06-24T10:38:52.365Z</time>
      </trkpt>
      <trkpt lat="44.17793" lon="6.7014">
        <ele>2046</ele>
        <time>2023-06-24T10:38:59.789Z</time>
      </trkpt>
      <trkpt lat="44.17798" lon="6.70145">
        <ele>2045.9</ele>
        <time>2023-06-24T10:39:09.087Z</time>
      </trkpt>
      <trkpt lat="44.17803" lon="6.70149">
        <ele>2045.8</ele>
        <time>2023-06-24T10:39:17.770Z</time>
      </trkpt>
      <trkpt lat="44.17808" lon="6.70158">
        <ele>2044.9</ele>
        <time>2023-06-24T10:39:29.114Z</time>
      </trkpt>
      <trkpt lat="44.17811" lon="6.70163">
        <ele>2044.3</ele>
        <time>2023-06-24T10:39:35.611Z</time>
      </trkpt>
      <trkpt lat="44.17814" lon="6.70168">
        <ele>2043.9</ele>
        <time>2023-06-24T10:39:42.107Z</time>
      </trkpt>
      <trkpt lat="44.17819" lon="6.70172">
        <ele>2043.6</ele>
        <time>2023-06-24T10:39:50.116Z</time>
      </trkpt>
      <trkpt lat="44.17823" lon="6.70175">
        <ele>2043.5</ele>
        <time>2023-06-24T10:39:56.862Z</time>
      </trkpt>
      <trkpt lat="44.17825" lon="6.70174">
        <ele>2043.6</ele>
        <time>2023-06-24T10:40:00.779Z</time>
      </trkpt>
      <trkpt lat="44.17827" lon="6.70181">
        <ele>2043.2</ele>
        <time>2023-06-24T10:40:08.288Z</time>
      </trkpt>
      <trkpt lat="44.17829" lon="6.70188">
        <ele>2043</ele>
        <time>2023-06-24T10:40:15.964Z</time>
      </trkpt>
      <trkpt lat="44.1783" lon="6.70197">
        <ele>2042.7</ele>
        <time>2023-06-24T10:40:25.040Z</time>
      </trkpt>
      <trkpt lat="44.17831" lon="6.70205">
        <ele>2042.8</ele>
        <time>2023-06-24T10:40:34.795Z</time>
      </trkpt>
      <trkpt lat="44.17832" lon="6.70213">
        <ele>2042.8</ele>
        <time>2023-06-24T10:40:44.043Z</time>
      </trkpt>
      <trkpt lat="44.17833" lon="6.7022">
        <ele>2043</ele>
        <time>2023-06-24T10:40:53.238Z</time>
      </trkpt>
      <trkpt lat="44.17834" lon="6.70227">
        <ele>2043.2</ele>
        <time>2023-06-24T10:41:02.433Z</time>
      </trkpt>
      <trkpt lat="44.17834" lon="6.70234">
        <ele>2043.5</ele>
        <time>2023-06-24T10:41:12.082Z</time>
      </trkpt>
      <trkpt lat="44.17835" lon="6.70241">
        <ele>2043.8</ele>
        <time>2023-06-24T10:41:21.884Z</time>
      </trkpt>
      <trkpt lat="44.17835" lon="6.70247">
        <ele>2044.1</ele>
        <time>2023-06-24T10:41:30.434Z</time>
      </trkpt>
      <trkpt lat="44.17837" lon="6.70259">
        <ele>2044</ele>
        <time>2023-06-24T10:41:43.987Z</time>
      </trkpt>
      <trkpt lat="44.1784" lon="6.70265">
        <ele>2044.3</ele>
        <time>2023-06-24T10:41:53.985Z</time>
      </trkpt>
      <trkpt lat="44.17843" lon="6.7027">
        <ele>2044.7</ele>
        <time>2023-06-24T10:42:03.788Z</time>
      </trkpt>
      <trkpt lat="44.17846" lon="6.70265">
        <ele>2045.5</ele>
        <time>2023-06-24T10:42:17.139Z</time>
      </trkpt>
      <trkpt lat="44.17849" lon="6.7026">
        <ele>2046.1</ele>
        <time>2023-06-24T10:42:28.535Z</time>
      </trkpt>
      <trkpt lat="44.17851" lon="6.70255">
        <ele>2046.5</ele>
        <time>2023-06-24T10:42:37.504Z</time>
      </trkpt>
      <trkpt lat="44.17852" lon="6.70264">
        <ele>2046.7</ele>
        <time>2023-06-24T10:42:48.921Z</time>
      </trkpt>
      <trkpt lat="44.17854" lon="6.70271">
        <ele>2047</ele>
        <time>2023-06-24T10:42:59.164Z</time>
      </trkpt>
      <trkpt lat="44.17855" lon="6.70278">
        <ele>2047.5</ele>
        <time>2023-06-24T10:43:10.355Z</time>
      </trkpt>
      <trkpt lat="44.17855" lon="6.70285">
        <ele>2047.4</ele>
        <time>2023-06-24T10:43:17.859Z</time>
      </trkpt>
      <trkpt lat="44.17862" lon="6.70289">
        <ele>2049.1</ele>
        <time>2023-06-24T10:43:44.494Z</time>
      </trkpt>
      <trkpt lat="44.17868" lon="6.70293">
        <ele>2049.8</ele>
        <time>2023-06-24T10:43:59.424Z</time>
      </trkpt>
      <trkpt lat="44.17867" lon="6.703">
        <ele>2049.6</ele>
        <time>2023-06-24T10:44:06.652Z</time>
      </trkpt>
      <trkpt lat="44.17866" lon="6.70306">
        <ele>2049.3</ele>
        <time>2023-06-24T10:44:12.791Z</time>
      </trkpt>
      <trkpt lat="44.17865" lon="6.70313">
        <ele>2049.1</ele>
        <time>2023-06-24T10:44:20.018Z</time>
      </trkpt>
      <trkpt lat="44.17864" lon="6.7032">
        <ele>2048.9</ele>
        <time>2023-06-24T10:44:27.246Z</time>
      </trkpt>
      <trkpt lat="44.17865" lon="6.70327">
        <ele>2048.7</ele>
        <time>2023-06-24T10:44:34.474Z</time>
      </trkpt>
      <trkpt lat="44.17865" lon="6.70333">
        <ele>2048.5</ele>
        <time>2023-06-24T10:44:40.453Z</time>
      </trkpt>
      <trkpt lat="44.17873" lon="6.70335">
        <ele>2047</ele>
        <time>2023-06-24T10:44:51.746Z</time>
      </trkpt>
      <trkpt lat="44.17875" lon="6.7034">
        <ele>2045.9</ele>
        <time>2023-06-24T10:44:57.451Z</time>
      </trkpt>
      <trkpt lat="44.17877" lon="6.70342">
        <ele>2045.3</ele>
        <time>2023-06-24T10:45:00.871Z</time>
      </trkpt>
      <trkpt lat="44.17876" lon="6.70341">
        <ele>2045.6</ele>
        <time>2023-06-24T10:45:05.550Z</time>
      </trkpt>
      <trkpt lat="44.17876" lon="6.70341">
        <ele>2045.6</ele>
        <time>2023-06-24T10:45:05.550Z</time>
      </trkpt>
      <trkpt lat="44.17874" lon="6.70342">
        <ele>2045.8</ele>
        <time>2023-06-24T10:45:10.139Z</time>
      </trkpt>
      <trkpt lat="44.17873" lon="6.70333">
        <ele>2047.3</ele>
        <time>2023-06-24T10:45:33.596Z</time>
      </trkpt>
      <trkpt lat="44.17873" lon="6.70332">
        <ele>2047.4</ele>
        <time>2023-06-24T10:45:35.416Z</time>
      </trkpt>
      <trkpt lat="44.1787" lon="6.70331">
        <ele>2047.9</ele>
        <time>2023-06-24T10:45:43.930Z</time>
      </trkpt>
      <trkpt lat="44.17863" lon="6.70326">
        <ele>2048.8</ele>
        <time>2023-06-24T10:46:02.169Z</time>
      </trkpt>
      <trkpt lat="44.17863" lon="6.70314">
        <ele>2049</ele>
        <time>2023-06-24T10:46:16.863Z</time>
      </trkpt>
      <trkpt lat="44.17865" lon="6.70308">
        <ele>2049.2</ele>
        <time>2023-06-24T10:46:25.472Z</time>
      </trkpt>
      <trkpt lat="44.17866" lon="6.70301">
        <ele>2049.4</ele>
        <time>2023-06-24T10:46:34.667Z</time>
      </trkpt>
      <trkpt lat="44.17865" lon="6.70295">
        <ele>2049.4</ele>
        <time>2023-06-24T10:46:41.682Z</time>
      </trkpt>
      <trkpt lat="44.17863" lon="6.70289">
        <ele>2049.3</ele>
        <time>2023-06-24T10:46:48.749Z</time>
      </trkpt>
      <trkpt lat="44.17857" lon="6.70281">
        <ele>2047.9</ele>
        <time>2023-06-24T10:47:00.284Z</time>
      </trkpt>
      <trkpt lat="44.17856" lon="6.70281">
        <ele>2047.7</ele>
        <time>2023-06-24T10:47:01.673Z</time>
      </trkpt>
      <trkpt lat="44.17852" lon="6.70277">
        <ele>2046.6</ele>
        <time>2023-06-24T10:47:08.513Z</time>
      </trkpt>
      <trkpt lat="44.17847" lon="6.70273">
        <ele>2045.5</ele>
        <time>2023-06-24T10:47:16.522Z</time>
      </trkpt>
      <trkpt lat="44.17843" lon="6.70269">
        <ele>2044.7</ele>
        <time>2023-06-24T10:47:23.362Z</time>
      </trkpt>
      <trkpt lat="44.17839" lon="6.70265">
        <ele>2044.1</ele>
        <time>2023-06-24T10:47:30.201Z</time>
      </trkpt>
      <trkpt lat="44.17837" lon="6.70259">
        <ele>2044</ele>
        <time>2023-06-24T10:47:37.269Z</time>
      </trkpt>
      <trkpt lat="44.17835" lon="6.70253">
        <ele>2044</ele>
        <time>2023-06-24T10:47:44.804Z</time>
      </trkpt>
      <trkpt lat="44.17834" lon="6.70247">
        <ele>2044</ele>
        <time>2023-06-24T10:47:51.819Z</time>
      </trkpt>
      <trkpt lat="44.17833" lon="6.7024">
        <ele>2043.6</ele>
        <time>2023-06-24T10:47:58.931Z</time>
      </trkpt>
      <trkpt lat="44.17833" lon="6.70234">
        <ele>2043.3</ele>
        <time>2023-06-24T10:48:04.910Z</time>
      </trkpt>
      <trkpt lat="44.17832" lon="6.70227">
        <ele>2043</ele>
        <time>2023-06-24T10:48:12.023Z</time>
      </trkpt>
      <trkpt lat="44.17831" lon="6.7022">
        <ele>2042.7</ele>
        <time>2023-06-24T10:48:19.135Z</time>
      </trkpt>
      <trkpt lat="44.1783" lon="6.70213">
        <ele>2042.6</ele>
        <time>2023-06-24T10:48:26.795Z</time>
      </trkpt>
      <trkpt lat="44.17829" lon="6.70207">
        <ele>2042.6</ele>
        <time>2023-06-24T10:48:33.810Z</time>
      </trkpt>
      <trkpt lat="44.17828" lon="6.702">
        <ele>2042.5</ele>
        <time>2023-06-24T10:48:41.469Z</time>
      </trkpt>
      <trkpt lat="44.17827" lon="6.70193">
        <ele>2042.6</ele>
        <time>2023-06-24T10:48:50.108Z</time>
      </trkpt>
      <trkpt lat="44.17825" lon="6.70186">
        <ele>2042.9</ele>
        <time>2023-06-24T10:49:00.350Z</time>
      </trkpt>
      <trkpt lat="44.17823" lon="6.70181">
        <ele>2043.1</ele>
        <time>2023-06-24T10:49:07.960Z</time>
      </trkpt>
      <trkpt lat="44.1782" lon="6.70175">
        <ele>2043.4</ele>
        <time>2023-06-24T10:49:17.957Z</time>
      </trkpt>
      <trkpt lat="44.17818" lon="6.7017">
        <ele>2043.8</ele>
        <time>2023-06-24T10:49:26.926Z</time>
      </trkpt>
      <trkpt lat="44.17815" lon="6.70164">
        <ele>2044.2</ele>
        <time>2023-06-24T10:49:37.582Z</time>
      </trkpt>
      <trkpt lat="44.17812" lon="6.70159">
        <ele>2044.7</ele>
        <time>2023-06-24T10:49:48.141Z</time>
      </trkpt>
      <trkpt lat="44.17809" lon="6.70154">
        <ele>2045.3</ele>
        <time>2023-06-24T10:49:59.536Z</time>
      </trkpt>
      <trkpt lat="44.17806" lon="6.7015">
        <ele>2045.8</ele>
        <time>2023-06-24T10:50:09.371Z</time>
      </trkpt>
      <trkpt lat="44.17802" lon="6.70146">
        <ele>2046</ele>
        <time>2023-06-24T10:50:18.257Z</time>
      </trkpt>
      <trkpt lat="44.17799" lon="6.70141">
        <ele>2046.3</ele>
        <time>2023-06-24T10:50:27.377Z</time>
      </trkpt>
      <trkpt lat="44.17795" lon="6.70135">
        <ele>2046.5</ele>
        <time>2023-06-24T10:50:37.760Z</time>
      </trkpt>
      <trkpt lat="44.17792" lon="6.7013">
        <ele>2046.5</ele>
        <time>2023-06-24T10:50:45.184Z</time>
      </trkpt>
      <trkpt lat="44.17788" lon="6.70125">
        <ele>2046.4</ele>
        <time>2023-06-24T10:50:53.245Z</time>
      </trkpt>
      <trkpt lat="44.17783" lon="6.70121">
        <ele>2046.1</ele>
        <time>2023-06-24T10:51:01.254Z</time>
      </trkpt>
      <trkpt lat="44.17778" lon="6.70117">
        <ele>2045.8</ele>
        <time>2023-06-24T10:51:09.264Z</time>
      </trkpt>
      <trkpt lat="44.1777" lon="6.70114">
        <ele>2045.6</ele>
        <time>2023-06-24T10:51:21.490Z</time>
      </trkpt>
      <trkpt lat="44.17764" lon="6.70109">
        <ele>2045.5</ele>
        <time>2023-06-24T10:51:32.116Z</time>
      </trkpt>
      <trkpt lat="44.17758" lon="6.70102">
        <ele>2045.5</ele>
        <time>2023-06-24T10:51:44.539Z</time>
      </trkpt>
      <trkpt lat="44.17755" lon="6.70097">
        <ele>2045.6</ele>
        <time>2023-06-24T10:51:52.475Z</time>
      </trkpt>
      <trkpt lat="44.17751" lon="6.70091">
        <ele>2045.7</ele>
        <time>2023-06-24T10:52:02.312Z</time>
      </trkpt>
      <trkpt lat="44.17748" lon="6.70086">
        <ele>2046</ele>
        <time>2023-06-24T10:52:11.431Z</time>
      </trkpt>
      <trkpt lat="44.17744" lon="6.70081">
        <ele>2046.2</ele>
        <time>2023-06-24T10:52:21.023Z</time>
      </trkpt>
      <trkpt lat="44.17745" lon="6.70074">
        <ele>2046.2</ele>
        <time>2023-06-24T10:52:29.152Z</time>
      </trkpt>
      <trkpt lat="44.17752" lon="6.70069">
        <ele>2046</ele>
        <time>2023-06-24T10:52:40.715Z</time>
      </trkpt>
      <trkpt lat="44.17756" lon="6.70063">
        <ele>2045.9</ele>
        <time>2023-06-24T10:52:49.573Z</time>
      </trkpt>
      <trkpt lat="44.17759" lon="6.70057">
        <ele>2045.7</ele>
        <time>2023-06-24T10:52:57.000Z</time>
      </trkpt>
      <trkpt lat="44.17761" lon="6.70051">
        <ele>2045.4</ele>
        <time>2023-06-24T10:53:03.594Z</time>
      </trkpt>
      <trkpt lat="44.17763" lon="6.70045">
        <ele>2045.2</ele>
        <time>2023-06-24T10:53:10.234Z</time>
      </trkpt>
      <trkpt lat="44.17766" lon="6.70039">
        <ele>2044.8</ele>
        <time>2023-06-24T10:53:17.522Z</time>
      </trkpt>
      <trkpt lat="44.17768" lon="6.70033">
        <ele>2044.5</ele>
        <time>2023-06-24T10:53:24.116Z</time>
      </trkpt>
      <trkpt lat="44.17768" lon="6.70027">
        <ele>2044.3</ele>
        <time>2023-06-24T10:53:30.095Z</time>
      </trkpt>
      <trkpt lat="44.17768" lon="6.7002">
        <ele>2044</ele>
        <time>2023-06-24T10:53:37.070Z</time>
      </trkpt>
      <trkpt lat="44.17771" lon="6.70014">
        <ele>2043.5</ele>
        <time>2023-06-24T10:53:44.359Z</time>
      </trkpt>
      <trkpt lat="44.17773" lon="6.70007">
        <ele>2042.9</ele>
        <time>2023-06-24T10:53:51.867Z</time>
      </trkpt>
      <trkpt lat="44.17775" lon="6.7">
        <ele>2042.4</ele>
        <time>2023-06-24T10:53:59.376Z</time>
      </trkpt>
      <trkpt lat="44.17776" lon="6.69993">
        <ele>2041.7</ele>
        <time>2023-06-24T10:54:06.488Z</time>
      </trkpt>
      <trkpt lat="44.17776" lon="6.69987">
        <ele>2041.3</ele>
        <time>2023-06-24T10:54:12.467Z</time>
      </trkpt>
      <trkpt lat="44.17776" lon="6.6998">
        <ele>2040.8</ele>
        <time>2023-06-24T10:54:19.443Z</time>
      </trkpt>
      <trkpt lat="44.17777" lon="6.69973">
        <ele>2040.2</ele>
        <time>2023-06-24T10:54:26.555Z</time>
      </trkpt>
      <trkpt lat="44.17777" lon="6.69966">
        <ele>2039.7</ele>
        <time>2023-06-24T10:54:33.530Z</time>
      </trkpt>
      <trkpt lat="44.1778" lon="6.6996">
        <ele>2039</ele>
        <time>2023-06-24T10:54:40.819Z</time>
      </trkpt>
      <trkpt lat="44.17782" lon="6.69953">
        <ele>2038.3</ele>
        <time>2023-06-24T10:54:48.328Z</time>
      </trkpt>
      <trkpt lat="44.17781" lon="6.69944">
        <ele>2037.7</ele>
        <time>2023-06-24T10:54:57.403Z</time>
      </trkpt>
      <trkpt lat="44.17779" lon="6.69935">
        <ele>2037.2</ele>
        <time>2023-06-24T10:55:06.792Z</time>
      </trkpt>
      <trkpt lat="44.17779" lon="6.69929">
        <ele>2036.7</ele>
        <time>2023-06-24T10:55:12.771Z</time>
      </trkpt>
      <trkpt lat="44.17779" lon="6.69922">
        <ele>2036.2</ele>
        <time>2023-06-24T10:55:19.747Z</time>
      </trkpt>
      <trkpt lat="44.1778" lon="6.69915">
        <ele>2035.5</ele>
        <time>2023-06-24T10:55:26.859Z</time>
      </trkpt>
      <trkpt lat="44.17781" lon="6.69908">
        <ele>2034.8</ele>
        <time>2023-06-24T10:55:33.971Z</time>
      </trkpt>
      <trkpt lat="44.17781" lon="6.69901">
        <ele>2034.3</ele>
        <time>2023-06-24T10:55:40.947Z</time>
      </trkpt>
      <trkpt lat="44.1778" lon="6.69893">
        <ele>2033.8</ele>
        <time>2023-06-24T10:55:49.039Z</time>
      </trkpt>
      <trkpt lat="44.17776" lon="6.69886">
        <ele>2034.2</ele>
        <time>2023-06-24T10:56:01.482Z</time>
      </trkpt>
      <trkpt lat="44.17771" lon="6.69878">
        <ele>2034.6</ele>
        <time>2023-06-24T10:56:15.767Z</time>
      </trkpt>
      <trkpt lat="44.17769" lon="6.69872">
        <ele>2034.7</ele>
        <time>2023-06-24T10:56:23.814Z</time>
      </trkpt>
      <trkpt lat="44.17767" lon="6.69866">
        <ele>2034.7</ele>
        <time>2023-06-24T10:56:31.349Z</time>
      </trkpt>
      <trkpt lat="44.17769" lon="6.69859">
        <ele>2034.2</ele>
        <time>2023-06-24T10:56:38.857Z</time>
      </trkpt>
      <trkpt lat="44.17771" lon="6.69851">
        <ele>2033.7</ele>
        <time>2023-06-24T10:56:47.300Z</time>
      </trkpt>
      <trkpt lat="44.17774" lon="6.69845">
        <ele>2033</ele>
        <time>2023-06-24T10:56:54.588Z</time>
      </trkpt>
      <trkpt lat="44.17777" lon="6.69838">
        <ele>2032.3</ele>
        <time>2023-06-24T10:57:02.714Z</time>
      </trkpt>
      <trkpt lat="44.1778" lon="6.69833">
        <ele>2031.6</ele>
        <time>2023-06-24T10:57:09.211Z</time>
      </trkpt>
      <trkpt lat="44.17782" lon="6.69827">
        <ele>2031.1</ele>
        <time>2023-06-24T10:57:15.804Z</time>
      </trkpt>
      <trkpt lat="44.17784" lon="6.69819">
        <ele>2030.8</ele>
        <time>2023-06-24T10:57:24.246Z</time>
      </trkpt>
      <trkpt lat="44.17786" lon="6.6981">
        <ele>2030.5</ele>
        <time>2023-06-24T10:57:33.640Z</time>
      </trkpt>
      <trkpt lat="44.17789" lon="6.69805">
        <ele>2030.1</ele>
        <time>2023-06-24T10:57:40.137Z</time>
      </trkpt>
      <trkpt lat="44.17791" lon="6.69799">
        <ele>2029.7</ele>
        <time>2023-06-24T10:57:46.730Z</time>
      </trkpt>
      <trkpt lat="44.17792" lon="6.69793">
        <ele>2029.8</ele>
        <time>2023-06-24T10:57:54.259Z</time>
      </trkpt>
      <trkpt lat="44.17792" lon="6.69786">
        <ele>2029.8</ele>
        <time>2023-06-24T10:58:02.230Z</time>
      </trkpt>
      <trkpt lat="44.1779" lon="6.69778">
        <ele>2030.2</ele>
        <time>2023-06-24T10:58:14.148Z</time>
      </trkpt>
      <trkpt lat="44.17788" lon="6.69769">
        <ele>2030</ele>
        <time>2023-06-24T10:58:23.960Z</time>
      </trkpt>
      <trkpt lat="44.17784" lon="6.69761">
        <ele>2030.1</ele>
        <time>2023-06-24T10:58:35.571Z</time>
      </trkpt>
      <trkpt lat="44.17779" lon="6.69753">
        <ele>2030.1</ele>
        <time>2023-06-24T10:58:47.656Z</time>
      </trkpt>
      <trkpt lat="44.17775" lon="6.69742">
        <ele>2029.3</ele>
        <time>2023-06-24T10:58:59.946Z</time>
      </trkpt>
      <trkpt lat="44.17772" lon="6.69737">
        <ele>2028.9</ele>
        <time>2023-06-24T10:59:06.442Z</time>
      </trkpt>
      <trkpt lat="44.17769" lon="6.69732">
        <ele>2028.5</ele>
        <time>2023-06-24T10:59:12.938Z</time>
      </trkpt>
      <trkpt lat="44.17765" lon="6.69726">
        <ele>2027.9</ele>
        <time>2023-06-24T10:59:21.101Z</time>
      </trkpt>
      <trkpt lat="44.1776" lon="6.69719">
        <ele>2027.4</ele>
        <time>2023-06-24T10:59:30.946Z</time>
      </trkpt>
      <trkpt lat="44.17758" lon="6.69713">
        <ele>2027</ele>
        <time>2023-06-24T10:59:37.539Z</time>
      </trkpt>
      <trkpt lat="44.17756" lon="6.69707">
        <ele>2026.6</ele>
        <time>2023-06-24T10:59:44.132Z</time>
      </trkpt>
      <trkpt lat="44.17757" lon="6.697">
        <ele>2025.9</ele>
        <time>2023-06-24T10:59:51.245Z</time>
      </trkpt>
      <trkpt lat="44.17758" lon="6.69693">
        <ele>2025.4</ele>
        <time>2023-06-24T10:59:58.357Z</time>
      </trkpt>
      <trkpt lat="44.17762" lon="6.69687">
        <ele>2025</ele>
        <time>2023-06-24T11:00:06.520Z</time>
      </trkpt>
      <trkpt lat="44.17765" lon="6.69681">
        <ele>2024.4</ele>
        <time>2023-06-24T11:00:13.809Z</time>
      </trkpt>
      <trkpt lat="44.17769" lon="6.69676">
        <ele>2023.8</ele>
        <time>2023-06-24T11:00:21.273Z</time>
      </trkpt>
      <trkpt lat="44.17772" lon="6.6967">
        <ele>2023</ele>
        <time>2023-06-24T11:00:28.562Z</time>
      </trkpt>
      <trkpt lat="44.17773" lon="6.69664">
        <ele>2022.4</ele>
        <time>2023-06-24T11:00:34.700Z</time>
      </trkpt>
      <trkpt lat="44.17773" lon="6.69657">
        <ele>2021.7</ele>
        <time>2023-06-24T11:00:41.676Z</time>
      </trkpt>
      <trkpt lat="44.17773" lon="6.69651">
        <ele>2021.1</ele>
        <time>2023-06-24T11:00:47.654Z</time>
      </trkpt>
      <trkpt lat="44.17772" lon="6.69644">
        <ele>2020.6</ele>
        <time>2023-06-24T11:00:54.767Z</time>
      </trkpt>
      <trkpt lat="44.17773" lon="6.69632">
        <ele>2018.9</ele>
        <time>2023-06-24T11:01:06.805Z</time>
      </trkpt>
      <trkpt lat="44.17775" lon="6.69626">
        <ele>2017.7</ele>
        <time>2023-06-24T11:01:13.398Z</time>
      </trkpt>
      <trkpt lat="44.17776" lon="6.69619">
        <ele>2016.5</ele>
        <time>2023-06-24T11:01:20.511Z</time>
      </trkpt>
      <trkpt lat="44.17772" lon="6.69609">
        <ele>2016</ele>
        <time>2023-06-24T11:01:31.921Z</time>
      </trkpt>
      <trkpt lat="44.17768" lon="6.69607">
        <ele>2016.8</ele>
        <time>2023-06-24T11:01:44.881Z</time>
      </trkpt>
      <trkpt lat="44.17763" lon="6.69605">
        <ele>2017.7</ele>
        <time>2023-06-24T11:01:59.844Z</time>
      </trkpt>
      <trkpt lat="44.17758" lon="6.69595">
        <ele>2019.1</ele>
        <time>2023-06-24T11:02:23.798Z</time>
      </trkpt>
      <trkpt lat="44.17764" lon="6.69593">
        <ele>2017.6</ele>
        <time>2023-06-24T11:02:32.370Z</time>
      </trkpt>
      <trkpt lat="44.17769" lon="6.6959">
        <ele>2016</ele>
        <time>2023-06-24T11:02:39.933Z</time>
      </trkpt>
      <trkpt lat="44.17775" lon="6.69587">
        <ele>2014.2</ele>
        <time>2023-06-24T11:02:48.790Z</time>
      </trkpt>
      <trkpt lat="44.1778" lon="6.69583">
        <ele>2012.5</ele>
        <time>2023-06-24T11:02:56.799Z</time>
      </trkpt>
      <trkpt lat="44.17784" lon="6.69578">
        <ele>2011.7</ele>
        <time>2023-06-24T11:03:04.263Z</time>
      </trkpt>
      <trkpt lat="44.17788" lon="6.69572">
        <ele>2010.6</ele>
        <time>2023-06-24T11:03:12.427Z</time>
      </trkpt>
      <trkpt lat="44.17793" lon="6.69568">
        <ele>2009.2</ele>
        <time>2023-06-24T11:03:20.436Z</time>
      </trkpt>
      <trkpt lat="44.17797" lon="6.69563">
        <ele>2007.6</ele>
        <time>2023-06-24T11:03:27.900Z</time>
      </trkpt>
      <trkpt lat="44.17803" lon="6.69554">
        <ele>2005.2</ele>
        <time>2023-06-24T11:03:40.145Z</time>
      </trkpt>
      <trkpt lat="44.17808" lon="6.69552">
        <ele>2004</ele>
        <time>2023-06-24T11:03:47.372Z</time>
      </trkpt>
      <trkpt lat="44.17812" lon="6.69549">
        <ele>2003.1</ele>
        <time>2023-06-24T11:03:53.683Z</time>
      </trkpt>
      <trkpt lat="44.17818" lon="6.69548">
        <ele>2001.9</ele>
        <time>2023-06-24T11:04:02.079Z</time>
      </trkpt>
      <trkpt lat="44.17823" lon="6.69547">
        <ele>2000.7</ele>
        <time>2023-06-24T11:04:09.098Z</time>
      </trkpt>
      <trkpt lat="44.17828" lon="6.69544">
        <ele>2000</ele>
        <time>2023-06-24T11:04:16.661Z</time>
      </trkpt>
      <trkpt lat="44.17832" lon="6.69541">
        <ele>1999.4</ele>
        <time>2023-06-24T11:04:22.972Z</time>
      </trkpt>
      <trkpt lat="44.17837" lon="6.69533">
        <ele>1999.4</ele>
        <time>2023-06-24T11:04:35.057Z</time>
      </trkpt>
      <trkpt lat="44.17841" lon="6.69529">
        <ele>1999.1</ele>
        <time>2023-06-24T11:04:41.896Z</time>
      </trkpt>
      <trkpt lat="44.17845" lon="6.69525">
        <ele>1998.7</ele>
        <time>2023-06-24T11:04:48.735Z</time>
      </trkpt>
      <trkpt lat="44.17851" lon="6.69523">
        <ele>1997.7</ele>
        <time>2023-06-24T11:04:57.307Z</time>
      </trkpt>
      <trkpt lat="44.17856" lon="6.69521">
        <ele>1996.6</ele>
        <time>2023-06-24T11:05:04.534Z</time>
      </trkpt>
      <trkpt lat="44.17862" lon="6.69524">
        <ele>1995.2</ele>
        <time>2023-06-24T11:05:13.391Z</time>
      </trkpt>
      <trkpt lat="44.17867" lon="6.69526">
        <ele>1993.4</ele>
        <time>2023-06-24T11:05:20.618Z</time>
      </trkpt>
      <trkpt lat="44.17873" lon="6.6953">
        <ele>1991.1</ele>
        <time>2023-06-24T11:05:29.859Z</time>
      </trkpt>
      <trkpt lat="44.17878" lon="6.69532">
        <ele>1989.3</ele>
        <time>2023-06-24T11:05:37.086Z</time>
      </trkpt>
      <trkpt lat="44.17883" lon="6.69534">
        <ele>1987.5</ele>
        <time>2023-06-24T11:05:44.314Z</time>
      </trkpt>
      <trkpt lat="44.1789" lon="6.69528">
        <ele>1986.5</ele>
        <time>2023-06-24T11:05:55.731Z</time>
      </trkpt>
      <trkpt lat="44.17894" lon="6.69518">
        <ele>1985</ele>
        <time>2023-06-24T11:06:07.141Z</time>
      </trkpt>
      <trkpt lat="44.17899" lon="6.69515">
        <ele>1983.7</ele>
        <time>2023-06-24T11:06:14.704Z</time>
      </trkpt>
      <trkpt lat="44.17903" lon="6.69512">
        <ele>1982.6</ele>
        <time>2023-06-24T11:06:21.015Z</time>
      </trkpt>
      <trkpt lat="44.17909" lon="6.69509">
        <ele>1981.4</ele>
        <time>2023-06-24T11:06:29.871Z</time>
      </trkpt>
      <trkpt lat="44.17914" lon="6.69506">
        <ele>1980.5</ele>
        <time>2023-06-24T11:06:37.434Z</time>
      </trkpt>
      <trkpt lat="44.17911" lon="6.69498">
        <ele>1981.9</ele>
        <time>2023-06-24T11:06:59.470Z</time>
      </trkpt>
      <trkpt lat="44.17915" lon="6.6949">
        <ele>1980.6</ele>
        <time>2023-06-24T11:07:09.188Z</time>
      </trkpt>
      <trkpt lat="44.17918" lon="6.69485">
        <ele>1979.5</ele>
        <time>2023-06-24T11:07:15.684Z</time>
      </trkpt>
      <trkpt lat="44.17921" lon="6.69479">
        <ele>1978.3</ele>
        <time>2023-06-24T11:07:22.973Z</time>
      </trkpt>
      <trkpt lat="44.17927" lon="6.69471">
        <ele>1976.2</ele>
        <time>2023-06-24T11:07:34.508Z</time>
      </trkpt>
      <trkpt lat="44.1793" lon="6.69465">
        <ele>1976.2</ele>
        <time>2023-06-24T11:07:42.837Z</time>
      </trkpt>
      <trkpt lat="44.17932" lon="6.69458">
        <ele>1976.5</ele>
        <time>2023-06-24T11:07:53.079Z</time>
      </trkpt>
      <trkpt lat="44.17937" lon="6.69456">
        <ele>1975.8</ele>
        <time>2023-06-24T11:08:00.307Z</time>
      </trkpt>
      <trkpt lat="44.17941" lon="6.69453">
        <ele>1975.2</ele>
        <time>2023-06-24T11:08:06.618Z</time>
      </trkpt>
      <trkpt lat="44.17945" lon="6.6945">
        <ele>1974.9</ele>
        <time>2023-06-24T11:08:12.928Z</time>
      </trkpt>
      <trkpt lat="44.17949" lon="6.69446">
        <ele>1974.1</ele>
        <time>2023-06-24T11:08:19.768Z</time>
      </trkpt>
      <trkpt lat="44.17953" lon="6.69441">
        <ele>1973.3</ele>
        <time>2023-06-24T11:08:27.232Z</time>
      </trkpt>
      <trkpt lat="44.17957" lon="6.69436">
        <ele>1972.5</ele>
        <time>2023-06-24T11:08:34.696Z</time>
      </trkpt>
      <trkpt lat="44.17963" lon="6.69428">
        <ele>1971.5</ele>
        <time>2023-06-24T11:08:46.231Z</time>
      </trkpt>
      <trkpt lat="44.17969" lon="6.69419">
        <ele>1970.7</ele>
        <time>2023-06-24T11:08:58.475Z</time>
      </trkpt>
      <trkpt lat="44.17972" lon="6.69414">
        <ele>1969.9</ele>
        <time>2023-06-24T11:09:04.971Z</time>
      </trkpt>
      <trkpt lat="44.17975" lon="6.69409">
        <ele>1968.6</ele>
        <time>2023-06-24T11:09:11.467Z</time>
      </trkpt>
      <trkpt lat="44.17981" lon="6.69401">
        <ele>1966.2</ele>
        <time>2023-06-24T11:09:23.002Z</time>
      </trkpt>
      <trkpt lat="44.17986" lon="6.69394">
        <ele>1964.3</ele>
        <time>2023-06-24T11:09:32.846Z</time>
      </trkpt>
      <trkpt lat="44.17983" lon="6.69388">
        <ele>1965</ele>
        <time>2023-06-24T11:09:45.870Z</time>
      </trkpt>
      <trkpt lat="44.1798" lon="6.69381">
        <ele>1966</ele>
        <time>2023-06-24T11:10:02.564Z</time>
      </trkpt>
      <trkpt lat="44.17977" lon="6.69373">
        <ele>1966.9</ele>
        <time>2023-06-24T11:10:18.968Z</time>
      </trkpt>
      <trkpt lat="44.17978" lon="6.69373">
        <ele>1966.7</ele>
        <time>2023-06-24T11:10:20.358Z</time>
      </trkpt>
      <trkpt lat="44.17982" lon="6.69371">
        <ele>1965.9</ele>
        <time>2023-06-24T11:10:26.262Z</time>
      </trkpt>
      <trkpt lat="44.17987" lon="6.69368">
        <ele>1964.9</ele>
        <time>2023-06-24T11:10:33.825Z</time>
      </trkpt>
      <trkpt lat="44.17992" lon="6.69369">
        <ele>1963.9</ele>
        <time>2023-06-24T11:10:40.844Z</time>
      </trkpt>
      <trkpt lat="44.17997" lon="6.69369">
        <ele>1962.8</ele>
        <time>2023-06-24T11:10:47.791Z</time>
      </trkpt>
      <trkpt lat="44.18002" lon="6.69368">
        <ele>1961.8</ele>
        <time>2023-06-24T11:10:54.809Z</time>
      </trkpt>
      <trkpt lat="44.18007" lon="6.69366">
        <ele>1960.9</ele>
        <time>2023-06-24T11:11:02.037Z</time>
      </trkpt>
      <trkpt lat="44.18013" lon="6.69364">
        <ele>1960</ele>
        <time>2023-06-24T11:11:10.609Z</time>
      </trkpt>
      <trkpt lat="44.18018" lon="6.69361">
        <ele>1959.1</ele>
        <time>2023-06-24T11:11:18.172Z</time>
      </trkpt>
      <trkpt lat="44.18023" lon="6.69359">
        <ele>1958.8</ele>
        <time>2023-06-24T11:11:25.399Z</time>
      </trkpt>
      <trkpt lat="44.18027" lon="6.69356">
        <ele>1958.3</ele>
        <time>2023-06-24T11:11:31.710Z</time>
      </trkpt>
      <trkpt lat="44.18032" lon="6.69346">
        <ele>1958.8</ele>
        <time>2023-06-24T11:11:48.372Z</time>
      </trkpt>
      <trkpt lat="44.18034" lon="6.6934">
        <ele>1959.4</ele>
        <time>2023-06-24T11:11:59.858Z</time>
      </trkpt>
      <trkpt lat="44.18036" lon="6.69334">
        <ele>1959.9</ele>
        <time>2023-06-24T11:12:10.516Z</time>
      </trkpt>
      <trkpt lat="44.18035" lon="6.6934">
        <ele>1959</ele>
        <time>2023-06-24T11:12:16.654Z</time>
      </trkpt>
      <trkpt lat="44.1803" lon="6.69342">
        <ele>1960.4</ele>
        <time>2023-06-24T11:12:38.605Z</time>
      </trkpt>
      <trkpt lat="44.18035" lon="6.69334">
        <ele>1960.3</ele>
        <time>2023-06-24T11:12:50.215Z</time>
      </trkpt>
      <trkpt lat="44.1804" lon="6.69326">
        <ele>1960.9</ele>
        <time>2023-06-24T11:13:05.810Z</time>
      </trkpt>
      <trkpt lat="44.18044" lon="6.6932">
        <ele>1961.7</ele>
        <time>2023-06-24T11:13:20.542Z</time>
      </trkpt>
      <trkpt lat="44.18047" lon="6.69314">
        <ele>1962.6</ele>
        <time>2023-06-24T11:13:35.549Z</time>
      </trkpt>
      <trkpt lat="44.18053" lon="6.69312">
        <ele>1961.8</ele>
        <time>2023-06-24T11:13:44.120Z</time>
      </trkpt>
      <trkpt lat="44.18058" lon="6.69309">
        <ele>1960.8</ele>
        <time>2023-06-24T11:13:51.683Z</time>
      </trkpt>
      <trkpt lat="44.18066" lon="6.69304">
        <ele>1959</ele>
        <time>2023-06-24T11:14:03.865Z</time>
      </trkpt>
      <trkpt lat="44.18071" lon="6.69301">
        <ele>1957.1</ele>
        <time>2023-06-24T11:14:11.428Z</time>
      </trkpt>
      <trkpt lat="44.18076" lon="6.69297">
        <ele>1955.3</ele>
        <time>2023-06-24T11:14:19.437Z</time>
      </trkpt>
      <trkpt lat="44.18077" lon="6.69287">
        <ele>1955.3</ele>
        <time>2023-06-24T11:14:30.935Z</time>
      </trkpt>
      <trkpt lat="44.18074" lon="6.69277">
        <ele>1957.1</ele>
        <time>2023-06-24T11:14:59.067Z</time>
      </trkpt>
      <trkpt lat="44.1807" lon="6.69275">
        <ele>1958.9</ele>
        <time>2023-06-24T11:15:32.258Z</time>
      </trkpt>
      <trkpt lat="44.18069" lon="6.69263">
        <ele>1959.7</ele>
        <time>2023-06-24T11:15:50.852Z</time>
      </trkpt>
      <trkpt lat="44.18073" lon="6.69257">
        <ele>1958.3</ele>
        <time>2023-06-24T11:15:59.015Z</time>
      </trkpt>
      <trkpt lat="44.18076" lon="6.69251">
        <ele>1956.7</ele>
        <time>2023-06-24T11:16:06.304Z</time>
      </trkpt>
      <trkpt lat="44.18076" lon="6.69244">
        <ele>1957.9</ele>
        <time>2023-06-24T11:16:25.029Z</time>
      </trkpt>
      <trkpt lat="44.18079" lon="6.69239">
        <ele>1957.6</ele>
        <time>2023-06-24T11:16:31.525Z</time>
      </trkpt>
      <trkpt lat="44.18082" lon="6.69233">
        <ele>1957.3</ele>
        <time>2023-06-24T11:16:38.814Z</time>
      </trkpt>
      <trkpt lat="44.18087" lon="6.69228">
        <ele>1956.4</ele>
        <time>2023-06-24T11:16:47.363Z</time>
      </trkpt>
      <trkpt lat="44.18091" lon="6.69223">
        <ele>1955.8</ele>
        <time>2023-06-24T11:16:54.827Z</time>
      </trkpt>
      <trkpt lat="44.18096" lon="6.69219">
        <ele>1955.4</ele>
        <time>2023-06-24T11:17:02.836Z</time>
      </trkpt>
      <trkpt lat="44.181" lon="6.69214">
        <ele>1955.2</ele>
        <time>2023-06-24T11:17:10.463Z</time>
      </trkpt>
      <trkpt lat="44.18108" lon="6.69211">
        <ele>1953.5</ele>
        <time>2023-06-24T11:17:21.973Z</time>
      </trkpt>
      <trkpt lat="44.18112" lon="6.69208">
        <ele>1953.4</ele>
        <time>2023-06-24T11:17:28.719Z</time>
      </trkpt>
      <trkpt lat="44.18116" lon="6.69204">
        <ele>1952.8</ele>
        <time>2023-06-24T11:17:35.558Z</time>
      </trkpt>
      <trkpt lat="44.1812" lon="6.69201">
        <ele>1952</ele>
        <time>2023-06-24T11:17:41.869Z</time>
      </trkpt>
      <trkpt lat="44.18124" lon="6.69198">
        <ele>1951.2</ele>
        <time>2023-06-24T11:17:48.180Z</time>
      </trkpt>
      <trkpt lat="44.18128" lon="6.69194">
        <ele>1950.6</ele>
        <time>2023-06-24T11:17:55.019Z</time>
      </trkpt>
      <trkpt lat="44.18132" lon="6.6919">
        <ele>1949.2</ele>
        <time>2023-06-24T11:18:01.858Z</time>
      </trkpt>
      <trkpt lat="44.18135" lon="6.69185">
        <ele>1948.7</ele>
        <time>2023-06-24T11:18:08.354Z</time>
      </trkpt>
      <trkpt lat="44.18138" lon="6.69179">
        <ele>1948.2</ele>
        <time>2023-06-24T11:18:15.642Z</time>
      </trkpt>
      <trkpt lat="44.18138" lon="6.69172">
        <ele>1949.5</ele>
        <time>2023-06-24T11:18:35.956Z</time>
      </trkpt>
      <trkpt lat="44.18138" lon="6.69165">
        <ele>1950.7</ele>
        <time>2023-06-24T11:18:54.682Z</time>
      </trkpt>
      <trkpt lat="44.18141" lon="6.69159">
        <ele>1950.3</ele>
        <time>2023-06-24T11:19:01.970Z</time>
      </trkpt>
      <trkpt lat="44.18143" lon="6.69153">
        <ele>1949.9</ele>
        <time>2023-06-24T11:19:08.563Z</time>
      </trkpt>
      <trkpt lat="44.18147" lon="6.69149">
        <ele>1948.5</ele>
        <time>2023-06-24T11:19:15.402Z</time>
      </trkpt>
      <trkpt lat="44.18151" lon="6.69145">
        <ele>1947.2</ele>
        <time>2023-06-24T11:19:22.241Z</time>
      </trkpt>
      <trkpt lat="44.18158" lon="6.69138">
        <ele>1945.5</ele>
        <time>2023-06-24T11:19:34.210Z</time>
      </trkpt>
      <trkpt lat="44.18163" lon="6.69134">
        <ele>1944.3</ele>
        <time>2023-06-24T11:19:42.219Z</time>
      </trkpt>
      <trkpt lat="44.18167" lon="6.69129">
        <ele>1943.3</ele>
        <time>2023-06-24T11:19:49.683Z</time>
      </trkpt>
      <trkpt lat="44.18173" lon="6.6912">
        <ele>1942.7</ele>
        <time>2023-06-24T11:20:01.928Z</time>
      </trkpt>
      <trkpt lat="44.18178" lon="6.69116">
        <ele>1942.2</ele>
        <time>2023-06-24T11:20:09.937Z</time>
      </trkpt>
      <trkpt lat="44.18182" lon="6.69111">
        <ele>1941.9</ele>
        <time>2023-06-24T11:20:17.401Z</time>
      </trkpt>
      <trkpt lat="44.18183" lon="6.69105">
        <ele>1942.1</ele>
        <time>2023-06-24T11:20:25.497Z</time>
      </trkpt>
      <trkpt lat="44.18183" lon="6.69098">
        <ele>1942.3</ele>
        <time>2023-06-24T11:20:34.537Z</time>
      </trkpt>
      <trkpt lat="44.18184" lon="6.69091">
        <ele>1942.4</ele>
        <time>2023-06-24T11:20:43.175Z</time>
      </trkpt>
      <trkpt lat="44.18185" lon="6.69084">
        <ele>1942.7</ele>
        <time>2023-06-24T11:20:52.976Z</time>
      </trkpt>
      <trkpt lat="44.18185" lon="6.69076">
        <ele>1941.8</ele>
        <time>2023-06-24T11:21:00.947Z</time>
      </trkpt>
      <trkpt lat="44.18184" lon="6.69068">
        <ele>1940.7</ele>
        <time>2023-06-24T11:21:09.039Z</time>
      </trkpt>
      <trkpt lat="44.18185" lon="6.69061">
        <ele>1939.6</ele>
        <time>2023-06-24T11:21:16.151Z</time>
      </trkpt>
      <trkpt lat="44.18185" lon="6.69054">
        <ele>1938.6</ele>
        <time>2023-06-24T11:21:23.126Z</time>
      </trkpt>
      <trkpt lat="44.18183" lon="6.69043">
        <ele>1938.1</ele>
        <time>2023-06-24T11:21:34.433Z</time>
      </trkpt>
      <trkpt lat="44.1818" lon="6.69032">
        <ele>1937.6</ele>
        <time>2023-06-24T11:21:46.160Z</time>
      </trkpt>
      <trkpt lat="44.18175" lon="6.69032">
        <ele>1938.7</ele>
        <time>2023-06-24T11:22:03.435Z</time>
      </trkpt>
      <trkpt lat="44.1817" lon="6.69032">
        <ele>1939.9</ele>
        <time>2023-06-24T11:22:22.159Z</time>
      </trkpt>
      <trkpt lat="44.18167" lon="6.69036">
        <ele>1941.2</ele>
        <time>2023-06-24T11:22:43.203Z</time>
      </trkpt>
      <trkpt lat="44.18163" lon="6.6904">
        <ele>1941.2</ele>
        <time>2023-06-24T11:22:51.020Z</time>
      </trkpt>
      <trkpt lat="44.18156" lon="6.69046">
        <ele>1941.2</ele>
        <time>2023-06-24T11:23:04.067Z</time>
      </trkpt>
      <trkpt lat="44.18151" lon="6.69049">
        <ele>1941</ele>
        <time>2023-06-24T11:23:11.806Z</time>
      </trkpt>
      <trkpt lat="44.18146" lon="6.69051">
        <ele>1940.9</ele>
        <time>2023-06-24T11:23:19.597Z</time>
      </trkpt>
      <trkpt lat="44.18142" lon="6.69053">
        <ele>1940.7</ele>
        <time>2023-06-24T11:23:25.501Z</time>
      </trkpt>
      <trkpt lat="44.18137" lon="6.69055">
        <ele>1940.7</ele>
        <time>2023-06-24T11:23:33.761Z</time>
      </trkpt>
      <trkpt lat="44.18133" lon="6.69056">
        <ele>1940.5</ele>
        <time>2023-06-24T11:23:39.408Z</time>
      </trkpt>
      <trkpt lat="44.18128" lon="6.69056">
        <ele>1940.3</ele>
        <time>2023-06-24T11:23:46.449Z</time>
      </trkpt>
      <trkpt lat="44.18124" lon="6.69052">
        <ele>1939.2</ele>
        <time>2023-06-24T11:23:53.288Z</time>
      </trkpt>
      <trkpt lat="44.1812" lon="6.69048">
        <ele>1938.2</ele>
        <time>2023-06-24T11:24:00.127Z</time>
      </trkpt>
      <trkpt lat="44.18116" lon="6.69045">
        <ele>1937.3</ele>
        <time>2023-06-24T11:24:06.438Z</time>
      </trkpt>
      <trkpt lat="44.18112" lon="6.69041">
        <ele>1936.4</ele>
        <time>2023-06-24T11:24:13.277Z</time>
      </trkpt>
      <trkpt lat="44.18108" lon="6.69039">
        <ele>1936</ele>
        <time>2023-06-24T11:24:19.181Z</time>
      </trkpt>
      <trkpt lat="44.18103" lon="6.69037">
        <ele>1935.7</ele>
        <time>2023-06-24T11:24:26.409Z</time>
      </trkpt>
      <trkpt lat="44.18099" lon="6.69037">
        <ele>1935.7</ele>
        <time>2023-06-24T11:24:32.761Z</time>
      </trkpt>
      <trkpt lat="44.18094" lon="6.69037">
        <ele>1935.7</ele>
        <time>2023-06-24T11:24:40.700Z</time>
      </trkpt>
      <trkpt lat="44.18089" lon="6.69036">
        <ele>1935.4</ele>
        <time>2023-06-24T11:24:47.719Z</time>
      </trkpt>
      <trkpt lat="44.18084" lon="6.69034">
        <ele>1935.1</ele>
        <time>2023-06-24T11:24:54.946Z</time>
      </trkpt>
      <trkpt lat="44.18076" lon="6.69029">
        <ele>1934.2</ele>
        <time>2023-06-24T11:25:07.127Z</time>
      </trkpt>
      <trkpt lat="44.18068" lon="6.69034">
        <ele>1935.4</ele>
        <time>2023-06-24T11:25:29.168Z</time>
      </trkpt>
      <trkpt lat="44.18064" lon="6.6903">
        <ele>1934.4</ele>
        <time>2023-06-24T11:25:36.007Z</time>
      </trkpt>
      <trkpt lat="44.1806" lon="6.69025">
        <ele>1933.6</ele>
        <time>2023-06-24T11:25:43.471Z</time>
      </trkpt>
      <trkpt lat="44.18056" lon="6.69021">
        <ele>1933</ele>
        <time>2023-06-24T11:25:50.311Z</time>
      </trkpt>
      <trkpt lat="44.18051" lon="6.69017">
        <ele>1933.6</ele>
        <time>2023-06-24T11:26:03.199Z</time>
      </trkpt>
      <trkpt lat="44.18043" lon="6.69015">
        <ele>1935.4</ele>
        <time>2023-06-24T11:26:31.445Z</time>
      </trkpt>
      <trkpt lat="44.18037" lon="6.6901">
        <ele>1935.9</ele>
        <time>2023-06-24T11:26:45.420Z</time>
      </trkpt>
      <trkpt lat="44.18038" lon="6.68998">
        <ele>1933.6</ele>
        <time>2023-06-24T11:26:57.457Z</time>
      </trkpt>
      <trkpt lat="44.18038" lon="6.68992">
        <ele>1933.2</ele>
        <time>2023-06-24T11:27:03.436Z</time>
      </trkpt>
      <trkpt lat="44.18037" lon="6.68985">
        <ele>1932.7</ele>
        <time>2023-06-24T11:27:10.548Z</time>
      </trkpt>
      <trkpt lat="44.18034" lon="6.6898">
        <ele>1932.8</ele>
        <time>2023-06-24T11:27:18.485Z</time>
      </trkpt>
      <trkpt lat="44.18031" lon="6.68975">
        <ele>1932.8</ele>
        <time>2023-06-24T11:27:25.909Z</time>
      </trkpt>
      <trkpt lat="44.18027" lon="6.68972">
        <ele>1933.1</ele>
        <time>2023-06-24T11:27:34.824Z</time>
      </trkpt>
      <trkpt lat="44.18023" lon="6.68968">
        <ele>1933.7</ele>
        <time>2023-06-24T11:27:46.546Z</time>
      </trkpt>
      <trkpt lat="44.18021" lon="6.68962">
        <ele>1933.2</ele>
        <time>2023-06-24T11:27:53.139Z</time>
      </trkpt>
      <trkpt lat="44.18019" lon="6.68956">
        <ele>1932.6</ele>
        <time>2023-06-24T11:27:59.732Z</time>
      </trkpt>
      <trkpt lat="44.18015" lon="6.68952">
        <ele>1932.8</ele>
        <time>2023-06-24T11:28:08.618Z</time>
      </trkpt>
      <trkpt lat="44.18011" lon="6.68948">
        <ele>1932.8</ele>
        <time>2023-06-24T11:28:16.435Z</time>
      </trkpt>
      <trkpt lat="44.18007" lon="6.68949">
        <ele>1933.7</ele>
        <time>2023-06-24T11:28:30.558Z</time>
      </trkpt>
      <trkpt lat="44.18002" lon="6.68949">
        <ele>1934.8</ele>
        <time>2023-06-24T11:28:47.833Z</time>
      </trkpt>
      <trkpt lat="44.18002" lon="6.68939">
        <ele>1932.3</ele>
        <time>2023-06-24T11:28:57.797Z</time>
      </trkpt>
      <trkpt lat="44.18002" lon="6.68932">
        <ele>1930.6</ele>
        <time>2023-06-24T11:29:04.772Z</time>
      </trkpt>
      <trkpt lat="44.18001" lon="6.68925">
        <ele>1929</ele>
        <time>2023-06-24T11:29:11.885Z</time>
      </trkpt>
      <trkpt lat="44.17998" lon="6.68918">
        <ele>1928.3</ele>
        <time>2023-06-24T11:29:20.010Z</time>
      </trkpt>
      <trkpt lat="44.17994" lon="6.68911">
        <ele>1927.7</ele>
        <time>2023-06-24T11:29:28.929Z</time>
      </trkpt>
      <trkpt lat="44.1799" lon="6.68907">
        <ele>1928.1</ele>
        <time>2023-06-24T11:29:39.100Z</time>
      </trkpt>
      <trkpt lat="44.17985" lon="6.68903">
        <ele>1928.2</ele>
        <time>2023-06-24T11:29:48.761Z</time>
      </trkpt>
      <trkpt lat="44.17979" lon="6.68897">
        <ele>1927.7</ele>
        <time>2023-06-24T11:29:59.020Z</time>
      </trkpt>
      <trkpt lat="44.17975" lon="6.68894">
        <ele>1927.3</ele>
        <time>2023-06-24T11:30:05.331Z</time>
      </trkpt>
      <trkpt lat="44.17971" lon="6.6889">
        <ele>1926.8</ele>
        <time>2023-06-24T11:30:12.170Z</time>
      </trkpt>
      <trkpt lat="44.17966" lon="6.68888">
        <ele>1927.2</ele>
        <time>2023-06-24T11:30:22.760Z</time>
      </trkpt>
      <trkpt lat="44.17961" lon="6.68886">
        <ele>1927.7</ele>
        <time>2023-06-24T11:30:34.071Z</time>
      </trkpt>
      <trkpt lat="44.17956" lon="6.68885">
        <ele>1928.3</ele>
        <time>2023-06-24T11:30:45.968Z</time>
      </trkpt>
      <trkpt lat="44.17951" lon="6.68883">
        <ele>1928.9</ele>
        <time>2023-06-24T11:30:58.069Z</time>
      </trkpt>
      <trkpt lat="44.17947" lon="6.6888">
        <ele>1928.5</ele>
        <time>2023-06-24T11:31:04.380Z</time>
      </trkpt>
      <trkpt lat="44.17942" lon="6.68876">
        <ele>1928.1</ele>
        <time>2023-06-24T11:31:12.390Z</time>
      </trkpt>
      <trkpt lat="44.17938" lon="6.68875">
        <ele>1928.9</ele>
        <time>2023-06-24T11:31:25.204Z</time>
      </trkpt>
      <trkpt lat="44.17933" lon="6.68874">
        <ele>1929.7</ele>
        <time>2023-06-24T11:31:38.954Z</time>
      </trkpt>
      <trkpt lat="44.17931" lon="6.68867">
        <ele>1927.6</ele>
        <time>2023-06-24T11:31:46.462Z</time>
      </trkpt>
      <trkpt lat="44.17928" lon="6.68859">
        <ele>1925.8</ele>
        <time>2023-06-24T11:31:55.458Z</time>
      </trkpt>
      <trkpt lat="44.17925" lon="6.68852">
        <ele>1924.9</ele>
        <time>2023-06-24T11:32:03.584Z</time>
      </trkpt>
      <trkpt lat="44.1792" lon="6.68848">
        <ele>1925.3</ele>
        <time>2023-06-24T11:32:15.026Z</time>
      </trkpt>
      <trkpt lat="44.17917" lon="6.68843">
        <ele>1924.7</ele>
        <time>2023-06-24T11:32:21.522Z</time>
      </trkpt>
      <trkpt lat="44.17914" lon="6.68838">
        <ele>1924.4</ele>
        <time>2023-06-24T11:32:28.018Z</time>
      </trkpt>
      <trkpt lat="44.1791" lon="6.68834">
        <ele>1925.1</ele>
        <time>2023-06-24T11:32:40.637Z</time>
      </trkpt>
      <trkpt lat="44.17906" lon="6.6883">
        <ele>1927.4</ele>
        <time>2023-06-24T11:33:21.673Z</time>
      </trkpt>
      <trkpt lat="44.17902" lon="6.68826">
        <ele>1929.9</ele>
        <time>2023-06-24T11:34:02.709Z</time>
      </trkpt>
      <trkpt lat="44.17897" lon="6.68822">
        <ele>1932</ele>
        <time>2023-06-24T11:34:38.781Z</time>
      </trkpt>
      <trkpt lat="44.17895" lon="6.68818">
        <ele>1933</ele>
        <time>2023-06-24T11:34:54.606Z</time>
      </trkpt>
      <trkpt lat="44.17898" lon="6.68811">
        <ele>1933.2</ele>
        <time>2023-06-24T11:35:04.947Z</time>
      </trkpt>
      <trkpt lat="44.17903" lon="6.68809">
        <ele>1932.8</ele>
        <time>2023-06-24T11:35:12.174Z</time>
      </trkpt>
      <trkpt lat="44.17908" lon="6.68807">
        <ele>1932.6</ele>
        <time>2023-06-24T11:35:19.533Z</time>
      </trkpt>
      <trkpt lat="44.17914" lon="6.68809">
        <ele>1931.3</ele>
        <time>2023-06-24T11:35:28.104Z</time>
      </trkpt>
      <trkpt lat="44.1792" lon="6.6881">
        <ele>1929.7</ele>
        <time>2023-06-24T11:35:36.501Z</time>
      </trkpt>
      <trkpt lat="44.17926" lon="6.68813">
        <ele>1927.3</ele>
        <time>2023-06-24T11:35:45.357Z</time>
      </trkpt>
      <trkpt lat="44.17931" lon="6.68816">
        <ele>1924.9</ele>
        <time>2023-06-24T11:35:52.920Z</time>
      </trkpt>
      <trkpt lat="44.17936" lon="6.68818">
        <ele>1923.2</ele>
        <time>2023-06-24T11:36:00.148Z</time>
      </trkpt>
      <trkpt lat="44.17941" lon="6.68819">
        <ele>1921.5</ele>
        <time>2023-06-24T11:36:07.166Z</time>
      </trkpt>
      <trkpt lat="44.17947" lon="6.68819">
        <ele>1920</ele>
        <time>2023-06-24T11:36:15.503Z</time>
      </trkpt>
      <trkpt lat="44.17952" lon="6.68819">
        <ele>1918.2</ele>
        <time>2023-06-24T11:36:22.450Z</time>
      </trkpt>
      <trkpt lat="44.17956" lon="6.6882">
        <ele>1916.6</ele>
        <time>2023-06-24T11:36:28.096Z</time>
      </trkpt>
      <trkpt lat="44.17956" lon="6.68815">
        <ele>1918.1</ele>
        <time>2023-06-24T11:36:55.606Z</time>
      </trkpt>
      <trkpt lat="44.17956" lon="6.68818">
        <ele>1917.2</ele>
        <time>2023-06-24T11:36:58.595Z</time>
      </trkpt>
      <trkpt lat="44.17962" lon="6.68815">
        <ele>1916.1</ele>
        <time>2023-06-24T11:37:07.451Z</time>
      </trkpt>
      <trkpt lat="44.17967" lon="6.68812">
        <ele>1914.8</ele>
        <time>2023-06-24T11:37:15.015Z</time>
      </trkpt>
      <trkpt lat="44.17973" lon="6.68808">
        <ele>1913.4</ele>
        <time>2023-06-24T11:37:24.255Z</time>
      </trkpt>
      <trkpt lat="44.17979" lon="6.68803">
        <ele>1912.3</ele>
        <time>2023-06-24T11:37:33.967Z</time>
      </trkpt>
      <trkpt lat="44.17985" lon="6.68797">
        <ele>1911.9</ele>
        <time>2023-06-24T11:37:44.226Z</time>
      </trkpt>
      <trkpt lat="44.1799" lon="6.68791">
        <ele>1911.5</ele>
        <time>2023-06-24T11:37:53.392Z</time>
      </trkpt>
      <trkpt lat="44.17995" lon="6.68789">
        <ele>1910.4</ele>
        <time>2023-06-24T11:38:00.619Z</time>
      </trkpt>
      <trkpt lat="44.17999" lon="6.68786">
        <ele>1909.3</ele>
        <time>2023-06-24T11:38:06.930Z</time>
      </trkpt>
      <trkpt lat="44.18003" lon="6.68781">
        <ele>1909.2</ele>
        <time>2023-06-24T11:38:14.991Z</time>
      </trkpt>
      <trkpt lat="44.18006" lon="6.68775">
        <ele>1908.9</ele>
        <time>2023-06-24T11:38:22.279Z</time>
      </trkpt>
      <trkpt lat="44.18012" lon="6.68772">
        <ele>1907</ele>
        <time>2023-06-24T11:38:31.135Z</time>
      </trkpt>
      <trkpt lat="44.18017" lon="6.68769">
        <ele>1905.1</ele>
        <time>2023-06-24T11:38:38.699Z</time>
      </trkpt>
      <trkpt lat="44.18022" lon="6.68765">
        <ele>1903.8</ele>
        <time>2023-06-24T11:38:46.708Z</time>
      </trkpt>
      <trkpt lat="44.18026" lon="6.68761">
        <ele>1902.5</ele>
        <time>2023-06-24T11:38:53.547Z</time>
      </trkpt>
      <trkpt lat="44.18033" lon="6.68755">
        <ele>1900.2</ele>
        <time>2023-06-24T11:39:04.964Z</time>
      </trkpt>
      <trkpt lat="44.18036" lon="6.68749">
        <ele>1900</ele>
        <time>2023-06-24T11:39:12.391Z</time>
      </trkpt>
      <trkpt lat="44.18038" lon="6.68742">
        <ele>1899.6</ele>
        <time>2023-06-24T11:39:19.900Z</time>
      </trkpt>
      <trkpt lat="44.18042" lon="6.68736">
        <ele>1898.6</ele>
        <time>2023-06-24T11:39:28.063Z</time>
      </trkpt>
      <trkpt lat="44.18045" lon="6.6873">
        <ele>1897.6</ele>
        <time>2023-06-24T11:39:35.351Z</time>
      </trkpt>
      <trkpt lat="44.18046" lon="6.68723">
        <ele>1898.1</ele>
        <time>2023-06-24T11:39:46.542Z</time>
      </trkpt>
      <trkpt lat="44.18047" lon="6.68715">
        <ele>1898.3</ele>
        <time>2023-06-24T11:39:56.845Z</time>
      </trkpt>
      <trkpt lat="44.1805" lon="6.6871">
        <ele>1897.3</ele>
        <time>2023-06-24T11:40:03.341Z</time>
      </trkpt>
      <trkpt lat="44.18053" lon="6.68704">
        <ele>1896.3</ele>
        <time>2023-06-24T11:40:10.629Z</time>
      </trkpt>
      <trkpt lat="44.18052" lon="6.68698">
        <ele>1897.7</ele>
        <time>2023-06-24T11:40:33.377Z</time>
      </trkpt>
      <trkpt lat="44.1805" lon="6.68691">
        <ele>1898.7</ele>
        <time>2023-06-24T11:40:49.655Z</time>
      </trkpt>
      <trkpt lat="44.18045" lon="6.68684">
        <ele>1900.9</ele>
        <time>2023-06-24T11:41:25.177Z</time>
      </trkpt>
      <trkpt lat="44.1804" lon="6.68676">
        <ele>1903.2</ele>
        <time>2023-06-24T11:42:02.033Z</time>
      </trkpt>
      <trkpt lat="44.18042" lon="6.68668">
        <ele>1902.1</ele>
        <time>2023-06-24T11:42:10.475Z</time>
      </trkpt>
      <trkpt lat="44.18043" lon="6.68659">
        <ele>1900.8</ele>
        <time>2023-06-24T11:42:19.550Z</time>
      </trkpt>
      <trkpt lat="44.18045" lon="6.68651">
        <ele>1899.2</ele>
        <time>2023-06-24T11:42:27.992Z</time>
      </trkpt>
      <trkpt lat="44.18047" lon="6.68643">
        <ele>1897.6</ele>
        <time>2023-06-24T11:42:36.434Z</time>
      </trkpt>
      <trkpt lat="44.18048" lon="6.68637">
        <ele>1896.9</ele>
        <time>2023-06-24T11:42:42.572Z</time>
      </trkpt>
      <trkpt lat="44.18048" lon="6.6863">
        <ele>1896.4</ele>
        <time>2023-06-24T11:42:49.547Z</time>
      </trkpt>
      <trkpt lat="44.18047" lon="6.68621">
        <ele>1896.7</ele>
        <time>2023-06-24T11:43:01.543Z</time>
      </trkpt>
      <trkpt lat="44.18045" lon="6.68611">
        <ele>1896.9</ele>
        <time>2023-06-24T11:43:14.403Z</time>
      </trkpt>
      <trkpt lat="44.18043" lon="6.68602">
        <ele>1897.5</ele>
        <time>2023-06-24T11:43:28.730Z</time>
      </trkpt>
      <trkpt lat="44.18041" lon="6.68592">
        <ele>1898.1</ele>
        <time>2023-06-24T11:43:44.078Z</time>
      </trkpt>
      <trkpt lat="44.18042" lon="6.68583">
        <ele>1897.6</ele>
        <time>2023-06-24T11:43:53.153Z</time>
      </trkpt>
      <trkpt lat="44.18042" lon="6.68574">
        <ele>1897.2</ele>
        <time>2023-06-24T11:44:02.121Z</time>
      </trkpt>
      <trkpt lat="44.18041" lon="6.68568">
        <ele>1897.5</ele>
        <time>2023-06-24T11:44:10.846Z</time>
      </trkpt>
      <trkpt lat="44.1804" lon="6.68561">
        <ele>1897.8</ele>
        <time>2023-06-24T11:44:20.647Z</time>
      </trkpt>
      <trkpt lat="44.18042" lon="6.68553">
        <ele>1896.8</ele>
        <time>2023-06-24T11:44:29.089Z</time>
      </trkpt>
      <trkpt lat="44.18044" lon="6.68544">
        <ele>1895.9</ele>
        <time>2023-06-24T11:44:38.478Z</time>
      </trkpt>
      <trkpt lat="44.18047" lon="6.68538">
        <ele>1894.7</ele>
        <time>2023-06-24T11:44:45.766Z</time>
      </trkpt>
      <trkpt lat="44.1805" lon="6.68531">
        <ele>1893.8</ele>
        <time>2023-06-24T11:44:53.892Z</time>
      </trkpt>
      <trkpt lat="44.18051" lon="6.68524">
        <ele>1893.5</ele>
        <time>2023-06-24T11:45:01.004Z</time>
      </trkpt>
      <trkpt lat="44.18051" lon="6.68517">
        <ele>1893</ele>
        <time>2023-06-24T11:45:07.979Z</time>
      </trkpt>
      <trkpt lat="44.18053" lon="6.68508">
        <ele>1892.2</ele>
        <time>2023-06-24T11:45:17.368Z</time>
      </trkpt>
      <trkpt lat="44.18054" lon="6.68499">
        <ele>1891.4</ele>
        <time>2023-06-24T11:45:26.443Z</time>
      </trkpt>
      <trkpt lat="44.18052" lon="6.68492">
        <ele>1891.5</ele>
        <time>2023-06-24T11:45:35.533Z</time>
      </trkpt>
      <trkpt lat="44.1805" lon="6.68484">
        <ele>1891.6</ele>
        <time>2023-06-24T11:45:45.688Z</time>
      </trkpt>
      <trkpt lat="44.18046" lon="6.68475">
        <ele>1892.3</ele>
        <time>2023-06-24T11:46:01.976Z</time>
      </trkpt>
      <trkpt lat="44.18045" lon="6.68467">
        <ele>1892</ele>
        <time>2023-06-24T11:46:10.068Z</time>
      </trkpt>
      <trkpt lat="44.18043" lon="6.68455">
        <ele>1891.8</ele>
        <time>2023-06-24T11:46:23.166Z</time>
      </trkpt>
      <trkpt lat="44.18038" lon="6.68449">
        <ele>1893.1</ele>
        <time>2023-06-24T11:46:43.985Z</time>
      </trkpt>
      <trkpt lat="44.18032" lon="6.68442">
        <ele>1894.5</ele>
        <time>2023-06-24T11:47:07.005Z</time>
      </trkpt>
      <trkpt lat="44.18034" lon="6.68431">
        <ele>1893.2</ele>
        <time>2023-06-24T11:47:18.312Z</time>
      </trkpt>
      <trkpt lat="44.18035" lon="6.6842">
        <ele>1891.9</ele>
        <time>2023-06-24T11:47:29.361Z</time>
      </trkpt>
      <trkpt lat="44.18038" lon="6.6841">
        <ele>1890.4</ele>
        <time>2023-06-24T11:47:40.162Z</time>
      </trkpt>
      <trkpt lat="44.1804" lon="6.684">
        <ele>1888.8</ele>
        <time>2023-06-24T11:47:50.507Z</time>
      </trkpt>
      <trkpt lat="44.18044" lon="6.68395">
        <ele>1887.3</ele>
        <time>2023-06-24T11:47:57.971Z</time>
      </trkpt>
      <trkpt lat="44.18047" lon="6.68389">
        <ele>1885.8</ele>
        <time>2023-06-24T11:48:05.259Z</time>
      </trkpt>
      <trkpt lat="44.18051" lon="6.68383">
        <ele>1883.9</ele>
        <time>2023-06-24T11:48:13.422Z</time>
      </trkpt>
      <trkpt lat="44.18055" lon="6.68377">
        <ele>1881.9</ele>
        <time>2023-06-24T11:48:21.585Z</time>
      </trkpt>
      <trkpt lat="44.1806" lon="6.68371">
        <ele>1879.8</ele>
        <time>2023-06-24T11:48:30.751Z</time>
      </trkpt>
      <trkpt lat="44.18064" lon="6.68364">
        <ele>1877.8</ele>
        <time>2023-06-24T11:48:39.669Z</time>
      </trkpt>
      <trkpt lat="44.1807" lon="6.68362">
        <ele>1876</ele>
        <time>2023-06-24T11:48:48.241Z</time>
      </trkpt>
      <trkpt lat="44.18075" lon="6.68359">
        <ele>1874.4</ele>
        <time>2023-06-24T11:48:55.804Z</time>
      </trkpt>
      <trkpt lat="44.18082" lon="6.68357">
        <ele>1872.5</ele>
        <time>2023-06-24T11:49:05.732Z</time>
      </trkpt>
      <trkpt lat="44.18088" lon="6.68355">
        <ele>1870.8</ele>
        <time>2023-06-24T11:49:14.304Z</time>
      </trkpt>
      <trkpt lat="44.18092" lon="6.68352">
        <ele>1869.8</ele>
        <time>2023-06-24T11:49:20.615Z</time>
      </trkpt>
      <trkpt lat="44.18096" lon="6.68349">
        <ele>1868.8</ele>
        <time>2023-06-24T11:49:26.926Z</time>
      </trkpt>
      <trkpt lat="44.181" lon="6.6834">
        <ele>1867.8</ele>
        <time>2023-06-24T11:49:37.476Z</time>
      </trkpt>
      <trkpt lat="44.18105" lon="6.68333">
        <ele>1866.6</ele>
        <time>2023-06-24T11:49:47.321Z</time>
      </trkpt>
      <trkpt lat="44.1811" lon="6.68326">
        <ele>1865.8</ele>
        <time>2023-06-24T11:49:57.165Z</time>
      </trkpt>
      <trkpt lat="44.18115" lon="6.68321">
        <ele>1865.1</ele>
        <time>2023-06-24T11:50:05.714Z</time>
      </trkpt>
      <trkpt lat="44.18119" lon="6.68316">
        <ele>1864.4</ele>
        <time>2023-06-24T11:50:13.178Z</time>
      </trkpt>
      <trkpt lat="44.18124" lon="6.68312">
        <ele>1863.5</ele>
        <time>2023-06-24T11:50:21.188Z</time>
      </trkpt>
      <trkpt lat="44.18128" lon="6.68308">
        <ele>1862.6</ele>
        <time>2023-06-24T11:50:28.027Z</time>
      </trkpt>
      <trkpt lat="44.18132" lon="6.68302">
        <ele>1861.9</ele>
        <time>2023-06-24T11:50:36.190Z</time>
      </trkpt>
      <trkpt lat="44.18136" lon="6.68296">
        <ele>1861.1</ele>
        <time>2023-06-24T11:50:44.353Z</time>
      </trkpt>
      <trkpt lat="44.18129" lon="6.68289">
        <ele>1863.1</ele>
        <time>2023-06-24T11:51:15.605Z</time>
      </trkpt>
      <trkpt lat="44.18122" lon="6.6829">
        <ele>1864.8</ele>
        <time>2023-06-24T11:51:42.126Z</time>
      </trkpt>
      <trkpt lat="44.18115" lon="6.6829">
        <ele>1866.6</ele>
        <time>2023-06-24T11:52:10.241Z</time>
      </trkpt>
      <trkpt lat="44.18114" lon="6.68282">
        <ele>1867.1</ele>
        <time>2023-06-24T11:52:22.464Z</time>
      </trkpt>
      <trkpt lat="44.18113" lon="6.68274">
        <ele>1867.5</ele>
        <time>2023-06-24T11:52:33.996Z</time>
      </trkpt>
      <trkpt lat="44.18116" lon="6.68269">
        <ele>1866.7</ele>
        <time>2023-06-24T11:52:40.492Z</time>
      </trkpt>
      <trkpt lat="44.18119" lon="6.68263">
        <ele>1865.9</ele>
        <time>2023-06-24T11:52:47.781Z</time>
      </trkpt>
      <trkpt lat="44.18122" lon="6.68258">
        <ele>1865</ele>
        <time>2023-06-24T11:52:54.277Z</time>
      </trkpt>
      <trkpt lat="44.18125" lon="6.68253">
        <ele>1864.1</ele>
        <time>2023-06-24T11:53:00.773Z</time>
      </trkpt>
      <trkpt lat="44.18131" lon="6.68249">
        <ele>1862.3</ele>
        <time>2023-06-24T11:53:10.013Z</time>
      </trkpt>
      <trkpt lat="44.18136" lon="6.68244">
        <ele>1860.6</ele>
        <time>2023-06-24T11:53:18.562Z</time>
      </trkpt>
      <trkpt lat="44.18139" lon="6.68234">
        <ele>1859.4</ele>
        <time>2023-06-24T11:53:29.363Z</time>
      </trkpt>
      <trkpt lat="44.18135" lon="6.68227">
        <ele>1860.2</ele>
        <time>2023-06-24T11:53:44.801Z</time>
      </trkpt>
      <trkpt lat="44.18131" lon="6.68219">
        <ele>1860.6</ele>
        <time>2023-06-24T11:53:58.130Z</time>
      </trkpt>
      <trkpt lat="44.18126" lon="6.68215">
        <ele>1861.5</ele>
        <time>2023-06-24T11:54:13.689Z</time>
      </trkpt>
      <trkpt lat="44.1812" lon="6.68211">
        <ele>1862.3</ele>
        <time>2023-06-24T11:54:29.437Z</time>
      </trkpt>
      <trkpt lat="44.18116" lon="6.68208">
        <ele>1862.7</ele>
        <time>2023-06-24T11:54:39.043Z</time>
      </trkpt>
      <trkpt lat="44.18112" lon="6.68204">
        <ele>1863.2</ele>
        <time>2023-06-24T11:54:49.952Z</time>
      </trkpt>
      <trkpt lat="44.18111" lon="6.68198">
        <ele>1862.7</ele>
        <time>2023-06-24T11:54:56.090Z</time>
      </trkpt>
      <trkpt lat="44.18109" lon="6.68192">
        <ele>1862.9</ele>
        <time>2023-06-24T11:55:04.698Z</time>
      </trkpt>
      <trkpt lat="44.18108" lon="6.68186">
        <ele>1864</ele>
        <time>2023-06-24T11:55:21.859Z</time>
      </trkpt>
      <trkpt lat="44.18106" lon="6.68179">
        <ele>1865</ele>
        <time>2023-06-24T11:55:38.137Z</time>
      </trkpt>
      <trkpt lat="44.18102" lon="6.68172">
        <ele>1866.8</ele>
        <time>2023-06-24T11:56:06.522Z</time>
      </trkpt>
      <trkpt lat="44.18102" lon="6.68175">
        <ele>1866.5</ele>
        <time>2023-06-24T11:56:09.512Z</time>
      </trkpt>
      <trkpt lat="44.18108" lon="6.68171">
        <ele>1865.3</ele>
        <time>2023-06-24T11:56:18.752Z</time>
      </trkpt>
      <trkpt lat="44.18108" lon="6.68174">
        <ele>1865</ele>
        <time>2023-06-24T11:56:21.741Z</time>
      </trkpt>
      <trkpt lat="44.1811" lon="6.68172">
        <ele>1864.7</ele>
        <time>2023-06-24T11:56:25.161Z</time>
      </trkpt>
      <trkpt lat="44.18109" lon="6.68171">
        <ele>1865.1</ele>
        <time>2023-06-24T11:56:31.716Z</time>
      </trkpt>
      <trkpt lat="44.18114" lon="6.68173">
        <ele>1863.5</ele>
        <time>2023-06-24T11:56:38.944Z</time>
      </trkpt>
      <trkpt lat="44.18119" lon="6.68176">
        <ele>1861.9</ele>
        <time>2023-06-24T11:56:46.507Z</time>
      </trkpt>
      <trkpt lat="44.18124" lon="6.68179">
        <ele>1860.4</ele>
        <time>2023-06-24T11:56:54.070Z</time>
      </trkpt>
      <trkpt lat="44.18129" lon="6.6818">
        <ele>1859.2</ele>
        <time>2023-06-24T11:57:01.088Z</time>
      </trkpt>
      <trkpt lat="44.18133" lon="6.6818">
        <ele>1858</ele>
        <time>2023-06-24T11:57:06.646Z</time>
      </trkpt>
      <trkpt lat="44.18138" lon="6.68177">
        <ele>1857</ele>
        <time>2023-06-24T11:57:14.209Z</time>
      </trkpt>
      <trkpt lat="44.18142" lon="6.68173">
        <ele>1855.8</ele>
        <time>2023-06-24T11:57:21.049Z</time>
      </trkpt>
      <trkpt lat="44.18146" lon="6.68167">
        <ele>1854.9</ele>
        <time>2023-06-24T11:57:29.211Z</time>
      </trkpt>
      <trkpt lat="44.18149" lon="6.68161">
        <ele>1854.7</ele>
        <time>2023-06-24T11:57:36.639Z</time>
      </trkpt>
      <trkpt lat="44.18152" lon="6.68155">
        <ele>1854.7</ele>
        <time>2023-06-24T11:57:44.968Z</time>
      </trkpt>
      <trkpt lat="44.18154" lon="6.68148">
        <ele>1854.7</ele>
        <time>2023-06-24T11:57:53.549Z</time>
      </trkpt>
      <trkpt lat="44.18158" lon="6.68144">
        <ele>1853.7</ele>
        <time>2023-06-24T11:58:00.388Z</time>
      </trkpt>
      <trkpt lat="44.18161" lon="6.68139">
        <ele>1852.6</ele>
        <time>2023-06-24T11:58:06.884Z</time>
      </trkpt>
      <trkpt lat="44.18166" lon="6.68136">
        <ele>1851</ele>
        <time>2023-06-24T11:58:14.447Z</time>
      </trkpt>
      <trkpt lat="44.18171" lon="6.68132">
        <ele>1849.8</ele>
        <time>2023-06-24T11:58:22.456Z</time>
      </trkpt>
      <trkpt lat="44.18174" lon="6.68122">
        <ele>1850.5</ele>
        <time>2023-06-24T11:58:39.009Z</time>
      </trkpt>
      <trkpt lat="44.18179" lon="6.68118">
        <ele>1849.1</ele>
        <time>2023-06-24T11:58:47.019Z</time>
      </trkpt>
      <trkpt lat="44.18184" lon="6.68114">
        <ele>1847.5</ele>
        <time>2023-06-24T11:58:55.028Z</time>
      </trkpt>
      <trkpt lat="44.18189" lon="6.68105">
        <ele>1846.9</ele>
        <time>2023-06-24T11:59:06.372Z</time>
      </trkpt>
      <trkpt lat="44.1819" lon="6.68097">
        <ele>1848.3</ele>
        <time>2023-06-24T11:59:28.215Z</time>
      </trkpt>
      <trkpt lat="44.18191" lon="6.68088">
        <ele>1849.7</ele>
        <time>2023-06-24T11:59:50.280Z</time>
      </trkpt>
      <trkpt lat="44.18194" lon="6.68082">
        <ele>1849.5</ele>
        <time>2023-06-24T11:59:57.707Z</time>
      </trkpt>
      <trkpt lat="44.18197" lon="6.68076">
        <ele>1849.5</ele>
        <time>2023-06-24T12:00:06.036Z</time>
      </trkpt>
      <trkpt lat="44.18201" lon="6.68072">
        <ele>1848.9</ele>
        <time>2023-06-24T12:00:12.875Z</time>
      </trkpt>
      <trkpt lat="44.18205" lon="6.68067">
        <ele>1848.1</ele>
        <time>2023-06-24T12:00:20.339Z</time>
      </trkpt>
      <trkpt lat="44.18207" lon="6.6806">
        <ele>1848.7</ele>
        <time>2023-06-24T12:00:32.720Z</time>
      </trkpt>
      <trkpt lat="44.18209" lon="6.68053">
        <ele>1849.3</ele>
        <time>2023-06-24T12:00:45.101Z</time>
      </trkpt>
      <trkpt lat="44.18213" lon="6.68049">
        <ele>1848.6</ele>
        <time>2023-06-24T12:00:51.940Z</time>
      </trkpt>
      <trkpt lat="44.18217" lon="6.68044">
        <ele>1847.8</ele>
        <time>2023-06-24T12:00:59.404Z</time>
      </trkpt>
      <trkpt lat="44.18222" lon="6.68041">
        <ele>1846.2</ele>
        <time>2023-06-24T12:01:06.967Z</time>
      </trkpt>
      <trkpt lat="44.18227" lon="6.68038">
        <ele>1845</ele>
        <time>2023-06-24T12:01:14.531Z</time>
      </trkpt>
      <trkpt lat="44.18231" lon="6.68034">
        <ele>1844.5</ele>
        <time>2023-06-24T12:01:21.370Z</time>
      </trkpt>
      <trkpt lat="44.18234" lon="6.68029">
        <ele>1844.1</ele>
        <time>2023-06-24T12:01:27.866Z</time>
      </trkpt>
      <trkpt lat="44.18235" lon="6.68018">
        <ele>1845.9</ele>
        <time>2023-06-24T12:01:56.048Z</time>
      </trkpt>
      <trkpt lat="44.1824" lon="6.68013">
        <ele>1844.9</ele>
        <time>2023-06-24T12:02:04.597Z</time>
      </trkpt>
      <trkpt lat="44.18245" lon="6.68007">
        <ele>1843.9</ele>
        <time>2023-06-24T12:02:13.763Z</time>
      </trkpt>
      <trkpt lat="44.18249" lon="6.68003">
        <ele>1843</ele>
        <time>2023-06-24T12:02:20.602Z</time>
      </trkpt>
      <trkpt lat="44.18253" lon="6.67998">
        <ele>1842.2</ele>
        <time>2023-06-24T12:02:28.066Z</time>
      </trkpt>
      <trkpt lat="44.18258" lon="6.67997">
        <ele>1840.8</ele>
        <time>2023-06-24T12:02:35.084Z</time>
      </trkpt>
      <trkpt lat="44.18262" lon="6.67995">
        <ele>1839.3</ele>
        <time>2023-06-24T12:02:40.988Z</time>
      </trkpt>
      <trkpt lat="44.18268" lon="6.67995">
        <ele>1837.1</ele>
        <time>2023-06-24T12:02:49.325Z</time>
      </trkpt>
      <trkpt lat="44.18273" lon="6.67994">
        <ele>1835</ele>
        <time>2023-06-24T12:02:56.343Z</time>
      </trkpt>
      <trkpt lat="44.18278" lon="6.67992">
        <ele>1833.4</ele>
        <time>2023-06-24T12:03:03.571Z</time>
      </trkpt>
      <trkpt lat="44.18283" lon="6.6799">
        <ele>1832.1</ele>
        <time>2023-06-24T12:03:10.798Z</time>
      </trkpt>
      <trkpt lat="44.18288" lon="6.67987">
        <ele>1831</ele>
        <time>2023-06-24T12:03:18.361Z</time>
      </trkpt>
      <trkpt lat="44.18294" lon="6.67979">
        <ele>1830.5</ele>
        <time>2023-06-24T12:03:29.896Z</time>
      </trkpt>
      <trkpt lat="44.18296" lon="6.67973">
        <ele>1831</ele>
        <time>2023-06-24T12:03:40.553Z</time>
      </trkpt>
      <trkpt lat="44.18298" lon="6.67967">
        <ele>1831.4</ele>
        <time>2023-06-24T12:03:50.459Z</time>
      </trkpt>
      <trkpt lat="44.183" lon="6.67959">
        <ele>1832.4</ele>
        <time>2023-06-24T12:04:07.387Z</time>
      </trkpt>
      <trkpt lat="44.18302" lon="6.6795">
        <ele>1833.3</ele>
        <time>2023-06-24T12:04:24.148Z</time>
      </trkpt>
      <trkpt lat="44.18306" lon="6.67945">
        <ele>1833</ele>
        <time>2023-06-24T12:04:31.612Z</time>
      </trkpt>
      <trkpt lat="44.18309" lon="6.67939">
        <ele>1832.7</ele>
        <time>2023-06-24T12:04:38.900Z</time>
      </trkpt>
      <trkpt lat="44.18313" lon="6.67936">
        <ele>1831.9</ele>
        <time>2023-06-24T12:04:45.211Z</time>
      </trkpt>
      <trkpt lat="44.18317" lon="6.67932">
        <ele>1831.1</ele>
        <time>2023-06-24T12:04:52.050Z</time>
      </trkpt>
      <trkpt lat="44.18325" lon="6.67927">
        <ele>1829.2</ele>
        <time>2023-06-24T12:05:04.231Z</time>
      </trkpt>
      <trkpt lat="44.18327" lon="6.67916">
        <ele>1830.1</ele>
        <time>2023-06-24T12:05:22.848Z</time>
      </trkpt>
      <trkpt lat="44.1833" lon="6.6791">
        <ele>1829.6</ele>
        <time>2023-06-24T12:05:30.136Z</time>
      </trkpt>
      <trkpt lat="44.18333" lon="6.67904">
        <ele>1829</ele>
        <time>2023-06-24T12:05:37.424Z</time>
      </trkpt>
      <trkpt lat="44.18336" lon="6.67898">
        <ele>1828.6</ele>
        <time>2023-06-24T12:05:44.712Z</time>
      </trkpt>
      <trkpt lat="44.18338" lon="6.67892">
        <ele>1828.3</ele>
        <time>2023-06-24T12:05:51.305Z</time>
      </trkpt>
      <trkpt lat="44.18339" lon="6.67885">
        <ele>1828.7</ele>
        <time>2023-06-24T12:06:01.769Z</time>
      </trkpt>
      <trkpt lat="44.18339" lon="6.67878">
        <ele>1829.2</ele>
        <time>2023-06-24T12:06:12.818Z</time>
      </trkpt>
      <trkpt lat="44.18344" lon="6.67874">
        <ele>1827.9</ele>
        <time>2023-06-24T12:06:20.828Z</time>
      </trkpt>
      <trkpt lat="44.18348" lon="6.6787">
        <ele>1826.6</ele>
        <time>2023-06-24T12:06:27.667Z</time>
      </trkpt>
      <trkpt lat="44.18353" lon="6.67862">
        <ele>1825.2</ele>
        <time>2023-06-24T12:06:38.240Z</time>
      </trkpt>
      <trkpt lat="44.18358" lon="6.67859">
        <ele>1823.2</ele>
        <time>2023-06-24T12:06:45.803Z</time>
      </trkpt>
      <trkpt lat="44.18363" lon="6.67855">
        <ele>1821.4</ele>
        <time>2023-06-24T12:06:53.813Z</time>
      </trkpt>
      <trkpt lat="44.18369" lon="6.67846">
        <ele>1819.4</ele>
        <time>2023-06-24T12:07:06.057Z</time>
      </trkpt>
      <trkpt lat="44.18369" lon="6.67838">
        <ele>1819.4</ele>
        <time>2023-06-24T12:07:15.167Z</time>
      </trkpt>
      <trkpt lat="44.18368" lon="6.6783">
        <ele>1819.4</ele>
        <time>2023-06-24T12:07:24.414Z</time>
      </trkpt>
      <trkpt lat="44.18367" lon="6.67823">
        <ele>1819.6</ele>
        <time>2023-06-24T12:07:33.608Z</time>
      </trkpt>
      <trkpt lat="44.18365" lon="6.67815">
        <ele>1819.8</ele>
        <time>2023-06-24T12:07:44.307Z</time>
      </trkpt>
      <trkpt lat="44.18365" lon="6.67809">
        <ele>1819.8</ele>
        <time>2023-06-24T12:07:51.139Z</time>
      </trkpt>
      <trkpt lat="44.18364" lon="6.67802">
        <ele>1819.7</ele>
        <time>2023-06-24T12:07:58.798Z</time>
      </trkpt>
      <trkpt lat="44.18366" lon="6.67796">
        <ele>1818.9</ele>
        <time>2023-06-24T12:08:05.391Z</time>
      </trkpt>
      <trkpt lat="44.18367" lon="6.6779">
        <ele>1818.1</ele>
        <time>2023-06-24T12:08:11.529Z</time>
      </trkpt>
      <trkpt lat="44.18371" lon="6.67782">
        <ele>1816.4</ele>
        <time>2023-06-24T12:08:21.246Z</time>
      </trkpt>
      <trkpt lat="44.18374" lon="6.67773">
        <ele>1814.9</ele>
        <time>2023-06-24T12:08:31.135Z</time>
      </trkpt>
      <trkpt lat="44.18375" lon="6.67766">
        <ele>1814.7</ele>
        <time>2023-06-24T12:08:38.362Z</time>
      </trkpt>
      <trkpt lat="44.18375" lon="6.67759">
        <ele>1814.5</ele>
        <time>2023-06-24T12:08:45.434Z</time>
      </trkpt>
      <trkpt lat="44.18375" lon="6.67753">
        <ele>1814.7</ele>
        <time>2023-06-24T12:08:53.351Z</time>
      </trkpt>
      <trkpt lat="44.18374" lon="6.67746">
        <ele>1815.3</ele>
        <time>2023-06-24T12:09:05.339Z</time>
      </trkpt>
      <trkpt lat="44.18378" lon="6.6774">
        <ele>1814.6</ele>
        <time>2023-06-24T12:09:13.502Z</time>
      </trkpt>
      <trkpt lat="44.18381" lon="6.67734">
        <ele>1813.9</ele>
        <time>2023-06-24T12:09:20.790Z</time>
      </trkpt>
      <trkpt lat="44.18385" lon="6.67728">
        <ele>1813.1</ele>
        <time>2023-06-24T12:09:28.952Z</time>
      </trkpt>
      <trkpt lat="44.18388" lon="6.67722">
        <ele>1812.4</ele>
        <time>2023-06-24T12:09:36.240Z</time>
      </trkpt>
      <trkpt lat="44.18393" lon="6.67714">
        <ele>1812.1</ele>
        <time>2023-06-24T12:09:46.975Z</time>
      </trkpt>
      <trkpt lat="44.18397" lon="6.67706">
        <ele>1811.8</ele>
        <time>2023-06-24T12:09:56.740Z</time>
      </trkpt>
      <trkpt lat="44.18399" lon="6.67699">
        <ele>1812.4</ele>
        <time>2023-06-24T12:10:09.121Z</time>
      </trkpt>
      <trkpt lat="44.184" lon="6.67691">
        <ele>1813</ele>
        <time>2023-06-24T12:10:22.093Z</time>
      </trkpt>
      <trkpt lat="44.18402" lon="6.67685">
        <ele>1813.6</ele>
        <time>2023-06-24T12:10:33.579Z</time>
      </trkpt>
      <trkpt lat="44.18403" lon="6.67679">
        <ele>1814.2</ele>
        <time>2023-06-24T12:10:44.643Z</time>
      </trkpt>
      <trkpt lat="44.18408" lon="6.67674">
        <ele>1813.7</ele>
        <time>2023-06-24T12:10:53.192Z</time>
      </trkpt>
      <trkpt lat="44.18412" lon="6.67668">
        <ele>1813.3</ele>
        <time>2023-06-24T12:11:01.354Z</time>
      </trkpt>
      <trkpt lat="44.18417" lon="6.67663">
        <ele>1812.8</ele>
        <time>2023-06-24T12:11:09.903Z</time>
      </trkpt>
      <trkpt lat="44.18421" lon="6.67657">
        <ele>1812.5</ele>
        <time>2023-06-24T12:11:18.066Z</time>
      </trkpt>
      <trkpt lat="44.18429" lon="6.67656">
        <ele>1810.6</ele>
        <time>2023-06-24T12:11:29.226Z</time>
      </trkpt>
      <trkpt lat="44.18436" lon="6.67654">
        <ele>1808.7</ele>
        <time>2023-06-24T12:11:39.154Z</time>
      </trkpt>
      <trkpt lat="44.18442" lon="6.67654">
        <ele>1807.1</ele>
        <time>2023-06-24T12:11:47.491Z</time>
      </trkpt>
      <trkpt lat="44.18448" lon="6.67653">
        <ele>1805.6</ele>
        <time>2023-06-24T12:11:55.887Z</time>
      </trkpt>
      <trkpt lat="44.18453" lon="6.67652">
        <ele>1804.8</ele>
        <time>2023-06-24T12:12:02.905Z</time>
      </trkpt>
      <trkpt lat="44.18457" lon="6.6765">
        <ele>1804</ele>
        <time>2023-06-24T12:12:08.810Z</time>
      </trkpt>
      <trkpt lat="44.18463" lon="6.6765">
        <ele>1802.6</ele>
        <time>2023-06-24T12:12:17.146Z</time>
      </trkpt>
      <trkpt lat="44.18469" lon="6.6765">
        <ele>1801.2</ele>
        <time>2023-06-24T12:12:25.483Z</time>
      </trkpt>
      <trkpt lat="44.18476" lon="6.67644">
        <ele>1800.4</ele>
        <time>2023-06-24T12:12:36.900Z</time>
      </trkpt>
      <trkpt lat="44.18481" lon="6.67642">
        <ele>1799.7</ele>
        <time>2023-06-24T12:12:44.127Z</time>
      </trkpt>
      <trkpt lat="44.18486" lon="6.67639">
        <ele>1799</ele>
        <time>2023-06-24T12:12:51.690Z</time>
      </trkpt>
      <trkpt lat="44.18492" lon="6.67637">
        <ele>1798</ele>
        <time>2023-06-24T12:13:00.262Z</time>
      </trkpt>
      <trkpt lat="44.18497" lon="6.67634">
        <ele>1797</ele>
        <time>2023-06-24T12:13:07.825Z</time>
      </trkpt>
      <trkpt lat="44.18503" lon="6.67632">
        <ele>1795.8</ele>
        <time>2023-06-24T12:13:16.396Z</time>
      </trkpt>
      <trkpt lat="44.18509" lon="6.6763">
        <ele>1794.7</ele>
        <time>2023-06-24T12:13:24.968Z</time>
      </trkpt>
      <trkpt lat="44.18515" lon="6.67627">
        <ele>1793.7</ele>
        <time>2023-06-24T12:13:33.824Z</time>
      </trkpt>
      <trkpt lat="44.1852" lon="6.67624">
        <ele>1792.8</ele>
        <time>2023-06-24T12:13:41.387Z</time>
      </trkpt>
      <trkpt lat="44.18525" lon="6.67619">
        <ele>1792.1</ele>
        <time>2023-06-24T12:13:49.936Z</time>
      </trkpt>
      <trkpt lat="44.1853" lon="6.67613">
        <ele>1791.5</ele>
        <time>2023-06-24T12:13:59.102Z</time>
      </trkpt>
      <trkpt lat="44.18534" lon="6.6761">
        <ele>1791</ele>
        <time>2023-06-24T12:14:05.412Z</time>
      </trkpt>
      <trkpt lat="44.18538" lon="6.67606">
        <ele>1790.5</ele>
        <time>2023-06-24T12:14:12.251Z</time>
      </trkpt>
      <trkpt lat="44.18544" lon="6.67604">
        <ele>1789.7</ele>
        <time>2023-06-24T12:14:20.823Z</time>
      </trkpt>
      <trkpt lat="44.18549" lon="6.67601">
        <ele>1788.9</ele>
        <time>2023-06-24T12:14:28.386Z</time>
      </trkpt>
      <trkpt lat="44.18554" lon="6.67599">
        <ele>1788.3</ele>
        <time>2023-06-24T12:14:35.613Z</time>
      </trkpt>
      <trkpt lat="44.18558" lon="6.67596">
        <ele>1787.6</ele>
        <time>2023-06-24T12:14:41.924Z</time>
      </trkpt>
      <trkpt lat="44.18563" lon="6.67593">
        <ele>1786.8</ele>
        <time>2023-06-24T12:14:49.487Z</time>
      </trkpt>
      <trkpt lat="44.18568" lon="6.6759">
        <ele>1785.9</ele>
        <time>2023-06-24T12:14:57.050Z</time>
      </trkpt>
      <trkpt lat="44.18572" lon="6.67587">
        <ele>1785.3</ele>
        <time>2023-06-24T12:15:03.361Z</time>
      </trkpt>
      <trkpt lat="44.18576" lon="6.67584">
        <ele>1784.6</ele>
        <time>2023-06-24T12:15:09.671Z</time>
      </trkpt>
      <trkpt lat="44.1858" lon="6.67574">
        <ele>1784.1</ele>
        <time>2023-06-24T12:15:21.080Z</time>
      </trkpt>
      <trkpt lat="44.18584" lon="6.67569">
        <ele>1783.4</ele>
        <time>2023-06-24T12:15:28.544Z</time>
      </trkpt>
      <trkpt lat="44.18588" lon="6.67564">
        <ele>1782.7</ele>
        <time>2023-06-24T12:15:36.008Z</time>
      </trkpt>
      <trkpt lat="44.18593" lon="6.67561">
        <ele>1781.7</ele>
        <time>2023-06-24T12:15:43.571Z</time>
      </trkpt>
      <trkpt lat="44.18598" lon="6.67558">
        <ele>1780.7</ele>
        <time>2023-06-24T12:15:51.134Z</time>
      </trkpt>
      <trkpt lat="44.18602" lon="6.67552">
        <ele>1780.2</ele>
        <time>2023-06-24T12:15:59.296Z</time>
      </trkpt>
      <trkpt lat="44.18605" lon="6.67546">
        <ele>1779.7</ele>
        <time>2023-06-24T12:16:06.584Z</time>
      </trkpt>
      <trkpt lat="44.1861" lon="6.67541">
        <ele>1778.9</ele>
        <time>2023-06-24T12:16:15.133Z</time>
      </trkpt>
      <trkpt lat="44.18614" lon="6.67536">
        <ele>1778.1</ele>
        <time>2023-06-24T12:16:22.597Z</time>
      </trkpt>
      <trkpt lat="44.18618" lon="6.67533">
        <ele>1777.4</ele>
        <time>2023-06-24T12:16:28.907Z</time>
      </trkpt>
      <trkpt lat="44.18622" lon="6.67529">
        <ele>1776.6</ele>
        <time>2023-06-24T12:16:35.746Z</time>
      </trkpt>
      <trkpt lat="44.18623" lon="6.67519">
        <ele>1776.4</ele>
        <time>2023-06-24T12:16:46.321Z</time>
      </trkpt>
      <trkpt lat="44.18627" lon="6.67512">
        <ele>1775.7</ele>
        <time>2023-06-24T12:16:55.239Z</time>
      </trkpt>
      <trkpt lat="44.1863" lon="6.67504">
        <ele>1774.9</ele>
        <time>2023-06-24T12:17:04.234Z</time>
      </trkpt>
      <trkpt lat="44.18634" lon="6.67493">
        <ele>1774.1</ele>
        <time>2023-06-24T12:17:16.523Z</time>
      </trkpt>
      <trkpt lat="44.18637" lon="6.67485">
        <ele>1773.4</ele>
        <time>2023-06-24T12:17:25.518Z</time>
      </trkpt>
      <trkpt lat="44.1864" lon="6.67476">
        <ele>1772.8</ele>
        <time>2023-06-24T12:17:35.406Z</time>
      </trkpt>
      <trkpt lat="44.18646" lon="6.67472">
        <ele>1771.6</ele>
        <time>2023-06-24T12:17:44.647Z</time>
      </trkpt>
      <trkpt lat="44.18651" lon="6.67468">
        <ele>1770.5</ele>
        <time>2023-06-24T12:17:52.656Z</time>
      </trkpt>
      <trkpt lat="44.18655" lon="6.67459">
        <ele>1769.7</ele>
        <time>2023-06-24T12:18:03.206Z</time>
      </trkpt>
      <trkpt lat="44.18658" lon="6.67448">
        <ele>1769.1</ele>
        <time>2023-06-24T12:18:14.931Z</time>
      </trkpt>
      <trkpt lat="44.18663" lon="6.67442">
        <ele>1768.1</ele>
        <time>2023-06-24T12:18:24.097Z</time>
      </trkpt>
      <trkpt lat="44.18667" lon="6.67436">
        <ele>1767.2</ele>
        <time>2023-06-24T12:18:32.259Z</time>
      </trkpt>
      <trkpt lat="44.18671" lon="6.67432">
        <ele>1766.6</ele>
        <time>2023-06-24T12:18:39.098Z</time>
      </trkpt>
      <trkpt lat="44.18674" lon="6.67427">
        <ele>1766</ele>
        <time>2023-06-24T12:18:45.594Z</time>
      </trkpt>
      <trkpt lat="44.18676" lon="6.67419">
        <ele>1766</ele>
        <time>2023-06-24T12:18:55.241Z</time>
      </trkpt>
      <trkpt lat="44.18677" lon="6.6741">
        <ele>1766.2</ele>
        <time>2023-06-24T12:19:06.657Z</time>
      </trkpt>
      <trkpt lat="44.1868" lon="6.67404">
        <ele>1766</ele>
        <time>2023-06-24T12:19:14.084Z</time>
      </trkpt>
      <trkpt lat="44.18683" lon="6.67398">
        <ele>1765.8</ele>
        <time>2023-06-24T12:19:21.510Z</time>
      </trkpt>
      <trkpt lat="44.18687" lon="6.67387">
        <ele>1765.8</ele>
        <time>2023-06-24T12:19:35.554Z</time>
      </trkpt>
      <trkpt lat="44.18692" lon="6.67381">
        <ele>1765.6</ele>
        <time>2023-06-24T12:19:45.112Z</time>
      </trkpt>
      <trkpt lat="44.18696" lon="6.67374">
        <ele>1765.3</ele>
        <time>2023-06-24T12:19:54.030Z</time>
      </trkpt>
      <trkpt lat="44.18699" lon="6.67368">
        <ele>1765.4</ele>
        <time>2023-06-24T12:20:02.869Z</time>
      </trkpt>
      <trkpt lat="44.18701" lon="6.67362">
        <ele>1765.5</ele>
        <time>2023-06-24T12:20:10.915Z</time>
      </trkpt>
      <trkpt lat="44.18708" lon="6.6736">
        <ele>1764.3</ele>
        <time>2023-06-24T12:20:20.843Z</time>
      </trkpt>
      <trkpt lat="44.18714" lon="6.67358">
        <ele>1763.1</ele>
        <time>2023-06-24T12:20:29.414Z</time>
      </trkpt>
      <trkpt lat="44.18718" lon="6.67354">
        <ele>1762.8</ele>
        <time>2023-06-24T12:20:36.253Z</time>
      </trkpt>
      <trkpt lat="44.18721" lon="6.67349">
        <ele>1762.6</ele>
        <time>2023-06-24T12:20:42.783Z</time>
      </trkpt>
      <trkpt lat="44.18723" lon="6.67342">
        <ele>1762.9</ele>
        <time>2023-06-24T12:20:53.024Z</time>
      </trkpt>
      <trkpt lat="44.18725" lon="6.67335">
        <ele>1763.2</ele>
        <time>2023-06-24T12:21:03.265Z</time>
      </trkpt>
      <trkpt lat="44.18729" lon="6.67331">
        <ele>1763</ele>
        <time>2023-06-24T12:21:10.184Z</time>
      </trkpt>
      <trkpt lat="44.18732" lon="6.67327">
        <ele>1762.7</ele>
        <time>2023-06-24T12:21:15.951Z</time>
      </trkpt>
      <trkpt lat="44.18737" lon="6.67317">
        <ele>1762.8</ele>
        <time>2023-06-24T12:21:30.333Z</time>
      </trkpt>
      <trkpt lat="44.18742" lon="6.67307">
        <ele>1762.8</ele>
        <time>2023-06-24T12:21:44.215Z</time>
      </trkpt>
      <trkpt lat="44.18745" lon="6.67302">
        <ele>1763</ele>
        <time>2023-06-24T12:21:52.714Z</time>
      </trkpt>
      <trkpt lat="44.18747" lon="6.67296">
        <ele>1763.1</ele>
        <time>2023-06-24T12:22:00.760Z</time>
      </trkpt>
      <trkpt lat="44.18749" lon="6.6729">
        <ele>1763.5</ele>
        <time>2023-06-24T12:22:10.665Z</time>
      </trkpt>
      <trkpt lat="44.18751" lon="6.67284">
        <ele>1763.9</ele>
        <time>2023-06-24T12:22:20.571Z</time>
      </trkpt>
      <trkpt lat="44.18755" lon="6.67278">
        <ele>1763.9</ele>
        <time>2023-06-24T12:22:29.900Z</time>
      </trkpt>
      <trkpt lat="44.18759" lon="6.67272">
        <ele>1763.8</ele>
        <time>2023-06-24T12:22:38.757Z</time>
      </trkpt>
      <trkpt lat="44.18763" lon="6.67261">
        <ele>1764.3</ele>
        <time>2023-06-24T12:22:55.575Z</time>
      </trkpt>
      <trkpt lat="44.18768" lon="6.67255">
        <ele>1763.9</ele>
        <time>2023-06-24T12:23:04.741Z</time>
      </trkpt>
      <trkpt lat="44.18772" lon="6.6725">
        <ele>1763.5</ele>
        <time>2023-06-24T12:23:12.204Z</time>
      </trkpt>
      <trkpt lat="44.18777" lon="6.67244">
        <ele>1763</ele>
        <time>2023-06-24T12:23:21.369Z</time>
      </trkpt>
      <trkpt lat="44.18781" lon="6.67238">
        <ele>1762.5</ele>
        <time>2023-06-24T12:23:29.532Z</time>
      </trkpt>
      <trkpt lat="44.18787" lon="6.67232">
        <ele>1761.7</ele>
        <time>2023-06-24T12:23:39.790Z</time>
      </trkpt>
      <trkpt lat="44.18791" lon="6.67228">
        <ele>1761.3</ele>
        <time>2023-06-24T12:23:46.629Z</time>
      </trkpt>
      <trkpt lat="44.18794" lon="6.67223">
        <ele>1760.8</ele>
        <time>2023-06-24T12:23:53.125Z</time>
      </trkpt>
      <trkpt lat="44.18798" lon="6.67219">
        <ele>1760.5</ele>
        <time>2023-06-24T12:23:59.964Z</time>
      </trkpt>
      <trkpt lat="44.18801" lon="6.67214">
        <ele>1760.1</ele>
        <time>2023-06-24T12:24:06.459Z</time>
      </trkpt>
      <trkpt lat="44.18804" lon="6.67209">
        <ele>1759.9</ele>
        <time>2023-06-24T12:24:12.989Z</time>
      </trkpt>
      <trkpt lat="44.18807" lon="6.67203">
        <ele>1759.7</ele>
        <time>2023-06-24T12:24:20.416Z</time>
      </trkpt>
      <trkpt lat="44.18813" lon="6.67199">
        <ele>1758.7</ele>
        <time>2023-06-24T12:24:29.656Z</time>
      </trkpt>
      <trkpt lat="44.18819" lon="6.67194">
        <ele>1757.7</ele>
        <time>2023-06-24T12:24:39.368Z</time>
      </trkpt>
      <trkpt lat="44.18821" lon="6.67187">
        <ele>1758.3</ele>
        <time>2023-06-24T12:24:51.748Z</time>
      </trkpt>
      <trkpt lat="44.18821" lon="6.67182">
        <ele>1759.1</ele>
        <time>2023-06-24T12:25:04.291Z</time>
      </trkpt>
      <trkpt lat="44.18826" lon="6.67179">
        <ele>1758.4</ele>
        <time>2023-06-24T12:25:11.854Z</time>
      </trkpt>
      <trkpt lat="44.1883" lon="6.67176">
        <ele>1757.6</ele>
        <time>2023-06-24T12:25:18.165Z</time>
      </trkpt>
      <trkpt lat="44.18834" lon="6.67173">
        <ele>1757</ele>
        <time>2023-06-24T12:25:24.475Z</time>
      </trkpt>
      <trkpt lat="44.18838" lon="6.67169">
        <ele>1756.5</ele>
        <time>2023-06-24T12:25:31.314Z</time>
      </trkpt>
      <trkpt lat="44.18835" lon="6.67179">
        <ele>1755.8</ele>
        <time>2023-06-24T12:25:42.114Z</time>
      </trkpt>
      <trkpt lat="44.18832" lon="6.67189">
        <ele>1755.1</ele>
        <time>2023-06-24T12:25:52.914Z</time>
      </trkpt>
      <trkpt lat="44.18829" lon="6.67199">
        <ele>1754.7</ele>
        <time>2023-06-24T12:26:03.714Z</time>
      </trkpt>
      <trkpt lat="44.18826" lon="6.67209">
        <ele>1754.7</ele>
        <time>2023-06-24T12:26:16.057Z</time>
      </trkpt>
      <trkpt lat="44.18823" lon="6.67218">
        <ele>1754.6</ele>
        <time>2023-06-24T12:26:26.884Z</time>
      </trkpt>
      <trkpt lat="44.18819" lon="6.67224">
        <ele>1754.9</ele>
        <time>2023-06-24T12:26:37.856Z</time>
      </trkpt>
      <trkpt lat="44.18817" lon="6.67231">
        <ele>1754.8</ele>
        <time>2023-06-24T12:26:45.966Z</time>
      </trkpt>
      <trkpt lat="44.18815" lon="6.67238">
        <ele>1754.6</ele>
        <time>2023-06-24T12:26:53.642Z</time>
      </trkpt>
      <trkpt lat="44.18811" lon="6.67244">
        <ele>1755.3</ele>
        <time>2023-06-24T12:27:07.496Z</time>
      </trkpt>
      <trkpt lat="44.18806" lon="6.67249">
        <ele>1756</ele>
        <time>2023-06-24T12:27:21.730Z</time>
      </trkpt>
      <trkpt lat="44.18802" lon="6.67257">
        <ele>1756.2</ele>
        <time>2023-06-24T12:27:33.876Z</time>
      </trkpt>
      <trkpt lat="44.18797" lon="6.67264">
        <ele>1756.3</ele>
        <time>2023-06-24T12:27:45.631Z</time>
      </trkpt>
      <trkpt lat="44.18793" lon="6.67269">
        <ele>1756.7</ele>
        <time>2023-06-24T12:27:56.477Z</time>
      </trkpt>
      <trkpt lat="44.18789" lon="6.67274">
        <ele>1757</ele>
        <time>2023-06-24T12:28:06.669Z</time>
      </trkpt>
      <trkpt lat="44.18788" lon="6.67281">
        <ele>1756.6</ele>
        <time>2023-06-24T12:28:13.780Z</time>
      </trkpt>
      <trkpt lat="44.18786" lon="6.67287">
        <ele>1756.2</ele>
        <time>2023-06-24T12:28:20.372Z</time>
      </trkpt>
      <trkpt lat="44.18781" lon="6.67297">
        <ele>1756.2</ele>
        <time>2023-06-24T12:28:34.254Z</time>
      </trkpt>
      <trkpt lat="44.18779" lon="6.67308">
        <ele>1755.6</ele>
        <time>2023-06-24T12:28:45.560Z</time>
      </trkpt>
      <trkpt lat="44.18778" lon="6.67316">
        <ele>1755.3</ele>
        <time>2023-06-24T12:28:53.651Z</time>
      </trkpt>
      <trkpt lat="44.18776" lon="6.67324">
        <ele>1754.9</ele>
        <time>2023-06-24T12:29:02.092Z</time>
      </trkpt>
      <trkpt lat="44.1877" lon="6.67332">
        <ele>1755.2</ele>
        <time>2023-06-24T12:29:16.862Z</time>
      </trkpt>
      <trkpt lat="44.18768" lon="6.67338">
        <ele>1754.9</ele>
        <time>2023-06-24T12:29:23.455Z</time>
      </trkpt>
      <trkpt lat="44.18766" lon="6.67344">
        <ele>1754.5</ele>
        <time>2023-06-24T12:29:30.047Z</time>
      </trkpt>
      <trkpt lat="44.18764" lon="6.6735">
        <ele>1754.3</ele>
        <time>2023-06-24T12:29:36.686Z</time>
      </trkpt>
      <trkpt lat="44.18761" lon="6.67356">
        <ele>1754</ele>
        <time>2023-06-24T12:29:43.974Z</time>
      </trkpt>
      <trkpt lat="44.18759" lon="6.67362">
        <ele>1753.7</ele>
        <time>2023-06-24T12:29:50.566Z</time>
      </trkpt>
      <trkpt lat="44.18756" lon="6.67368">
        <ele>1753.6</ele>
        <time>2023-06-24T12:29:58.426Z</time>
      </trkpt>
      <trkpt lat="44.18752" lon="6.67374">
        <ele>1753.9</ele>
        <time>2023-06-24T12:30:09.398Z</time>
      </trkpt>
      <trkpt lat="44.18747" lon="6.67379">
        <ele>1754.3</ele>
        <time>2023-06-24T12:30:21.433Z</time>
      </trkpt>
      <trkpt lat="44.18743" lon="6.67382">
        <ele>1755</ele>
        <time>2023-06-24T12:30:33.601Z</time>
      </trkpt>
      <trkpt lat="44.18738" lon="6.67384">
        <ele>1755.6</ele>
        <time>2023-06-24T12:30:45.702Z</time>
      </trkpt>
      <trkpt lat="44.18735" lon="6.67389">
        <ele>1755.8</ele>
        <time>2023-06-24T12:30:54.201Z</time>
      </trkpt>
      <trkpt lat="44.18731" lon="6.67394">
        <ele>1756.1</ele>
        <time>2023-06-24T12:31:04.393Z</time>
      </trkpt>
      <trkpt lat="44.18731" lon="6.67405">
        <ele>1755.4</ele>
        <time>2023-06-24T12:31:15.353Z</time>
      </trkpt>
      <trkpt lat="44.1873" lon="6.67415">
        <ele>1754.7</ele>
        <time>2023-06-24T12:31:25.413Z</time>
      </trkpt>
      <trkpt lat="44.18731" lon="6.67424">
        <ele>1754.5</ele>
        <time>2023-06-24T12:31:34.867Z</time>
      </trkpt>
      <trkpt lat="44.18731" lon="6.67433">
        <ele>1754.4</ele>
        <time>2023-06-24T12:31:44.642Z</time>
      </trkpt>
      <trkpt lat="44.18733" lon="6.67445">
        <ele>1754.1</ele>
        <time>2023-06-24T12:31:57.305Z</time>
      </trkpt>
      <trkpt lat="44.18735" lon="6.67452">
        <ele>1753.9</ele>
        <time>2023-06-24T12:32:04.981Z</time>
      </trkpt>
      <trkpt lat="44.18736" lon="6.67459">
        <ele>1753.8</ele>
        <time>2023-06-24T12:32:12.639Z</time>
      </trkpt>
      <trkpt lat="44.18738" lon="6.67467">
        <ele>1753.7</ele>
        <time>2023-06-24T12:32:21.814Z</time>
      </trkpt>
      <trkpt lat="44.18739" lon="6.67474">
        <ele>1753.6</ele>
        <time>2023-06-24T12:32:29.472Z</time>
      </trkpt>
      <trkpt lat="44.1874" lon="6.67483">
        <ele>1753.8</ele>
        <time>2023-06-24T12:32:40.889Z</time>
      </trkpt>
      <trkpt lat="44.18741" lon="6.67491">
        <ele>1754</ele>
        <time>2023-06-24T12:32:51.190Z</time>
      </trkpt>
      <trkpt lat="44.18742" lon="6.67498">
        <ele>1754.1</ele>
        <time>2023-06-24T12:32:59.828Z</time>
      </trkpt>
      <trkpt lat="44.18743" lon="6.67505">
        <ele>1754.1</ele>
        <time>2023-06-24T12:33:07.955Z</time>
      </trkpt>
      <trkpt lat="44.18745" lon="6.67512">
        <ele>1754.1</ele>
        <time>2023-06-24T12:33:16.535Z</time>
      </trkpt>
      <trkpt lat="44.18746" lon="6.67519">
        <ele>1754.2</ele>
        <time>2023-06-24T12:33:25.172Z</time>
      </trkpt>
      <trkpt lat="44.18746" lon="6.67526">
        <ele>1754.4</ele>
        <time>2023-06-24T12:33:34.211Z</time>
      </trkpt>
      <trkpt lat="44.18746" lon="6.67533">
        <ele>1754.6</ele>
        <time>2023-06-24T12:33:43.250Z</time>
      </trkpt>
      <trkpt lat="44.18746" lon="6.67542">
        <ele>1755</ele>
        <time>2023-06-24T12:33:55.746Z</time>
      </trkpt>
      <trkpt lat="44.18745" lon="6.67551">
        <ele>1755.4</ele>
        <time>2023-06-24T12:34:08.361Z</time>
      </trkpt>
      <trkpt lat="44.18743" lon="6.6756">
        <ele>1755.9</ele>
        <time>2023-06-24T12:34:21.982Z</time>
      </trkpt>
      <trkpt lat="44.18741" lon="6.67568">
        <ele>1756.4</ele>
        <time>2023-06-24T12:34:34.579Z</time>
      </trkpt>
      <trkpt lat="44.18737" lon="6.67575">
        <ele>1757.1</ele>
        <time>2023-06-24T12:34:49.183Z</time>
      </trkpt>
      <trkpt lat="44.18733" lon="6.67581">
        <ele>1757.8</ele>
        <time>2023-06-24T12:35:03.037Z</time>
      </trkpt>
      <trkpt lat="44.1873" lon="6.67587">
        <ele>1758.1</ele>
        <time>2023-06-24T12:35:13.033Z</time>
      </trkpt>
      <trkpt lat="44.18727" lon="6.67593">
        <ele>1758.4</ele>
        <time>2023-06-24T12:35:23.030Z</time>
      </trkpt>
      <trkpt lat="44.18724" lon="6.67599">
        <ele>1758.8</ele>
        <time>2023-06-24T12:35:33.685Z</time>
      </trkpt>
      <trkpt lat="44.18721" lon="6.67604">
        <ele>1759.1</ele>
        <time>2023-06-24T12:35:42.803Z</time>
      </trkpt>
      <trkpt lat="44.18722" lon="6.67611">
        <ele>1759</ele>
        <time>2023-06-24T12:35:50.462Z</time>
      </trkpt>
      <trkpt lat="44.18723" lon="6.67618">
        <ele>1758.6</ele>
        <time>2023-06-24T12:35:57.573Z</time>
      </trkpt>
      <trkpt lat="44.18724" lon="6.67626">
        <ele>1758.3</ele>
        <time>2023-06-24T12:36:05.664Z</time>
      </trkpt>
      <trkpt lat="44.18724" lon="6.67634">
        <ele>1758</ele>
        <time>2023-06-24T12:36:13.635Z</time>
      </trkpt>
      <trkpt lat="44.18724" lon="6.67642">
        <ele>1757.7</ele>
        <time>2023-06-24T12:36:21.605Z</time>
      </trkpt>
      <trkpt lat="44.18723" lon="6.67649">
        <ele>1757.2</ele>
        <time>2023-06-24T12:36:28.717Z</time>
      </trkpt>
      <trkpt lat="44.18722" lon="6.67656">
        <ele>1756.9</ele>
        <time>2023-06-24T12:36:35.828Z</time>
      </trkpt>
      <trkpt lat="44.1872" lon="6.67662">
        <ele>1756.6</ele>
        <time>2023-06-24T12:36:42.420Z</time>
      </trkpt>
      <trkpt lat="44.18714" lon="6.67665">
        <ele>1757</ele>
        <time>2023-06-24T12:36:54.795Z</time>
      </trkpt>
      <trkpt lat="44.18716" lon="6.67672">
        <ele>1756.3</ele>
        <time>2023-06-24T12:37:02.302Z</time>
      </trkpt>
      <trkpt lat="44.18717" lon="6.67684">
        <ele>1755.3</ele>
        <time>2023-06-24T12:37:14.339Z</time>
      </trkpt>
      <trkpt lat="44.18716" lon="6.67696">
        <ele>1754.6</ele>
        <time>2023-06-24T12:37:26.375Z</time>
      </trkpt>
      <trkpt lat="44.18712" lon="6.67702">
        <ele>1754.6</ele>
        <time>2023-06-24T12:37:35.704Z</time>
      </trkpt>
      <trkpt lat="44.18707" lon="6.67708">
        <ele>1754.7</ele>
        <time>2023-06-24T12:37:46.683Z</time>
      </trkpt>
      <trkpt lat="44.18714" lon="6.67715">
        <ele>1753.4</ele>
        <time>2023-06-24T12:37:58.652Z</time>
      </trkpt>
      <trkpt lat="44.18712" lon="6.67723">
        <ele>1753.1</ele>
        <time>2023-06-24T12:38:07.093Z</time>
      </trkpt>
      <trkpt lat="44.18709" lon="6.6773">
        <ele>1752.6</ele>
        <time>2023-06-24T12:38:15.218Z</time>
      </trkpt>
      <trkpt lat="44.18707" lon="6.67734">
        <ele>1752.4</ele>
        <time>2023-06-24T12:38:20.076Z</time>
      </trkpt>
      <trkpt lat="44.18702" lon="6.67736">
        <ele>1752.7</ele>
        <time>2023-06-24T12:38:30.006Z</time>
      </trkpt>
      <trkpt lat="44.18694" lon="6.67734">
        <ele>1753.8</ele>
        <time>2023-06-24T12:38:50.325Z</time>
      </trkpt>
      <trkpt lat="44.18696" lon="6.67745">
        <ele>1752.4</ele>
        <time>2023-06-24T12:39:01.632Z</time>
      </trkpt>
      <trkpt lat="44.18696" lon="6.67744">
        <ele>1752.5</ele>
        <time>2023-06-24T12:39:03.452Z</time>
      </trkpt>
      <trkpt lat="44.18695" lon="6.67736">
        <ele>1753.5</ele>
        <time>2023-06-24T12:39:20.120Z</time>
      </trkpt>
      <trkpt lat="44.18691" lon="6.67739">
        <ele>1753.7</ele>
        <time>2023-06-24T12:39:28.411Z</time>
      </trkpt>
      <trkpt lat="44.18695" lon="6.67738">
        <ele>1753.2</ele>
        <time>2023-06-24T12:39:34.057Z</time>
      </trkpt>
      <trkpt lat="44.18698" lon="6.67739">
        <ele>1752.8</ele>
        <time>2023-06-24T12:39:38.343Z</time>
      </trkpt>
      <trkpt lat="44.18697" lon="6.67735">
        <ele>1753.3</ele>
        <time>2023-06-24T12:39:46.807Z</time>
      </trkpt>
      <trkpt lat="44.18697" lon="6.67731">
        <ele>1753.8</ele>
        <time>2023-06-24T12:39:55.098Z</time>
      </trkpt>
      <trkpt lat="44.18699" lon="6.67723">
        <ele>1754.5</ele>
        <time>2023-06-24T12:40:09.226Z</time>
      </trkpt>
      <trkpt lat="44.18701" lon="6.67714">
        <ele>1754.9</ele>
        <time>2023-06-24T12:40:22.189Z</time>
      </trkpt>
      <trkpt lat="44.18702" lon="6.67705">
        <ele>1755.4</ele>
        <time>2023-06-24T12:40:35.469Z</time>
      </trkpt>
      <trkpt lat="44.18703" lon="6.67696">
        <ele>1756</ele>
        <time>2023-06-24T12:40:49.463Z</time>
      </trkpt>
      <trkpt lat="44.18704" lon="6.67684">
        <ele>1756.7</ele>
        <time>2023-06-24T12:41:07.335Z</time>
      </trkpt>
      <trkpt lat="44.18706" lon="6.67678">
        <ele>1757</ele>
        <time>2023-06-24T12:41:16.560Z</time>
      </trkpt>
      <trkpt lat="44.18707" lon="6.67671">
        <ele>1757.3</ele>
        <time>2023-06-24T12:41:26.360Z</time>
      </trkpt>
      <trkpt lat="44.1871" lon="6.67662">
        <ele>1757.7</ele>
        <time>2023-06-24T12:41:39.880Z</time>
      </trkpt>
      <trkpt lat="44.18713" lon="6.67653">
        <ele>1758</ele>
        <time>2023-06-24T12:41:52.792Z</time>
      </trkpt>
      <trkpt lat="44.18713" lon="6.67644">
        <ele>1758.7</ele>
        <time>2023-06-24T12:42:07.445Z</time>
      </trkpt>
      <trkpt lat="44.18712" lon="6.67635">
        <ele>1759.2</ele>
        <time>2023-06-24T12:42:20.725Z</time>
      </trkpt>
      <trkpt lat="44.18714" lon="6.67623">
        <ele>1759.5</ele>
        <time>2023-06-24T12:42:36.334Z</time>
      </trkpt>
      <trkpt lat="44.18715" lon="6.67616">
        <ele>1759.7</ele>
        <time>2023-06-24T12:42:45.527Z</time>
      </trkpt>
      <trkpt lat="44.18715" lon="6.67609">
        <ele>1759.8</ele>
        <time>2023-06-24T12:42:54.009Z</time>
      </trkpt>
      <trkpt lat="44.18717" lon="6.67602">
        <ele>1759.6</ele>
        <time>2023-06-24T12:43:01.684Z</time>
      </trkpt>
      <trkpt lat="44.18719" lon="6.67595">
        <ele>1759.3</ele>
        <time>2023-06-24T12:43:09.192Z</time>
      </trkpt>
      <trkpt lat="44.18722" lon="6.6759">
        <ele>1759.1</ele>
        <time>2023-06-24T12:43:15.722Z</time>
      </trkpt>
      <trkpt lat="44.18724" lon="6.67584">
        <ele>1758.8</ele>
        <time>2023-06-24T12:43:22.314Z</time>
      </trkpt>
      <trkpt lat="44.18727" lon="6.67577">
        <ele>1758.3</ele>
        <time>2023-06-24T12:43:30.439Z</time>
      </trkpt>
      <trkpt lat="44.18729" lon="6.6757">
        <ele>1757.8</ele>
        <time>2023-06-24T12:43:37.947Z</time>
      </trkpt>
      <trkpt lat="44.18733" lon="6.67565">
        <ele>1757.2</ele>
        <time>2023-06-24T12:43:45.410Z</time>
      </trkpt>
      <trkpt lat="44.18737" lon="6.67559">
        <ele>1756.5</ele>
        <time>2023-06-24T12:43:53.573Z</time>
      </trkpt>
      <trkpt lat="44.18739" lon="6.67548">
        <ele>1755.9</ele>
        <time>2023-06-24T12:44:04.879Z</time>
      </trkpt>
      <trkpt lat="44.18739" lon="6.6754">
        <ele>1755.7</ele>
        <time>2023-06-24T12:44:13.080Z</time>
      </trkpt>
      <trkpt lat="44.18738" lon="6.67532">
        <ele>1755.4</ele>
        <time>2023-06-24T12:44:21.171Z</time>
      </trkpt>
      <trkpt lat="44.18737" lon="6.67524">
        <ele>1755.4</ele>
        <time>2023-06-24T12:44:30.418Z</time>
      </trkpt>
      <trkpt lat="44.18735" lon="6.67516">
        <ele>1755.4</ele>
        <time>2023-06-24T12:44:40.065Z</time>
      </trkpt>
      <trkpt lat="44.18736" lon="6.67508">
        <ele>1755.2</ele>
        <time>2023-06-24T12:44:48.402Z</time>
      </trkpt>
      <trkpt lat="44.18737" lon="6.675">
        <ele>1754.9</ele>
        <time>2023-06-24T12:44:56.493Z</time>
      </trkpt>
      <trkpt lat="44.18737" lon="6.67492">
        <ele>1754.6</ele>
        <time>2023-06-24T12:45:04.463Z</time>
      </trkpt>
      <trkpt lat="44.18737" lon="6.67483">
        <ele>1754.3</ele>
        <time>2023-06-24T12:45:13.430Z</time>
      </trkpt>
      <trkpt lat="44.18735" lon="6.67477">
        <ele>1754.3</ele>
        <time>2023-06-24T12:45:20.965Z</time>
      </trkpt>
      <trkpt lat="44.18733" lon="6.6747">
        <ele>1754.4</ele>
        <time>2023-06-24T12:45:30.054Z</time>
      </trkpt>
      <trkpt lat="44.18731" lon="6.67462">
        <ele>1754.7</ele>
        <time>2023-06-24T12:45:41.338Z</time>
      </trkpt>
      <trkpt lat="44.18728" lon="6.67454">
        <ele>1755</ele>
        <time>2023-06-24T12:45:53.244Z</time>
      </trkpt>
      <trkpt lat="44.18725" lon="6.67446">
        <ele>1755.5</ele>
        <time>2023-06-24T12:46:06.438Z</time>
      </trkpt>
      <trkpt lat="44.18722" lon="6.67438">
        <ele>1756</ele>
        <time>2023-06-24T12:46:19.633Z</time>
      </trkpt>
      <trkpt lat="44.18722" lon="6.6743">
        <ele>1756</ele>
        <time>2023-06-24T12:46:28.742Z</time>
      </trkpt>
      <trkpt lat="44.18722" lon="6.67422">
        <ele>1756</ele>
        <time>2023-06-24T12:46:37.851Z</time>
      </trkpt>
      <trkpt lat="44.18722" lon="6.67415">
        <ele>1756.3</ele>
        <time>2023-06-24T12:46:47.500Z</time>
      </trkpt>
      <trkpt lat="44.18721" lon="6.67408">
        <ele>1756.9</ele>
        <time>2023-06-24T12:46:59.487Z</time>
      </trkpt>
      <trkpt lat="44.18725" lon="6.674">
        <ele>1756.8</ele>
        <time>2023-06-24T12:47:10.118Z</time>
      </trkpt>
      <trkpt lat="44.18728" lon="6.67391">
        <ele>1756.8</ele>
        <time>2023-06-24T12:47:21.419Z</time>
      </trkpt>
      <trkpt lat="44.18732" lon="6.67385">
        <ele>1756.6</ele>
        <time>2023-06-24T12:47:29.838Z</time>
      </trkpt>
      <trkpt lat="44.18736" lon="6.67379">
        <ele>1756.4</ele>
        <time>2023-06-24T12:47:38.256Z</time>
      </trkpt>
      <trkpt lat="44.18742" lon="6.67374">
        <ele>1755.8</ele>
        <time>2023-06-24T12:47:47.968Z</time>
      </trkpt>
      <trkpt lat="44.18747" lon="6.67368">
        <ele>1755.1</ele>
        <time>2023-06-24T12:47:57.133Z</time>
      </trkpt>
      <trkpt lat="44.1875" lon="6.67362">
        <ele>1755</ele>
        <time>2023-06-24T12:48:04.993Z</time>
      </trkpt>
      <trkpt lat="44.18752" lon="6.67356">
        <ele>1755.3</ele>
        <time>2023-06-24T12:48:14.218Z</time>
      </trkpt>
      <trkpt lat="44.18755" lon="6.6735">
        <ele>1755.6</ele>
        <time>2023-06-24T12:48:24.215Z</time>
      </trkpt>
      <trkpt lat="44.18757" lon="6.67344">
        <ele>1755.8</ele>
        <time>2023-06-24T12:48:32.823Z</time>
      </trkpt>
      <trkpt lat="44.18759" lon="6.67338">
        <ele>1756.3</ele>
        <time>2023-06-24T12:48:43.479Z</time>
      </trkpt>
      <trkpt lat="44.18761" lon="6.67331">
        <ele>1756.6</ele>
        <time>2023-06-24T12:48:53.720Z</time>
      </trkpt>
      <trkpt lat="44.18764" lon="6.67322">
        <ele>1757.1</ele>
        <time>2023-06-24T12:49:07.887Z</time>
      </trkpt>
      <trkpt lat="44.18766" lon="6.67313">
        <ele>1757.5</ele>
        <time>2023-06-24T12:49:20.850Z</time>
      </trkpt>
      <trkpt lat="44.18767" lon="6.67306">
        <ele>1757.9</ele>
        <time>2023-06-24T12:49:31.314Z</time>
      </trkpt>
      <trkpt lat="44.18768" lon="6.67298">
        <ele>1758.7</ele>
        <time>2023-06-24T12:49:45.981Z</time>
      </trkpt>
      <trkpt lat="44.1877" lon="6.67292">
        <ele>1759.1</ele>
        <time>2023-06-24T12:49:55.886Z</time>
      </trkpt>
      <trkpt lat="44.18771" lon="6.67286">
        <ele>1759.5</ele>
        <time>2023-06-24T12:50:05.309Z</time>
      </trkpt>
      <trkpt lat="44.18774" lon="6.67279">
        <ele>1759.8</ele>
        <time>2023-06-24T12:50:16.239Z</time>
      </trkpt>
      <trkpt lat="44.18776" lon="6.67272">
        <ele>1760</ele>
        <time>2023-06-24T12:50:25.880Z</time>
      </trkpt>
      <trkpt lat="44.1878" lon="6.67265">
        <ele>1760</ele>
        <time>2023-06-24T12:50:36.072Z</time>
      </trkpt>
      <trkpt lat="44.18783" lon="6.67258">
        <ele>1760</ele>
        <time>2023-06-24T12:50:45.358Z</time>
      </trkpt>
      <trkpt lat="44.18788" lon="6.67253">
        <ele>1759.5</ele>
        <time>2023-06-24T12:50:53.907Z</time>
      </trkpt>
      <trkpt lat="44.18793" lon="6.67247">
        <ele>1759</ele>
        <time>2023-06-24T12:51:03.072Z</time>
      </trkpt>
      <trkpt lat="44.18797" lon="6.67241">
        <ele>1758.8</ele>
        <time>2023-06-24T12:51:11.490Z</time>
      </trkpt>
      <trkpt lat="44.188" lon="6.67234">
        <ele>1758.5</ele>
        <time>2023-06-24T12:51:19.615Z</time>
      </trkpt>
      <trkpt lat="44.18803" lon="6.67229">
        <ele>1758.3</ele>
        <time>2023-06-24T12:51:26.145Z</time>
      </trkpt>
      <trkpt lat="44.18805" lon="6.67223">
        <ele>1758.1</ele>
        <time>2023-06-24T12:51:32.784Z</time>
      </trkpt>
      <trkpt lat="44.18809" lon="6.67218">
        <ele>1757.9</ele>
        <time>2023-06-24T12:51:40.410Z</time>
      </trkpt>
      <trkpt lat="44.18812" lon="6.67212">
        <ele>1757.6</ele>
        <time>2023-06-24T12:51:47.698Z</time>
      </trkpt>
      <trkpt lat="44.18817" lon="6.6721">
        <ele>1756.8</ele>
        <time>2023-06-24T12:51:54.925Z</time>
      </trkpt>
      <trkpt lat="44.18821" lon="6.67207">
        <ele>1756</ele>
        <time>2023-06-24T12:52:01.236Z</time>
      </trkpt>
      <trkpt lat="44.18825" lon="6.67203">
        <ele>1755.4</ele>
        <time>2023-06-24T12:52:08.075Z</time>
      </trkpt>
      <trkpt lat="44.18829" lon="6.67198">
        <ele>1754.8</ele>
        <time>2023-06-24T12:52:15.538Z</time>
      </trkpt>
      <trkpt lat="44.18833" lon="6.67194">
        <ele>1754.2</ele>
        <time>2023-06-24T12:52:22.377Z</time>
      </trkpt>
      <trkpt lat="44.18837" lon="6.67189">
        <ele>1754</ele>
        <time>2023-06-24T12:52:30.003Z</time>
      </trkpt>
      <trkpt lat="44.18839" lon="6.67183">
        <ele>1754.5</ele>
        <time>2023-06-24T12:52:40.660Z</time>
      </trkpt>
      <trkpt lat="44.18841" lon="6.67176">
        <ele>1754.9</ele>
        <time>2023-06-24T12:52:51.553Z</time>
      </trkpt>
      <trkpt lat="44.18842" lon="6.6717">
        <ele>1755.4</ele>
        <time>2023-06-24T12:53:01.752Z</time>
      </trkpt>
      <trkpt lat="44.18844" lon="6.67163">
        <ele>1756</ele>
        <time>2023-06-24T12:53:14.132Z</time>
      </trkpt>
      <trkpt lat="44.18848" lon="6.67159">
        <ele>1755.9</ele>
        <time>2023-06-24T12:53:21.480Z</time>
      </trkpt>
      <trkpt lat="44.18851" lon="6.67154">
        <ele>1755.8</ele>
        <time>2023-06-24T12:53:28.436Z</time>
      </trkpt>
      <trkpt lat="44.18857" lon="6.67147">
        <ele>1755.6</ele>
        <time>2023-06-24T12:53:39.932Z</time>
      </trkpt>
      <trkpt lat="44.18862" lon="6.67141">
        <ele>1755.4</ele>
        <time>2023-06-24T12:53:49.490Z</time>
      </trkpt>
      <trkpt lat="44.18867" lon="6.67135">
        <ele>1755.1</ele>
        <time>2023-06-24T12:53:58.655Z</time>
      </trkpt>
      <trkpt lat="44.18875" lon="6.6713">
        <ele>1753.8</ele>
        <time>2023-06-24T12:54:10.836Z</time>
      </trkpt>
      <trkpt lat="44.18881" lon="6.67124">
        <ele>1753.3</ele>
        <time>2023-06-24T12:54:21.094Z</time>
      </trkpt>
      <trkpt lat="44.18886" lon="6.67117">
        <ele>1752.9</ele>
        <time>2023-06-24T12:54:30.938Z</time>
      </trkpt>
      <trkpt lat="44.1889" lon="6.6711">
        <ele>1753.1</ele>
        <time>2023-06-24T12:54:42.177Z</time>
      </trkpt>
      <trkpt lat="44.18893" lon="6.67102">
        <ele>1753.4</ele>
        <time>2023-06-24T12:54:54.083Z</time>
      </trkpt>
      <trkpt lat="44.18898" lon="6.67099">
        <ele>1752.7</ele>
        <time>2023-06-24T12:55:01.646Z</time>
      </trkpt>
      <trkpt lat="44.18903" lon="6.67095">
        <ele>1752</ele>
        <time>2023-06-24T12:55:09.655Z</time>
      </trkpt>
      <trkpt lat="44.18908" lon="6.67092">
        <ele>1751.3</ele>
        <time>2023-06-24T12:55:17.218Z</time>
      </trkpt>
      <trkpt lat="44.18912" lon="6.67088">
        <ele>1750.6</ele>
        <time>2023-06-24T12:55:24.057Z</time>
      </trkpt>
      <trkpt lat="44.18914" lon="6.67082">
        <ele>1751</ele>
        <time>2023-06-24T12:55:33.962Z</time>
      </trkpt>
      <trkpt lat="44.18915" lon="6.67075">
        <ele>1751.3</ele>
        <time>2023-06-24T12:55:43.762Z</time>
      </trkpt>
      <trkpt lat="44.18916" lon="6.67069">
        <ele>1751.8</ele>
        <time>2023-06-24T12:55:53.960Z</time>
      </trkpt>
      <trkpt lat="44.18917" lon="6.67062">
        <ele>1752.2</ele>
        <time>2023-06-24T12:56:04.424Z</time>
      </trkpt>
      <trkpt lat="44.18917" lon="6.67056">
        <ele>1753</ele>
        <time>2023-06-24T12:56:17.428Z</time>
      </trkpt>
      <trkpt lat="44.18916" lon="6.67049">
        <ele>1753.6</ele>
        <time>2023-06-24T12:56:29.416Z</time>
      </trkpt>
      <trkpt lat="44.18916" lon="6.67042">
        <ele>1754.2</ele>
        <time>2023-06-24T12:56:41.269Z</time>
      </trkpt>
      <trkpt lat="44.18915" lon="6.67035">
        <ele>1754.9</ele>
        <time>2023-06-24T12:56:54.131Z</time>
      </trkpt>
      <trkpt lat="44.18913" lon="6.67029">
        <ele>1755.8</ele>
        <time>2023-06-24T12:57:08.681Z</time>
      </trkpt>
      <trkpt lat="44.1891" lon="6.67023">
        <ele>1756.4</ele>
        <time>2023-06-24T12:57:20.842Z</time>
      </trkpt>
      <trkpt lat="44.18906" lon="6.67012">
        <ele>1757.3</ele>
        <time>2023-06-24T12:57:40.456Z</time>
      </trkpt>
      <trkpt lat="44.18909" lon="6.67002">
        <ele>1756.8</ele>
        <time>2023-06-24T12:57:51.256Z</time>
      </trkpt>
      <trkpt lat="44.18911" lon="6.66992">
        <ele>1755.9</ele>
        <time>2023-06-24T12:58:01.599Z</time>
      </trkpt>
      <trkpt lat="44.18909" lon="6.66985">
        <ele>1756</ele>
        <time>2023-06-24T12:58:10.688Z</time>
      </trkpt>
      <trkpt lat="44.18907" lon="6.66978">
        <ele>1756</ele>
        <time>2023-06-24T12:58:19.267Z</time>
      </trkpt>
      <trkpt lat="44.18908" lon="6.6697">
        <ele>1755.5</ele>
        <time>2023-06-24T12:58:27.358Z</time>
      </trkpt>
      <trkpt lat="44.18908" lon="6.66962">
        <ele>1754.8</ele>
        <time>2023-06-24T12:58:35.328Z</time>
      </trkpt>
      <trkpt lat="44.18906" lon="6.66956">
        <ele>1754.8</ele>
        <time>2023-06-24T12:58:42.862Z</time>
      </trkpt>
      <trkpt lat="44.18903" lon="6.66949">
        <ele>1754.8</ele>
        <time>2023-06-24T12:58:52.148Z</time>
      </trkpt>
      <trkpt lat="44.189" lon="6.66943">
        <ele>1754.8</ele>
        <time>2023-06-24T12:59:00.477Z</time>
      </trkpt>
      <trkpt lat="44.18897" lon="6.66937">
        <ele>1754.7</ele>
        <time>2023-06-24T12:59:08.336Z</time>
      </trkpt>
      <trkpt lat="44.18897" lon="6.6693">
        <ele>1753.9</ele>
        <time>2023-06-24T12:59:15.310Z</time>
      </trkpt>
      <trkpt lat="44.18897" lon="6.66922">
        <ele>1753.1</ele>
        <time>2023-06-24T12:59:23.281Z</time>
      </trkpt>
      <trkpt lat="44.18894" lon="6.66917">
        <ele>1753.1</ele>
        <time>2023-06-24T12:59:30.704Z</time>
      </trkpt>
      <trkpt lat="44.18891" lon="6.66912">
        <ele>1753.1</ele>
        <time>2023-06-24T12:59:38.127Z</time>
      </trkpt>
      <trkpt lat="44.18883" lon="6.66907">
        <ele>1753.9</ele>
        <time>2023-06-24T12:59:56.873Z</time>
      </trkpt>
      <trkpt lat="44.18878" lon="6.66904">
        <ele>1754.4</ele>
        <time>2023-06-24T13:00:08.536Z</time>
      </trkpt>
      <trkpt lat="44.18872" lon="6.669">
        <ele>1754.9</ele>
        <time>2023-06-24T13:00:21.996Z</time>
      </trkpt>
      <trkpt lat="44.18868" lon="6.66896">
        <ele>1755</ele>
        <time>2023-06-24T13:00:30.323Z</time>
      </trkpt>
      <trkpt lat="44.18863" lon="6.66892">
        <ele>1755.2</ele>
        <time>2023-06-24T13:00:40.532Z</time>
      </trkpt>
      <trkpt lat="44.18859" lon="6.66889">
        <ele>1755.4</ele>
        <time>2023-06-24T13:00:48.823Z</time>
      </trkpt>
      <trkpt lat="44.18855" lon="6.66886">
        <ele>1755.9</ele>
        <time>2023-06-24T13:00:59.194Z</time>
      </trkpt>
      <trkpt lat="44.18851" lon="6.66881">
        <ele>1756.1</ele>
        <time>2023-06-24T13:01:08.786Z</time>
      </trkpt>
      <trkpt lat="44.18847" lon="6.66875">
        <ele>1756.3</ele>
        <time>2023-06-24T13:01:19.168Z</time>
      </trkpt>
      <trkpt lat="44.18843" lon="6.66868">
        <ele>1756.3</ele>
        <time>2023-06-24T13:01:29.360Z</time>
      </trkpt>
      <trkpt lat="44.18839" lon="6.66861">
        <ele>1756.2</ele>
        <time>2023-06-24T13:01:39.079Z</time>
      </trkpt>
      <trkpt lat="44.18837" lon="6.66853">
        <ele>1755.8</ele>
        <time>2023-06-24T13:01:47.520Z</time>
      </trkpt>
      <trkpt lat="44.18835" lon="6.66844">
        <ele>1755.5</ele>
        <time>2023-06-24T13:01:56.912Z</time>
      </trkpt>
      <trkpt lat="44.18837" lon="6.66834">
        <ele>1754.4</ele>
        <time>2023-06-24T13:02:07.256Z</time>
      </trkpt>
      <trkpt lat="44.18838" lon="6.66823">
        <ele>1753.8</ele>
        <time>2023-06-24T13:02:18.303Z</time>
      </trkpt>
      <trkpt lat="44.18838" lon="6.66813">
        <ele>1753.4</ele>
        <time>2023-06-24T13:02:28.266Z</time>
      </trkpt>
      <trkpt lat="44.18838" lon="6.66803">
        <ele>1753.2</ele>
        <time>2023-06-24T13:02:38.731Z</time>
      </trkpt>
      <trkpt lat="44.1884" lon="6.66795">
        <ele>1752.9</ele>
        <time>2023-06-24T13:02:47.172Z</time>
      </trkpt>
      <trkpt lat="44.18842" lon="6.66787">
        <ele>1752.6</ele>
        <time>2023-06-24T13:02:55.613Z</time>
      </trkpt>
      <trkpt lat="44.18844" lon="6.66781">
        <ele>1752.5</ele>
        <time>2023-06-24T13:03:02.680Z</time>
      </trkpt>
      <trkpt lat="44.18845" lon="6.66774">
        <ele>1752.5</ele>
        <time>2023-06-24T13:03:10.807Z</time>
      </trkpt>
      <trkpt lat="44.18847" lon="6.66768">
        <ele>1752.6</ele>
        <time>2023-06-24T13:03:18.853Z</time>
      </trkpt>
      <trkpt lat="44.18849" lon="6.66761">
        <ele>1752.6</ele>
        <time>2023-06-24T13:03:27.433Z</time>
      </trkpt>
      <trkpt lat="44.1885" lon="6.66752">
        <ele>1752.9</ele>
        <time>2023-06-24T13:03:39.427Z</time>
      </trkpt>
      <trkpt lat="44.18851" lon="6.66743">
        <ele>1753.2</ele>
        <time>2023-06-24T13:03:51.422Z</time>
      </trkpt>
      <trkpt lat="44.18858" lon="6.66749">
        <ele>1751.6</ele>
        <time>2023-06-24T13:04:02.838Z</time>
      </trkpt>
      <trkpt lat="44.18866" lon="6.66755">
        <ele>1750.3</ele>
        <time>2023-06-24T13:04:15.459Z</time>
      </trkpt>
      <trkpt lat="44.18871" lon="6.66756">
        <ele>1749.6</ele>
        <time>2023-06-24T13:04:22.478Z</time>
      </trkpt>
      <trkpt lat="44.18877" lon="6.66758">
        <ele>1748.8</ele>
        <time>2023-06-24T13:04:31.049Z</time>
      </trkpt>
      <trkpt lat="44.18882" lon="6.66759">
        <ele>1748</ele>
        <time>2023-06-24T13:04:38.068Z</time>
      </trkpt>
      <trkpt lat="44.18887" lon="6.6676">
        <ele>1747.1</ele>
        <time>2023-06-24T13:04:45.086Z</time>
      </trkpt>
      <trkpt lat="44.18892" lon="6.66762">
        <ele>1746.4</ele>
        <time>2023-06-24T13:04:52.313Z</time>
      </trkpt>
      <trkpt lat="44.18897" lon="6.66763">
        <ele>1745.7</ele>
        <time>2023-06-24T13:04:59.332Z</time>
      </trkpt>
      <trkpt lat="44.18902" lon="6.66764">
        <ele>1745.1</ele>
        <time>2023-06-24T13:05:06.350Z</time>
      </trkpt>
      <trkpt lat="44.18907" lon="6.66766">
        <ele>1744.5</ele>
        <time>2023-06-24T13:05:13.577Z</time>
      </trkpt>
      <trkpt lat="44.18915" lon="6.66767">
        <ele>1743.5</ele>
        <time>2023-06-24T13:05:24.738Z</time>
      </trkpt>
      <trkpt lat="44.18924" lon="6.66768">
        <ele>1742.6</ele>
        <time>2023-06-24T13:05:37.282Z</time>
      </trkpt>
      <trkpt lat="44.18932" lon="6.66771">
        <ele>1741.6</ele>
        <time>2023-06-24T13:05:48.793Z</time>
      </trkpt>
      <trkpt lat="44.18939" lon="6.66774">
        <ele>1740.7</ele>
        <time>2023-06-24T13:05:58.968Z</time>
      </trkpt>
      <trkpt lat="44.18948" lon="6.66775">
        <ele>1739.9</ele>
        <time>2023-06-24T13:06:11.513Z</time>
      </trkpt>
      <trkpt lat="44.18957" lon="6.66775">
        <ele>1739.2</ele>
        <time>2023-06-24T13:06:24.018Z</time>
      </trkpt>
      <trkpt lat="44.18961" lon="6.66772">
        <ele>1739</ele>
        <time>2023-06-24T13:06:30.338Z</time>
      </trkpt>
      <trkpt lat="44.18965" lon="6.66768">
        <ele>1738.9</ele>
        <time>2023-06-24T13:06:37.686Z</time>
      </trkpt>
      <trkpt lat="44.18969" lon="6.66764">
        <ele>1738.7</ele>
        <time>2023-06-24T13:06:44.604Z</time>
      </trkpt>
      <trkpt lat="44.18973" lon="6.6676">
        <ele>1738.5</ele>
        <time>2023-06-24T13:06:51.523Z</time>
      </trkpt>
      <trkpt lat="44.18978" lon="6.66751">
        <ele>1738.2</ele>
        <time>2023-06-24T13:07:03.129Z</time>
      </trkpt>
      <trkpt lat="44.18983" lon="6.66741">
        <ele>1737.9</ele>
        <time>2023-06-24T13:07:15.646Z</time>
      </trkpt>
      <trkpt lat="44.18988" lon="6.66731">
        <ele>1737.9</ele>
        <time>2023-06-24T13:07:29.527Z</time>
      </trkpt>
      <trkpt lat="44.18992" lon="6.66721">
        <ele>1737.9</ele>
        <time>2023-06-24T13:07:42.565Z</time>
      </trkpt>
      <trkpt lat="44.18996" lon="6.66714">
        <ele>1737.7</ele>
        <time>2023-06-24T13:07:51.841Z</time>
      </trkpt>
      <trkpt lat="44.18999" lon="6.66708">
        <ele>1737.6</ele>
        <time>2023-06-24T13:07:59.701Z</time>
      </trkpt>
      <trkpt lat="44.19002" lon="6.66702">
        <ele>1737.4</ele>
        <time>2023-06-24T13:08:07.127Z</time>
      </trkpt>
      <trkpt lat="44.19005" lon="6.66696">
        <ele>1737.2</ele>
        <time>2023-06-24T13:08:14.554Z</time>
      </trkpt>
      <trkpt lat="44.19007" lon="6.66689">
        <ele>1737</ele>
        <time>2023-06-24T13:08:22.229Z</time>
      </trkpt>
      <trkpt lat="44.19009" lon="6.66682">
        <ele>1736.7</ele>
        <time>2023-06-24T13:08:29.736Z</time>
      </trkpt>
      <trkpt lat="44.19011" lon="6.66675">
        <ele>1736.4</ele>
        <time>2023-06-24T13:08:37.243Z</time>
      </trkpt>
      <trkpt lat="44.19013" lon="6.66669">
        <ele>1736.2</ele>
        <time>2023-06-24T13:08:43.882Z</time>
      </trkpt>
      <trkpt lat="44.19015" lon="6.66661">
        <ele>1735.1</ele>
        <time>2023-06-24T13:08:52.323Z</time>
      </trkpt>
      <trkpt lat="44.19017" lon="6.66653">
        <ele>1733.8</ele>
        <time>2023-06-24T13:09:00.764Z</time>
      </trkpt>
      <trkpt lat="44.19019" lon="6.66646">
        <ele>1732.4</ele>
        <time>2023-06-24T13:09:08.271Z</time>
      </trkpt>
      <trkpt lat="44.19021" lon="6.66638">
        <ele>1731</ele>
        <time>2023-06-24T13:09:16.712Z</time>
      </trkpt>
      <trkpt lat="44.19025" lon="6.66633">
        <ele>1729.9</ele>
        <time>2023-06-24T13:09:24.175Z</time>
      </trkpt>
      <trkpt lat="44.19028" lon="6.66628">
        <ele>1728.8</ele>
        <time>2023-06-24T13:09:30.671Z</time>
      </trkpt>
      <trkpt lat="44.19031" lon="6.66623">
        <ele>1728</ele>
        <time>2023-06-24T13:09:37.166Z</time>
      </trkpt>
      <trkpt lat="44.19034" lon="6.66617">
        <ele>1727.2</ele>
        <time>2023-06-24T13:09:44.454Z</time>
      </trkpt>
      <trkpt lat="44.19041" lon="6.66609">
        <ele>1725.9</ele>
        <time>2023-06-24T13:09:57.028Z</time>
      </trkpt>
      <trkpt lat="44.19047" lon="6.66601">
        <ele>1724.6</ele>
        <time>2023-06-24T13:10:08.562Z</time>
      </trkpt>
      <trkpt lat="44.19049" lon="6.66594">
        <ele>1723.7</ele>
        <time>2023-06-24T13:10:16.069Z</time>
      </trkpt>
      <trkpt lat="44.19052" lon="6.66586">
        <ele>1722.7</ele>
        <time>2023-06-24T13:10:25.064Z</time>
      </trkpt>
      <trkpt lat="44.19054" lon="6.66579">
        <ele>1721.9</ele>
        <time>2023-06-24T13:10:32.571Z</time>
      </trkpt>
      <trkpt lat="44.19056" lon="6.66572">
        <ele>1721.2</ele>
        <time>2023-06-24T13:10:40.078Z</time>
      </trkpt>
      <trkpt lat="44.19061" lon="6.66566">
        <ele>1720.8</ele>
        <time>2023-06-24T13:10:49.243Z</time>
      </trkpt>
      <trkpt lat="44.19066" lon="6.6656">
        <ele>1720.4</ele>
        <time>2023-06-24T13:10:58.408Z</time>
      </trkpt>
      <trkpt lat="44.19063" lon="6.66553">
        <ele>1719.9</ele>
        <time>2023-06-24T13:11:06.533Z</time>
      </trkpt>
      <trkpt lat="44.1906" lon="6.66545">
        <ele>1719.6</ele>
        <time>2023-06-24T13:11:15.527Z</time>
      </trkpt>
      <trkpt lat="44.19061" lon="6.66533">
        <ele>1719</ele>
        <time>2023-06-24T13:11:27.563Z</time>
      </trkpt>
      <trkpt lat="44.19062" lon="6.66521">
        <ele>1718.7</ele>
        <time>2023-06-24T13:11:39.955Z</time>
      </trkpt>
      <trkpt lat="44.19067" lon="6.66521">
        <ele>1718.5</ele>
        <time>2023-06-24T13:11:46.996Z</time>
      </trkpt>
      <trkpt lat="44.19071" lon="6.66522">
        <ele>1718.3</ele>
        <time>2023-06-24T13:11:52.642Z</time>
      </trkpt>
      <trkpt lat="44.19076" lon="6.66522">
        <ele>1718.1</ele>
        <time>2023-06-24T13:11:59.683Z</time>
      </trkpt>
      <trkpt lat="44.19081" lon="6.66523">
        <ele>1717.9</ele>
        <time>2023-06-24T13:12:06.805Z</time>
      </trkpt>
      <trkpt lat="44.19085" lon="6.66523">
        <ele>1717.7</ele>
        <time>2023-06-24T13:12:12.362Z</time>
      </trkpt>
      <trkpt lat="44.1909" lon="6.66523">
        <ele>1717.6</ele>
        <time>2023-06-24T13:12:19.834Z</time>
      </trkpt>
      <trkpt lat="44.19095" lon="6.66524">
        <ele>1717.4</ele>
        <time>2023-06-24T13:12:26.955Z</time>
      </trkpt>
      <trkpt lat="44.19099" lon="6.66524">
        <ele>1717.2</ele>
        <time>2023-06-24T13:12:32.513Z</time>
      </trkpt>
      <trkpt lat="44.19108" lon="6.66521">
        <ele>1716.7</ele>
        <time>2023-06-24T13:12:45.370Z</time>
      </trkpt>
      <trkpt lat="44.19116" lon="6.66519">
        <ele>1716.2</ele>
        <time>2023-06-24T13:12:56.663Z</time>
      </trkpt>
      <trkpt lat="44.19125" lon="6.66516">
        <ele>1715.7</ele>
        <time>2023-06-24T13:13:09.520Z</time>
      </trkpt>
      <trkpt lat="44.19133" lon="6.66513">
        <ele>1715.2</ele>
        <time>2023-06-24T13:13:21.031Z</time>
      </trkpt>
      <trkpt lat="44.19139" lon="6.66508">
        <ele>1714.6</ele>
        <time>2023-06-24T13:13:30.742Z</time>
      </trkpt>
      <trkpt lat="44.19145" lon="6.66503">
        <ele>1713.5</ele>
        <time>2023-06-24T13:13:40.454Z</time>
      </trkpt>
      <trkpt lat="44.19151" lon="6.66497">
        <ele>1712.6</ele>
        <time>2023-06-24T13:13:50.712Z</time>
      </trkpt>
      <trkpt lat="44.19157" lon="6.66492">
        <ele>1711.7</ele>
        <time>2023-06-24T13:14:00.424Z</time>
      </trkpt>
      <trkpt lat="44.19159" lon="6.66485">
        <ele>1711.1</ele>
        <time>2023-06-24T13:14:07.931Z</time>
      </trkpt>
      <trkpt lat="44.19162" lon="6.66478">
        <ele>1710.6</ele>
        <time>2023-06-24T13:14:16.056Z</time>
      </trkpt>
      <trkpt lat="44.19164" lon="6.66471">
        <ele>1710.1</ele>
        <time>2023-06-24T13:14:23.563Z</time>
      </trkpt>
      <trkpt lat="44.19167" lon="6.66464">
        <ele>1709.7</ele>
        <time>2023-06-24T13:14:31.687Z</time>
      </trkpt>
      <trkpt lat="44.19162" lon="6.66459">
        <ele>1710</ele>
        <time>2023-06-24T13:14:43.092Z</time>
      </trkpt>
      <trkpt lat="44.19157" lon="6.66454">
        <ele>1710.3</ele>
        <time>2023-06-24T13:14:54.497Z</time>
      </trkpt>
      <trkpt lat="44.19152" lon="6.66449">
        <ele>1710.7</ele>
        <time>2023-06-24T13:15:06.532Z</time>
      </trkpt>
      <trkpt lat="44.19147" lon="6.66444">
        <ele>1711.2</ele>
        <time>2023-06-24T13:15:19.244Z</time>
      </trkpt>
      <trkpt lat="44.19143" lon="6.6644">
        <ele>1711.6</ele>
        <time>2023-06-24T13:15:29.415Z</time>
      </trkpt>
      <trkpt lat="44.19139" lon="6.66437">
        <ele>1711.9</ele>
        <time>2023-06-24T13:15:38.329Z</time>
      </trkpt>
      <trkpt lat="44.19136" lon="6.66433">
        <ele>1712.4</ele>
        <time>2023-06-24T13:15:48.163Z</time>
      </trkpt>
      <trkpt lat="44.19132" lon="6.66429">
        <ele>1712.9</ele>
        <time>2023-06-24T13:15:59.072Z</time>
      </trkpt>
      <trkpt lat="44.19133" lon="6.66421">
        <ele>1712.8</ele>
        <time>2023-06-24T13:16:07.847Z</time>
      </trkpt>
      <trkpt lat="44.19135" lon="6.66413">
        <ele>1712.8</ele>
        <time>2023-06-24T13:16:17.493Z</time>
      </trkpt>
      <trkpt lat="44.19136" lon="6.66405">
        <ele>1712.9</ele>
        <time>2023-06-24T13:16:27.247Z</time>
      </trkpt>
      <trkpt lat="44.19137" lon="6.66396">
        <ele>1713</ele>
        <time>2023-06-24T13:16:38.122Z</time>
      </trkpt>
      <trkpt lat="44.19137" lon="6.66385">
        <ele>1713.4</ele>
        <time>2023-06-24T13:16:52.836Z</time>
      </trkpt>
      <trkpt lat="44.19137" lon="6.66374">
        <ele>1713.8</ele>
        <time>2023-06-24T13:17:07.551Z</time>
      </trkpt>
      <trkpt lat="44.19137" lon="6.66362">
        <ele>1714.3</ele>
        <time>2023-06-24T13:17:23.999Z</time>
      </trkpt>
      <trkpt lat="44.19137" lon="6.66351">
        <ele>1714.3</ele>
        <time>2023-06-24T13:17:36.524Z</time>
      </trkpt>
      <trkpt lat="44.19137" lon="6.66344">
        <ele>1714.4</ele>
        <time>2023-06-24T13:17:45.004Z</time>
      </trkpt>
      <trkpt lat="44.19137" lon="6.66337">
        <ele>1714.4</ele>
        <time>2023-06-24T13:17:52.975Z</time>
      </trkpt>
      <trkpt lat="44.19137" lon="6.66327">
        <ele>1714.4</ele>
        <time>2023-06-24T13:18:04.360Z</time>
      </trkpt>
      <trkpt lat="44.19137" lon="6.66317">
        <ele>1714.4</ele>
        <time>2023-06-24T13:18:15.746Z</time>
      </trkpt>
      <trkpt lat="44.19136" lon="6.66311">
        <ele>1714.6</ele>
        <time>2023-06-24T13:18:23.841Z</time>
      </trkpt>
      <trkpt lat="44.19135" lon="6.66304">
        <ele>1714.7</ele>
        <time>2023-06-24T13:18:32.478Z</time>
      </trkpt>
      <trkpt lat="44.19134" lon="6.66298">
        <ele>1714.6</ele>
        <time>2023-06-24T13:18:39.026Z</time>
      </trkpt>
      <trkpt lat="44.19132" lon="6.66292">
        <ele>1714.5</ele>
        <time>2023-06-24T13:18:46.092Z</time>
      </trkpt>
      <trkpt lat="44.1913" lon="6.66284">
        <ele>1714.6</ele>
        <time>2023-06-24T13:18:56.245Z</time>
      </trkpt>
      <trkpt lat="44.19127" lon="6.66276">
        <ele>1714.6</ele>
        <time>2023-06-24T13:19:06.525Z</time>
      </trkpt>
      <trkpt lat="44.19124" lon="6.66267">
        <ele>1714.6</ele>
        <time>2023-06-24T13:19:17.825Z</time>
      </trkpt>
      <trkpt lat="44.19121" lon="6.66259">
        <ele>1714.7</ele>
        <time>2023-06-24T13:19:28.610Z</time>
      </trkpt>
      <trkpt lat="44.19118" lon="6.66253">
        <ele>1714.8</ele>
        <time>2023-06-24T13:19:37.448Z</time>
      </trkpt>
      <trkpt lat="44.19115" lon="6.66247">
        <ele>1714.9</ele>
        <time>2023-06-24T13:19:46.286Z</time>
      </trkpt>
      <trkpt lat="44.19113" lon="6.66241">
        <ele>1714.7</ele>
        <time>2023-06-24T13:19:52.925Z</time>
      </trkpt>
      <trkpt lat="44.1911" lon="6.66234">
        <ele>1714.4</ele>
        <time>2023-06-24T13:20:01.050Z</time>
      </trkpt>
      <trkpt lat="44.19107" lon="6.66228">
        <ele>1714.1</ele>
        <time>2023-06-24T13:20:08.337Z</time>
      </trkpt>
      <trkpt lat="44.19103" lon="6.66221">
        <ele>1713.8</ele>
        <time>2023-06-24T13:20:17.255Z</time>
      </trkpt>
      <trkpt lat="44.191" lon="6.66216">
        <ele>1713.7</ele>
        <time>2023-06-24T13:20:24.211Z</time>
      </trkpt>
      <trkpt lat="44.19097" lon="6.66211">
        <ele>1713.7</ele>
        <time>2023-06-24T13:20:31.634Z</time>
      </trkpt>
      <trkpt lat="44.19093" lon="6.66206">
        <ele>1713.8</ele>
        <time>2023-06-24T13:20:40.673Z</time>
      </trkpt>
      <trkpt lat="44.19089" lon="6.66201">
        <ele>1713.9</ele>
        <time>2023-06-24T13:20:49.712Z</time>
      </trkpt>
      <trkpt lat="44.19084" lon="6.66194">
        <ele>1713.8</ele>
        <time>2023-06-24T13:21:00.487Z</time>
      </trkpt>
      <trkpt lat="44.1908" lon="6.66186">
        <ele>1713.3</ele>
        <time>2023-06-24T13:21:10.204Z</time>
      </trkpt>
      <trkpt lat="44.19076" lon="6.66181">
        <ele>1712.9</ele>
        <time>2023-06-24T13:21:17.668Z</time>
      </trkpt>
      <trkpt lat="44.19072" lon="6.66175">
        <ele>1712.6</ele>
        <time>2023-06-24T13:21:25.830Z</time>
      </trkpt>
      <trkpt lat="44.19066" lon="6.66173">
        <ele>1712.8</ele>
        <time>2023-06-24T13:21:36.676Z</time>
      </trkpt>
      <trkpt lat="44.1906" lon="6.6617">
        <ele>1713</ele>
        <time>2023-06-24T13:21:47.845Z</time>
      </trkpt>
      <trkpt lat="44.19052" lon="6.66167">
        <ele>1713.2</ele>
        <time>2023-06-24T13:22:02.031Z</time>
      </trkpt>
      <trkpt lat="44.19047" lon="6.66167">
        <ele>1713.4</ele>
        <time>2023-06-24T13:22:11.039Z</time>
      </trkpt>
      <trkpt lat="44.19042" lon="6.66167">
        <ele>1713.5</ele>
        <time>2023-06-24T13:22:19.490Z</time>
      </trkpt>
      <trkpt lat="44.19034" lon="6.66166">
        <ele>1713.7</ele>
        <time>2023-06-24T13:22:33.277Z</time>
      </trkpt>
      <trkpt lat="44.19028" lon="6.66163">
        <ele>1713.5</ele>
        <time>2023-06-24T13:22:42.483Z</time>
      </trkpt>
      <trkpt lat="44.19022" lon="6.6616">
        <ele>1713.1</ele>
        <time>2023-06-24T13:22:51.340Z</time>
      </trkpt>
      <trkpt lat="44.19016" lon="6.66151">
        <ele>1712</ele>
        <time>2023-06-24T13:23:03.583Z</time>
      </trkpt>
      <trkpt lat="44.19016" lon="6.66145">
        <ele>1711.1</ele>
        <time>2023-06-24T13:23:09.561Z</time>
      </trkpt>
      <trkpt lat="44.19017" lon="6.66138">
        <ele>1710.3</ele>
        <time>2023-06-24T13:23:16.672Z</time>
      </trkpt>
      <trkpt lat="44.19016" lon="6.66131">
        <ele>1709.4</ele>
        <time>2023-06-24T13:23:23.783Z</time>
      </trkpt>
      <trkpt lat="44.19016" lon="6.66124">
        <ele>1708.5</ele>
        <time>2023-06-24T13:23:30.757Z</time>
      </trkpt>
      <trkpt lat="44.19015" lon="6.66117">
        <ele>1707.7</ele>
        <time>2023-06-24T13:23:37.868Z</time>
      </trkpt>
      <trkpt lat="44.19013" lon="6.6611">
        <ele>1706.9</ele>
        <time>2023-06-24T13:23:45.375Z</time>
      </trkpt>
      <trkpt lat="44.19007" lon="6.66103">
        <ele>1706.3</ele>
        <time>2023-06-24T13:23:56.244Z</time>
      </trkpt>
      <trkpt lat="44.19" lon="6.66097">
        <ele>1706</ele>
        <time>2023-06-24T13:24:07.933Z</time>
      </trkpt>
      <trkpt lat="44.18994" lon="6.66095">
        <ele>1706.4</ele>
        <time>2023-06-24T13:24:19.993Z</time>
      </trkpt>
      <trkpt lat="44.18988" lon="6.66093">
        <ele>1706.9</ele>
        <time>2023-06-24T13:24:32.731Z</time>
      </trkpt>
      <trkpt lat="44.18983" lon="6.6609">
        <ele>1707.3</ele>
        <time>2023-06-24T13:24:43.685Z</time>
      </trkpt>
      <trkpt lat="44.18978" lon="6.66087">
        <ele>1707.7</ele>
        <time>2023-06-24T13:24:54.639Z</time>
      </trkpt>
      <trkpt lat="44.18976" lon="6.66081">
        <ele>1707.2</ele>
        <time>2023-06-24T13:25:01.231Z</time>
      </trkpt>
      <trkpt lat="44.18974" lon="6.66075">
        <ele>1706.8</ele>
        <time>2023-06-24T13:25:07.823Z</time>
      </trkpt>
      <trkpt lat="44.18973" lon="6.66065">
        <ele>1705.9</ele>
        <time>2023-06-24T13:25:17.882Z</time>
      </trkpt>
      <trkpt lat="44.18972" lon="6.66058">
        <ele>1705.3</ele>
        <time>2023-06-24T13:25:24.993Z</time>
      </trkpt>
      <trkpt lat="44.18971" lon="6.66051">
        <ele>1704.7</ele>
        <time>2023-06-24T13:25:32.104Z</time>
      </trkpt>
      <trkpt lat="44.18967" lon="6.66045">
        <ele>1705</ele>
        <time>2023-06-24T13:25:43.077Z</time>
      </trkpt>
      <trkpt lat="44.18964" lon="6.66041">
        <ele>1705.2</ele>
        <time>2023-06-24T13:25:50.756Z</time>
      </trkpt>
      <trkpt lat="44.1896" lon="6.66038">
        <ele>1705.8</ele>
        <time>2023-06-24T13:26:01.978Z</time>
      </trkpt>
      <trkpt lat="44.18955" lon="6.66034">
        <ele>1706.3</ele>
        <time>2023-06-24T13:26:14.114Z</time>
      </trkpt>
      <trkpt lat="44.18951" lon="6.66027">
        <ele>1706.6</ele>
        <time>2023-06-24T13:26:25.933Z</time>
      </trkpt>
      <trkpt lat="44.18951" lon="6.66015">
        <ele>1705.7</ele>
        <time>2023-06-24T13:26:37.888Z</time>
      </trkpt>
      <trkpt lat="44.18949" lon="6.66009">
        <ele>1705.6</ele>
        <time>2023-06-24T13:26:44.955Z</time>
      </trkpt>
      <trkpt lat="44.18948" lon="6.66003">
        <ele>1705.5</ele>
        <time>2023-06-24T13:26:51.503Z</time>
      </trkpt>
      <trkpt lat="44.18947" lon="6.65994">
        <ele>1704.9</ele>
        <time>2023-06-24T13:27:00.577Z</time>
      </trkpt>
      <trkpt lat="44.18947" lon="6.65983">
        <ele>1704.3</ele>
        <time>2023-06-24T13:27:11.536Z</time>
      </trkpt>
      <trkpt lat="44.18946" lon="6.65977">
        <ele>1704</ele>
        <time>2023-06-24T13:27:17.673Z</time>
      </trkpt>
      <trkpt lat="44.18945" lon="6.65971">
        <ele>1703.8</ele>
        <time>2023-06-24T13:27:23.810Z</time>
      </trkpt>
      <trkpt lat="44.18945" lon="6.65962">
        <ele>1703.2</ele>
        <time>2023-06-24T13:27:32.777Z</time>
      </trkpt>
      <trkpt lat="44.18943" lon="6.6595">
        <ele>1702.7</ele>
        <time>2023-06-24T13:27:45.051Z</time>
      </trkpt>
      <trkpt lat="44.18943" lon="6.65943">
        <ele>1702.3</ele>
        <time>2023-06-24T13:27:52.025Z</time>
      </trkpt>
      <trkpt lat="44.18943" lon="6.65937">
        <ele>1702</ele>
        <time>2023-06-24T13:27:58.003Z</time>
      </trkpt>
      <trkpt lat="44.18943" lon="6.65926">
        <ele>1701.1</ele>
        <time>2023-06-24T13:28:08.962Z</time>
      </trkpt>
      <trkpt lat="44.18943" lon="6.65916">
        <ele>1700.3</ele>
        <time>2023-06-24T13:28:18.925Z</time>
      </trkpt>
      <trkpt lat="44.18937" lon="6.65907">
        <ele>1701.5</ele>
        <time>2023-06-24T13:28:41.022Z</time>
      </trkpt>
      <trkpt lat="44.18931" lon="6.65907">
        <ele>1702.8</ele>
        <time>2023-06-24T13:29:01.479Z</time>
      </trkpt>
      <trkpt lat="44.18926" lon="6.65899">
        <ele>1703.7</ele>
        <time>2023-06-24T13:29:19.368Z</time>
      </trkpt>
      <trkpt lat="44.18923" lon="6.65893">
        <ele>1703.9</ele>
        <time>2023-06-24T13:29:28.760Z</time>
      </trkpt>
      <trkpt lat="44.1892" lon="6.65886">
        <ele>1704</ele>
        <time>2023-06-24T13:29:38.553Z</time>
      </trkpt>
      <trkpt lat="44.18918" lon="6.65875">
        <ele>1703.7</ele>
        <time>2023-06-24T13:29:50.118Z</time>
      </trkpt>
      <trkpt lat="44.18916" lon="6.65868">
        <ele>1703.6</ele>
        <time>2023-06-24T13:29:58.228Z</time>
      </trkpt>
      <trkpt lat="44.18914" lon="6.65861">
        <ele>1703.5</ele>
        <time>2023-06-24T13:30:06.338Z</time>
      </trkpt>
      <trkpt lat="44.18912" lon="6.65856">
        <ele>1703.5</ele>
        <time>2023-06-24T13:30:12.857Z</time>
      </trkpt>
      <trkpt lat="44.18909" lon="6.6585">
        <ele>1703.5</ele>
        <time>2023-06-24T13:30:21.185Z</time>
      </trkpt>
      <trkpt lat="44.18904" lon="6.65844">
        <ele>1704</ele>
        <time>2023-06-24T13:30:34.564Z</time>
      </trkpt>
      <trkpt lat="44.18899" lon="6.65838">
        <ele>1704.5</ele>
        <time>2023-06-24T13:30:47.943Z</time>
      </trkpt>
      <trkpt lat="44.18895" lon="6.65833">
        <ele>1704.8</ele>
        <time>2023-06-24T13:30:58.135Z</time>
      </trkpt>
      <trkpt lat="44.18892" lon="6.65827">
        <ele>1704.9</ele>
        <time>2023-06-24T13:31:06.974Z</time>
      </trkpt>
      <trkpt lat="44.18888" lon="6.65823">
        <ele>1705</ele>
        <time>2023-06-24T13:31:15.301Z</time>
      </trkpt>
      <trkpt lat="44.18884" lon="6.65819">
        <ele>1705</ele>
        <time>2023-06-24T13:31:23.117Z</time>
      </trkpt>
      <trkpt lat="44.1888" lon="6.65815">
        <ele>1705.2</ele>
        <time>2023-06-24T13:31:32.002Z</time>
      </trkpt>
      <trkpt lat="44.18876" lon="6.65812">
        <ele>1705.5</ele>
        <time>2023-06-24T13:31:40.917Z</time>
      </trkpt>
      <trkpt lat="44.18872" lon="6.65806">
        <ele>1705.5</ele>
        <time>2023-06-24T13:31:50.246Z</time>
      </trkpt>
      <trkpt lat="44.18868" lon="6.65801">
        <ele>1705.6</ele>
        <time>2023-06-24T13:31:59.285Z</time>
      </trkpt>
      <trkpt lat="44.18864" lon="6.65796">
        <ele>1705.8</ele>
        <time>2023-06-24T13:32:08.876Z</time>
      </trkpt>
      <trkpt lat="44.18861" lon="6.6579">
        <ele>1706</ele>
        <time>2023-06-24T13:32:18.269Z</time>
      </trkpt>
      <trkpt lat="44.18856" lon="6.65785">
        <ele>1706.3</ele>
        <time>2023-06-24T13:32:29.674Z</time>
      </trkpt>
      <trkpt lat="44.18852" lon="6.6578">
        <ele>1706.7</ele>
        <time>2023-06-24T13:32:40.520Z</time>
      </trkpt>
      <trkpt lat="44.18848" lon="6.65774">
        <ele>1707.1</ele>
        <time>2023-06-24T13:32:52.129Z</time>
      </trkpt>
      <trkpt lat="44.18844" lon="6.65769">
        <ele>1707.4</ele>
        <time>2023-06-24T13:33:02.322Z</time>
      </trkpt>
      <trkpt lat="44.18837" lon="6.65763">
        <ele>1708.1</ele>
        <time>2023-06-24T13:33:19.528Z</time>
      </trkpt>
      <trkpt lat="44.18831" lon="6.65758">
        <ele>1709</ele>
        <time>2023-06-24T13:33:36.591Z</time>
      </trkpt>
      <trkpt lat="44.18825" lon="6.65755">
        <ele>1710.2</ele>
        <time>2023-06-24T13:33:56.030Z</time>
      </trkpt>
      <trkpt lat="44.18818" lon="6.65752">
        <ele>1711.3</ele>
        <time>2023-06-24T13:34:15.366Z</time>
      </trkpt>
      <trkpt lat="44.18814" lon="6.65749">
        <ele>1712.1</ele>
        <time>2023-06-24T13:34:28.587Z</time>
      </trkpt>
      <trkpt lat="44.18809" lon="6.65746">
        <ele>1712.7</ele>
        <time>2023-06-24T13:34:41.023Z</time>
      </trkpt>
      <trkpt lat="44.18805" lon="6.65738">
        <ele>1712.8</ele>
        <time>2023-06-24T13:34:52.633Z</time>
      </trkpt>
      <trkpt lat="44.18801" lon="6.6573">
        <ele>1713</ele>
        <time>2023-06-24T13:35:04.779Z</time>
      </trkpt>
      <trkpt lat="44.18801" lon="6.65719">
        <ele>1712.1</ele>
        <time>2023-06-24T13:35:15.738Z</time>
      </trkpt>
      <trkpt lat="44.188" lon="6.65707">
        <ele>1711.7</ele>
        <time>2023-06-24T13:35:27.775Z</time>
      </trkpt>
      <trkpt lat="44.18802" lon="6.65695">
        <ele>1710.9</ele>
        <time>2023-06-24T13:35:40.049Z</time>
      </trkpt>
      <trkpt lat="44.18803" lon="6.65683">
        <ele>1710.1</ele>
        <time>2023-06-24T13:35:52.086Z</time>
      </trkpt>
      <trkpt lat="44.18803" lon="6.65676">
        <ele>1709.9</ele>
        <time>2023-06-24T13:35:59.157Z</time>
      </trkpt>
      <trkpt lat="44.18803" lon="6.65669">
        <ele>1709.6</ele>
        <time>2023-06-24T13:36:06.131Z</time>
      </trkpt>
      <trkpt lat="44.18803" lon="6.65663">
        <ele>1709.3</ele>
        <time>2023-06-24T13:36:12.109Z</time>
      </trkpt>
      <trkpt lat="44.18803" lon="6.65656">
        <ele>1709.1</ele>
        <time>2023-06-24T13:36:19.181Z</time>
      </trkpt>
      <trkpt lat="44.18806" lon="6.65648">
        <ele>1708.2</ele>
        <time>2023-06-24T13:36:28.175Z</time>
      </trkpt>
      <trkpt lat="44.18809" lon="6.6564">
        <ele>1707.3</ele>
        <time>2023-06-24T13:36:37.170Z</time>
      </trkpt>
      <trkpt lat="44.1881" lon="6.65632">
        <ele>1706.7</ele>
        <time>2023-06-24T13:36:45.261Z</time>
      </trkpt>
      <trkpt lat="44.18811" lon="6.65624">
        <ele>1706.2</ele>
        <time>2023-06-24T13:36:53.351Z</time>
      </trkpt>
      <trkpt lat="44.18813" lon="6.65614">
        <ele>1705.5</ele>
        <time>2023-06-24T13:37:03.695Z</time>
      </trkpt>
      <trkpt lat="44.1881" lon="6.65606">
        <ele>1705.7</ele>
        <time>2023-06-24T13:37:15.021Z</time>
      </trkpt>
      <trkpt lat="44.18807" lon="6.65599">
        <ele>1705.8</ele>
        <time>2023-06-24T13:37:24.814Z</time>
      </trkpt>
      <trkpt lat="44.18805" lon="6.65592">
        <ele>1705.6</ele>
        <time>2023-06-24T13:37:32.490Z</time>
      </trkpt>
      <trkpt lat="44.18804" lon="6.65585">
        <ele>1705.5</ele>
        <time>2023-06-24T13:37:40.148Z</time>
      </trkpt>
      <trkpt lat="44.18802" lon="6.65578">
        <ele>1705.3</ele>
        <time>2023-06-24T13:37:47.824Z</time>
      </trkpt>
      <trkpt lat="44.18801" lon="6.6557">
        <ele>1705.2</ele>
        <time>2023-06-24T13:37:56.599Z</time>
      </trkpt>
      <trkpt lat="44.188" lon="6.65563">
        <ele>1704.7</ele>
        <time>2023-06-24T13:38:03.711Z</time>
      </trkpt>
      <trkpt lat="44.188" lon="6.65556">
        <ele>1704.2</ele>
        <time>2023-06-24T13:38:10.685Z</time>
      </trkpt>
      <trkpt lat="44.18799" lon="6.65544">
        <ele>1702.8</ele>
        <time>2023-06-24T13:38:22.721Z</time>
      </trkpt>
      <trkpt lat="44.18798" lon="6.65537">
        <ele>1701.9</ele>
        <time>2023-06-24T13:38:29.832Z</time>
      </trkpt>
      <trkpt lat="44.18798" lon="6.6553">
        <ele>1701</ele>
        <time>2023-06-24T13:38:36.807Z</time>
      </trkpt>
      <trkpt lat="44.18797" lon="6.65522">
        <ele>1699.9</ele>
        <time>2023-06-24T13:38:44.897Z</time>
      </trkpt>
      <trkpt lat="44.18795" lon="6.65514">
        <ele>1698.7</ele>
        <time>2023-06-24T13:38:53.338Z</time>
      </trkpt>
      <trkpt lat="44.18794" lon="6.65507">
        <ele>1697.9</ele>
        <time>2023-06-24T13:39:00.450Z</time>
      </trkpt>
      <trkpt lat="44.18792" lon="6.655">
        <ele>1697</ele>
        <time>2023-06-24T13:39:07.957Z</time>
      </trkpt>
      <trkpt lat="44.18789" lon="6.65493">
        <ele>1696.2</ele>
        <time>2023-06-24T13:39:16.082Z</time>
      </trkpt>
      <trkpt lat="44.18787" lon="6.65486">
        <ele>1695.5</ele>
        <time>2023-06-24T13:39:23.590Z</time>
      </trkpt>
      <trkpt lat="44.18783" lon="6.65481">
        <ele>1695.5</ele>
        <time>2023-06-24T13:39:32.119Z</time>
      </trkpt>
      <trkpt lat="44.18778" lon="6.65476">
        <ele>1695.5</ele>
        <time>2023-06-24T13:39:41.889Z</time>
      </trkpt>
      <trkpt lat="44.18775" lon="6.65469">
        <ele>1694.9</ele>
        <time>2023-06-24T13:39:50.014Z</time>
      </trkpt>
      <trkpt lat="44.18771" lon="6.65461">
        <ele>1694.2</ele>
        <time>2023-06-24T13:39:59.731Z</time>
      </trkpt>
      <trkpt lat="44.18767" lon="6.65454">
        <ele>1693.5</ele>
        <time>2023-06-24T13:40:08.649Z</time>
      </trkpt>
      <trkpt lat="44.18764" lon="6.65446">
        <ele>1693</ele>
        <time>2023-06-24T13:40:17.644Z</time>
      </trkpt>
      <trkpt lat="44.18761" lon="6.65438">
        <ele>1692.2</ele>
        <time>2023-06-24T13:40:26.639Z</time>
      </trkpt>
      <trkpt lat="44.18758" lon="6.6543">
        <ele>1691.4</ele>
        <time>2023-06-24T13:40:35.634Z</time>
      </trkpt>
      <trkpt lat="44.18756" lon="6.65423">
        <ele>1690.7</ele>
        <time>2023-06-24T13:40:43.141Z</time>
      </trkpt>
      <trkpt lat="44.18754" lon="6.65416">
        <ele>1690</ele>
        <time>2023-06-24T13:40:50.649Z</time>
      </trkpt>
      <trkpt lat="44.18751" lon="6.65409">
        <ele>1689.8</ele>
        <time>2023-06-24T13:40:59.025Z</time>
      </trkpt>
      <trkpt lat="44.18749" lon="6.65402">
        <ele>1689.7</ele>
        <time>2023-06-24T13:41:07.135Z</time>
      </trkpt>
      <trkpt lat="44.18747" lon="6.65396">
        <ele>1689.5</ele>
        <time>2023-06-24T13:41:13.774Z</time>
      </trkpt>
      <trkpt lat="44.18745" lon="6.6539">
        <ele>1689.3</ele>
        <time>2023-06-24T13:41:20.413Z</time>
      </trkpt>
      <trkpt lat="44.18742" lon="6.65384">
        <ele>1689</ele>
        <time>2023-06-24T13:41:27.701Z</time>
      </trkpt>
      <trkpt lat="44.1874" lon="6.65379">
        <ele>1688.6</ele>
        <time>2023-06-24T13:41:33.405Z</time>
      </trkpt>
      <trkpt lat="44.18734" lon="6.65377">
        <ele>1689.9</ele>
        <time>2023-06-24T13:41:53.949Z</time>
      </trkpt>
      <trkpt lat="44.18727" lon="6.65376">
        <ele>1691.1</ele>
        <time>2023-06-24T13:42:14.000Z</time>
      </trkpt>
    </trkseg>
  </trk>
</gpx>